[[{"header":{"parameterUnit":"m.s-1","parameterCategory":1,"la1":31.0,"la2":29.5877,"lo1":-88.7671,"lo2":-86.6584,"dy":0.0162,"dx":0.0185,"nx":115,"ny":88,"refTime":"2026-05-16T00:00:00:Z","depth":0,"parameterNumber":2,"parameterNumberName":"U-component_of_WINDS"},"data":[0.0,0.0,0.0,0.0,0.0,0.0,0.0,0.0,0.0,0.0,0.0,0.0,0.0,0.0,0.0,0.0,0.0,0.0,0.0,0.0,0.0,0.0,0.0,0.0,0.0,0.0,0.0,0.0,0.0,0.0,0.0,0.0,0.0,0.0,0.0,0.0,0.0,0.0,0.0,0.0,0.0,0.0,0.0,0.0,0.0,0.0,0.0,0.0,0.0,0.0,0.0,0.0,0.0,0.0,0.0,0.0,0.0,0.0,0.0,0.0,0.0,0.0,0.0,0.0,0.0,0.0,0.0,0.0,0.0,0.0,0.0,0.0,0.0,0.0,0.0,0.0,0.0,0.0,0.0,0.0,0.0,0.0,0.0,0.0,0.0,0.0,0.0,0.0,0.0,0.0,0.0,0.0,0.0,0.0,0.0,0.0,0.0,0.0,0.0,0.0,0.0,0.0,0.0,0.0,0.0,0.0,0.0,0.0,0.0,0.0,0.0,0.0,0.0,0.0,0.0,0.0,0.0,0.0,0.0,0.0,0.0,0.0,0.0,0.0,0.0,0.0,0.0,0.0,0.0,0.0,0.0,0.0,0.0,0.0,0.0,0.0,0.0,0.0,0.0,0.0,0.0,0.0,0.0,0.0,0.0,0.0,0.0,0.0,0.0,0.0,0.0,0.0,0.0,0.0,0.0,0.0,0.0,0.0,0.0,0.0,0.0,0.0,0.0,0.0,0.0,0.0,0.0,0.0,0.0,0.0,0.0,0.0,0.0,0.0,0.0,0.0,0.0,0.0,0.0,0.0,0.0,0.0,0.0,0.0,0.0,0.0,0.0,0.0,0.0,0.0,0.0,0.0,0.0,0.0,0.0,0.0,0.0,0.0,0.0,0.0,0.0,0.0,0.0,0.0,0.0,0.0,0.0,0.0,0.0,0.0,0.0,0.0,0.0,0.0,0.0,0.0,0.0,0.0,0.0,0.0,0.0,0.0,0.0,0.0,0.0,0.0,0.0,0.0,0.0,0.0,0.0,0.0,0.0,0.0,0.0,0.0,0.0,0.0,0.0,0.0,0.0,0.0,0.0,0.0,0.0,0.0,0.0,0.0,0.0,0.0,0.0,0.0,0.0,0.0,0.0,0.0,0.0,0.0,0.0,0.0,0.0,0.0,0.0,0.0,0.0,0.0,0.0,0.0,0.0,0.0,0.0,0.0,0.0,0.0,0.0,0.0,0.0,0.0,0.0,0.0,0.0,0.0,0.0,0.0,0.0,0.0,0.0,0.0,0.0,0.0,0.0,0.0,0.0,0.0,0.0,0.0,0.0,0.0,0.0,0.0,0.0,0.0,0.0,0.0,0.0,0.0,0.0,0.0,0.0,0.0,0.0,0.0,0.0,0.0,0.0,0.0,0.0,0.0,0.0,0.0,0.0,0.0,0.0,0.0,0.0,0.0,0.0,0.0,0.0,0.0,0.0,0.0,0.0,0.0,0.0,0.0,0.0,0.0,0.0,0.0,0.0,0.0,0.0,0.0,0.0,0.0,0.0,0.0,0.0,0.0,0.0,0.0,0.0,0.0,0.0,0.0,0.0,0.0,0.0,0.0,0.0,0.0,0.0,0.0,0.0,0.0,0.0,0.0,0.0,0.0,0.0,0.0,0.0,0.0,0.0,0.0,0.0,0.0,0.0,0.0,0.0,0.0,0.0,0.0,0.0,0.0,0.0,0.0,0.0,0.0,0.0,0.0,0.0,0.0,0.0,0.0,0.0,0.0,0.0,0.0,0.0,0.0,0.0,0.0,0.0,0.0,0.0,0.0,0.0,0.0,0.0,0.0,0.0,0.0,0.0,0.0,0.0,0.0,0.0,0.0,0.0,0.0,0.0,0.0,0.0,0.0,0.0,0.0,0.0,0.0,0.0,0.0,0.0,0.0,0.0,0.0,0.0,0.0,0.0,0.0,0.0,0.0,0.0,0.0,0.0,0.0,0.0,0.0,0.0,0.0,0.0,0.0,0.0,0.0,0.0,0.0,0.0,0.0,0.0,0.0,0.0,0.0,0.0,0.0,0.0,0.0,0.0,0.0,0.0,0.0,0.0,0.0,0.0,0.0,0.0,0.0,0.0,0.0,0.0,0.0,0.0,0.0,0.0,0.0,0.0,0.0,0.0,0.0,0.0,0.0,0.0,0.0,0.0,0.0,0.0,0.0,0.0,0.0,0.0,0.0,0.0,0.0,0.0,0.0,0.0,0.0,0.0,0.0,0.0,0.0,0.0,0.0,0.0,0.0,0.0,0.0,0.0,0.0,0.0,0.0,0.0,0.0,0.0,0.0,0.0,0.0,0.0,0.0,0.0,0.0,0.0,0.0,0.0,0.0,0.0,0.0,0.0,0.0,0.0,0.0,0.0,0.0,0.0,0.0,0.0,0.0,0.0,0.0,0.0,0.0,0.0,0.0,0.0,0.0,0.0,0.0,0.0,0.0,0.0,0.0,0.0,0.0,0.0,0.0,0.0,0.0,0.0,0.0,0.0,0.0,0.0,0.0,0.0,0.0,0.0,0.0,0.0,0.0,0.0,0.0,0.0,0.0,0.0,0.0,0.0,0.0,0.0,0.0,0.0,0.0,0.0,0.0,0.0,0.0,0.0,0.0,0.0,0.0,0.0,0.0,0.0,0.0,0.0,0.0,0.0,0.0,0.0,0.0,0.0,0.0,0.0,0.0,0.0,0.0,0.0,0.0,0.0,0.0,0.0,0.0,0.0,0.0,0.0,0.0,0.0,0.0,0.0,0.0,0.0,0.0,0.0,0.0,0.0,0.0,0.0,0.0,0.0,0.0,0.0,0.0,0.0,0.0,0.0,0.0,0.0,0.0,0.0,0.0,0.0,0.0,0.0,0.0,0.0,0.0,0.0,0.0,0.0,0.0,0.0,0.0,0.0,0.0,0.0,0.0,0.0,0.0,0.0,0.0,0.0,0.0,0.0,0.0,0.0,0.0,0.0,0.0,0.0,0.0,0.0,0.0,0.0,0.0,0.0,0.0,0.0,0.0,0.0,0.0,0.0,0.0,0.0,0.0,0.0,0.0,0.0,0.0,0.0,0.0,0.0,0.0,0.0,0.0,0.0,0.0,0.0,0.0,0.0,0.0,0.0,0.0,0.0,0.0,0.0,0.0,0.0,0.0,0.0,0.0,0.0,0.0,0.0,0.0,0.0,0.0,0.0,0.0,0.0,0.0,0.0,0.0,0.0,0.0,0.0,0.0,0.0,0.0,0.0,0.0,0.0,0.0,0.0,0.0,0.0,0.0,0.0,0.0,0.0,0.0,0.0,0.0,0.0,0.0,0.0,0.0,0.0,0.0,0.0,0.0,0.0,0.0,0.0,0.0,0.0,0.0,0.0,0.0,0.0,0.0,0.0,0.0,0.0,0.0,0.0,0.0,0.0,0.0,0.0,0.0,0.0,0.0,0.0,0.0,0.0,0.0,0.0,0.0,0.0,0.0,0.0,0.0,0.0,0.0,0.0,0.0,0.0,0.0,0.0,0.0,0.0,0.0,0.0,0.0,0.0,0.0,0.0,0.0,0.0,0.0,0.0,0.0,0.0,0.0,0.0,0.0,0.0,0.0,0.0,0.0,0.0,0.0,0.0,0.0,0.0,0.0,0.0,0.0,0.0,0.0,0.0,0.0,0.0,0.0,0.0,0.0,0.0,0.0,0.0,0.0,0.0,0.0,0.0,0.0,0.0,0.0,0.0,0.0,0.0,0.0,0.0,0.0,0.0,0.0,0.0,0.0,0.0,0.0,0.0,0.0,0.0,0.0,0.0,0.0,0.0,0.0,0.0,0.0,0.0,0.0,0.0,0.0,0.0,0.0,0.0,0.0,0.0,0.0,0.0,0.0,0.0,0.0,0.0,0.0,0.0,0.0,0.0,0.0,0.0,0.0,0.0,0.0,0.0,0.0,0.0,0.0,0.0,0.0,0.0,0.0,0.0,0.0,0.0,0.0,0.0,0.0,0.0,0.0,0.0,0.0,0.0,0.0,0.0,0.0,0.0,0.0,0.0,0.0,0.0,0.0,0.0,0.0,0.0,0.0,0.0,0.0,0.0,0.0,0.0,0.0,0.0,0.0,0.0,0.0,0.0,0.0,0.0,0.0,0.0,0.0,0.0,0.0,0.0,0.0,0.0,0.0,0.0,0.0,0.0,0.0,0.0,0.0,0.0,0.0,0.0,0.0,0.0,0.0,0.0,0.0,0.0,0.0,0.0,0.0,0.0,0.0,0.0,0.0,0.0,0.0,0.0,0.0,0.0,0.0,0.0,0.0,0.0,0.0,0.0,0.0,0.0,0.0,0.0,0.0,0.0,0.0,0.0,0.0,0.0,0.0,0.0,0.0,0.0,0.0,0.0,0.0,0.0,0.0,0.0,0.0,0.0,0.0,0.0,0.0,0.0,0.0,0.0,0.0,0.0,0.0,0.0,0.0,0.0,0.0,0.0,0.0,0.0,0.0,0.0,0.0,0.0,0.0,0.0,0.0,0.0,0.0,0.0,0.0,0.0,0.0,0.0,0.0,0.0,0.0,0.0,0.0,0.0,0.0,0.0,0.0,0.0,0.0,0.0,0.0,0.0,0.0,0.0,0.0,0.0,0.0,0.0,0.0,0.0,0.0,0.0,0.0,0.0,0.0,0.0,0.0,0.0,0.0,0.0,0.0,0.0,0.0,0.0,0.0,0.0,0.0,0.0,0.0,0.0,0.0,0.0,0.0,0.0,0.0,0.0,0.0,0.0,0.0,0.0,0.0,0.0,0.0,0.0,0.0,0.0,0.0,0.0,0.0,0.0,0.0,0.0,0.0,0.0,0.0,0.0,0.0,0.0,0.0,0.0,0.0,0.0,0.0,0.0,0.0,0.0,0.0,0.0,0.0,0.0,0.0,0.0,0.0,0.0,0.0,0.0,0.0,0.0,0.0,0.0,0.0,0.0,0.0,0.0,0.0,0.0,0.0,0.0,0.0,0.0,0.0,0.0,0.0,0.0,0.0,0.0,0.0,0.0,0.0,0.0,0.0,0.0,0.0,0.0,0.0,0.0,0.0,0.0,0.0,0.0,0.0,0.0,0.0,0.0,0.0,0.0,0.0,0.0,0.0,0.0,0.0,0.0,0.0,0.0,0.0,0.0,0.0,0.0,0.0,0.0,0.0,0.0,0.0,0.0,0.0,0.0,0.0,0.0,0.0,0.0,0.0,0.0,0.0,0.0,0.0,0.0,0.0,0.0,0.0,0.0,0.0,0.0,0.0,-0.0091,0.0,0.0,0.0,0.0,0.0,0.0,0.0,0.0,0.0,0.0,0.0,0.0,0.0,0.0,0.0,0.0,0.0,0.0,0.0,0.0,0.0,0.0,0.0,0.0,0.0,0.0,0.0,0.0,0.0,0.0,0.0,0.0,0.0,0.0,0.0,0.0,0.0,0.0,0.0,0.0,0.0,0.0,0.0,0.0,0.0,0.0,0.0,0.0,0.0,0.0,0.0,0.0,0.0,0.0,0.0,0.0,0.0,0.0,0.0,0.0,0.0,0.0,0.0,0.0,0.0,0.0,0.0,0.0,0.0,0.0,0.0,0.0,0.0,0.0,0.0,0.0,0.0,0.0,0.0,0.0,0.0,0.0,0.0,0.0,0.0,0.0,0.0,0.0,0.0,0.0,0.0,0.0,0.0,0.0,0.0,0.0,0.0,0.0,0.0,0.0,0.0,0.0,0.0,0.0,0.0,0.0,0.0,0.0,0.0,0.0,0.0,0.0,-0.1092,-0.1081,-0.0392,0.0,0.0,0.0,0.0,0.0,0.0,0.0,0.0,0.0,0.0,0.0,0.0,0.0,0.0,0.0,0.0,0.0,0.0,0.0,0.0,0.0,0.0,0.0,0.0,0.0,0.0,0.0,0.0,0.0,0.0,0.0,0.0,0.0,0.0,0.0,0.0,0.0,0.0,0.0,0.0,0.0,0.0,0.0,0.0,0.0,0.0,0.0,0.0,0.0,0.0,0.0,0.0,0.0,0.0,0.0,0.0,0.0,0.0,0.0,0.0,0.0,0.0,0.0,0.0,0.0,0.0,0.0,0.0,0.0,0.0,0.0,0.0,0.0,0.0,0.0,0.0,0.0,0.0,0.0,0.0,0.0,0.0,0.0,0.0,0.0,0.0,0.0,0.0,0.0,0.0,0.0,0.0,0.0,0.0,0.0,0.0,0.0,0.0,0.0,0.0,0.0,0.0,0.0,0.0,0.0,0.0,0.0,0.0,0.0,0.0,0.0,0.0,-0.3386,-0.34,-0.1204,0.0,0.0,0.0,0.0,0.0,0.0,0.0,0.0,0.0,0.0,0.0,0.0,0.0,0.0,0.0,0.0,0.0,0.0,0.0,0.0,0.0,0.0,0.0,0.0,0.0,0.0,0.0,0.0,0.0,0.0,0.0,0.0,0.0,0.0,0.0,0.0,0.0,0.0,0.0,0.0,0.0,0.0,0.0,0.0,0.0,0.0,0.0,0.0,0.0,0.0,0.0,0.0,0.0,0.0,0.0,0.0,0.0,0.0,0.0,0.0,0.0,0.0,0.0,0.0,0.0,0.0,0.0,0.0,0.0,0.0,0.0,0.0,0.0,0.0,0.0,0.0,0.0,0.0,0.0,0.0,0.0,0.0,0.0,0.0,0.0,0.0,0.0,0.0,0.0,0.0,0.0,0.0,0.0,0.0,0.0,0.0,0.0,0.0,0.0,0.0,0.0,0.0,0.0,0.0,0.0,0.0,0.0,0.0,0.0,0.0,0.0,-0.4421,0.0,-0.4789,-0.2271,-0.0592,0.0,0.0,0.0,0.0,0.0,0.0,0.0,0.0,0.0,0.0,0.0,0.0,0.0,0.0,0.0,0.0,0.0,0.0,0.0,0.0,0.0,0.0,0.0,0.0,0.0,0.0,0.0,0.0,0.0,0.0,0.0,0.0,0.0,0.0,0.0,0.0,0.0,0.0,0.0,0.0,0.0,0.0,0.0,0.0,0.0,0.0,0.0,0.0,0.0,0.0,0.0,0.0,0.0,0.0,0.0,0.0,0.0,0.0,0.0,0.0,0.0,0.0,0.0,0.0,0.0,0.0,0.0,0.0,0.0,0.0,0.0,0.0,0.0,0.0,0.0,0.0,0.0,0.0,0.0,0.0,0.0,0.0,0.0,0.0,0.0,0.0,0.0,0.0,0.0,0.0,0.0,0.0,0.0,0.0,0.0,0.0,0.0,0.0,0.0,0.0,0.0,0.0,0.0,0.0,0.0,0.0,0.0,0.0,0.0,0.0,-0.3255,-0.4876,-0.4878,-0.363,-0.2027,0.0,0.0,0.0,0.0,0.0,0.0,0.0,0.0,0.0,0.0,0.0,0.0,0.0,0.0,0.0,0.0,0.0,0.0,0.0,0.0,0.0,0.0,0.0,0.0,0.0,0.0,0.0,0.0,0.0,0.0,0.0,0.0,0.0,0.0,0.0,0.0,0.0,0.0,0.0,0.0,0.0,0.0,0.0,0.0,0.0,0.0,0.0,0.0,0.0,0.0,0.0,0.0,0.0,0.0,0.0,0.0,0.0,0.0,0.0,0.0,0.0,0.0,0.0,0.0,0.0,0.0,0.0,0.0,0.0,0.0,0.0,0.0,0.0,0.0,0.0,0.0,0.0,0.0,0.0,0.0,0.0,0.0,0.0,0.0,0.0,0.0,0.0,0.0,0.0,0.0,0.0,0.0,0.0,0.0,0.0,0.0,0.0,0.0,0.0,0.0,0.0,0.0,0.0,0.0,0.0,0.0,0.0,0.0,0.0,0.0,-0.1171,-0.2762,-0.4767,-0.4465,-0.2928,0.0,0.0,0.0,0.0,0.0,0.0,0.0,0.0,0.0,0.0,0.0,0.0,0.0,0.0,0.0,0.0,0.0,0.0,0.0,0.0,0.0,0.0,0.0,0.0,0.0,0.0,0.0,0.0,0.0,0.0,0.0,0.0,0.0,0.0,0.0,0.0,0.0,0.0,0.0,0.0,0.0,0.0,0.0,0.0,0.0,0.0,0.0,0.0,0.0,0.0,0.0,0.0,0.0,0.0,0.0,0.0,0.0,0.0,0.0,0.0,0.0,0.0,0.0,0.0,0.0,0.0,0.0,0.0,0.0,0.0,0.0,0.0,0.0,0.0,0.0,0.0,0.0,0.0,0.0,0.0,0.0,0.0,0.0,0.0,0.0,0.0,0.0,0.0,0.0,0.0,0.0,0.0,0.0,0.0,0.0,0.0,0.0,0.0,0.0,0.0,0.0,0.0,0.0,0.0,0.0,0.0,0.0,0.0,0.0,0.0,0.0,-0.1066,0.0,-0.4353,-0.3369,0.0,0.0,0.0,0.0,0.0,0.0,0.0,0.0,0.0,0.0,0.0,0.0,0.0,0.0,0.0,0.0,0.0,0.0,0.0,0.0,0.0,0.0,0.0,0.0,0.0,0.0,0.0,0.0,0.0,0.0,0.0,0.0,0.0,0.0,0.0,0.0,0.0,0.0,0.0,0.0,0.0,0.0,0.0,0.0,0.0,0.0,0.0,0.0,0.0,0.0,0.0,0.0,0.0,0.0,0.0,0.0,0.0,0.0,0.0,0.0,0.0,0.0,0.0,0.0,0.0,0.0,0.0,0.0,0.0,0.0,0.0,0.0,0.0,0.0,0.0,0.0,0.0,0.0,0.0,0.0,0.0,0.0,0.0,0.0,0.0,0.0,0.0,0.0,0.0,0.0,0.0,0.0,0.0,0.0,0.0,0.0,0.0,0.0,0.0,0.0,0.0,0.0,0.0,0.0,0.0,0.0,0.0,0.0,0.0,0.0,0.0,-0.0257,-0.0119,-0.3111,-0.3267,0.0,0.0,0.0,0.0,0.0,0.0,0.0,0.0,0.0,0.0,0.0,0.0,0.0,0.0,0.0,0.0,0.0,0.0,0.0,0.0,0.0,0.0,0.0,0.0,0.0,0.0,0.0,0.0,0.0,0.0,0.0,0.0,0.0,0.0,0.0,0.0,0.0,0.0,0.0,0.0,0.0,0.0,0.0,0.0,0.0,0.0,0.0,0.0,0.0,0.0,0.0,0.0,0.0,0.0,0.0,0.0,0.0,0.0,0.0,0.0,0.0,0.0,0.0,0.0,0.0,0.0,0.0,0.0,0.0,0.0,0.0,0.0,0.0,0.0,0.0,0.0,0.0,0.0,0.0,0.0,0.0,0.0,0.0,0.0,0.0,0.0,0.0,0.0,0.0,0.0,0.0,0.0,0.0,0.0,0.0,0.0,0.0,0.0,0.0,0.0,0.0,0.0,0.0,0.0,0.0,0.0,0.0,0.0,0.0,-0.3322,-0.3466,-0.2403,-0.0171,-0.0973,-0.1042,0.0,0.0,0.0,0.0,0.0,0.0,0.0,0.0,0.0,0.0,0.0,0.0,0.0,0.0,0.0,0.0,0.0,0.0,0.0,0.0,0.0,0.0,0.0,0.0,0.0,0.0,0.0,0.0,0.0,0.0,0.0,0.0,0.0,0.0,0.0,0.0,0.0,0.0,0.0,0.0,0.0,0.0,0.0,0.0,0.0,0.0,0.0,0.0,0.0,0.0,0.0,0.0,0.0,0.0,0.0,0.0,0.0,0.0,0.0,0.0,0.0,0.0,0.0,0.0,0.0,0.0,0.0,0.0,0.0,0.0,0.0,0.0,0.0,0.0,0.0,0.0,0.0,0.0,0.0,0.0,0.0,0.0,0.0,0.0,0.0,0.0,0.0,0.0,0.0,0.0,0.0,0.0,0.0,0.0,0.0,0.0,0.0,0.0,0.0,0.0,0.0,0.0,0.0,0.0,0.0,0.0,0.0,0.0,0.0,-0.4548,-0.4933,-0.407,-0.1918,-0.0656,0.0,0.0,0.0,0.0,0.0,0.0,0.0,0.0,0.0,0.0,0.0,0.0,0.0,0.0,0.0,0.0,0.0,0.0,0.0,0.0,0.0,0.0,0.0,0.0,0.0,0.0,0.0,0.0,0.0,0.0,0.0,0.0,0.0,0.0,0.0,0.0,0.0,0.0,0.0,0.0,0.0,0.0,0.0,0.0,0.0,0.0,0.0,0.0,0.0,0.0,0.0,0.0,0.0,0.0,0.0,0.0,0.0,0.0,0.0,0.0,0.0,0.0,0.0,0.0,0.0,0.0,0.0,0.0,0.0,0.0,0.0,0.0,0.0,0.0,0.0,0.0,0.0,0.0,0.0,0.0,0.0,0.0,0.0,0.0,0.0,0.0,0.0,0.0,0.0,0.0,0.0,0.0,0.0,0.0,0.0,0.0,0.0,0.0,0.0,0.0,0.0,0.0,0.0,0.0,0.0,0.0,0.0,0.0,0.0,0.0,-0.4152,-0.477,-0.505,-0.4902,-0.1947,-0.0188,0.0,0.0,0.0,0.0,0.0,0.0,0.0,0.0,0.0,0.0,0.0,0.0,0.0,0.0,0.0,0.0,0.0,0.0,0.0,0.0,0.0,0.0,0.0,0.0,0.0,0.0,0.0,0.0,0.0,0.0,0.0,0.0,0.0,0.0,0.0,0.0,0.0,0.0,0.0,0.0,0.0,0.0,0.0,0.0,0.0,0.0,0.0,0.0,0.0,0.0,0.0,0.0,0.0,0.0,0.0,0.0,0.0,0.0,0.0,0.0,0.0,0.0,0.0,0.0,0.0,0.0,0.0,0.0,0.0,0.0,0.0,0.0,0.0,0.0,0.0,0.0,0.0,0.0,0.0,0.0,0.0,0.0,0.0,0.0,0.0,0.0,0.0,0.0,0.0,0.0,0.0,0.0,0.0,0.0,0.0,0.0,0.0,0.0,0.0,0.0,0.0,0.0,0.0,0.0,0.0,0.0,0.0,0.0,0.0,-0.4775,-0.4982,-0.5064,-0.4984,-0.4137,-0.2523,0.0,0.0,0.0,0.0,0.0,0.0,0.0,0.0,0.0,0.0,0.0,0.0,0.0,0.0,0.0,0.0,0.0,0.0,0.0,0.0,0.0,0.0,0.0,0.0,0.0,0.0,0.0,0.0,0.0,0.0,0.0,0.0,0.0,0.0,0.0,0.0,0.0,0.0,0.0,0.0,0.0,0.0,0.0,0.0,0.0,0.0,0.0,0.0,0.0,0.0,0.0,0.0,0.0,0.0,0.0,0.0,0.0,0.0,0.0,0.0,0.0,0.0,0.0,0.0,0.0,0.0,0.0,0.0,0.0,0.0,0.0,0.0,0.0,0.0,0.0,0.0,0.0,0.0,0.0,0.0,0.0,0.0,0.0,0.0,0.0,0.0,0.0,0.0,0.0,0.0,0.0,0.0,0.0,0.0,0.0,0.0,0.0,0.0,0.0,0.0,0.0,0.0,0.0,0.0,0.0,0.0,0.0,0.0,-0.5009,-0.5003,-0.5064,-0.5068,-0.5005,-0.5001,-0.3762,0.0,0.0,0.0,0.0,0.0,0.0,0.0,0.0,0.0,0.0,0.0,0.0,0.0,0.0,0.0,0.0,0.0,0.0,0.0,0.0,0.0,0.0,0.0,0.0,0.0,0.0,0.0,0.0,0.0,0.0,0.0,0.0,0.0,0.0,0.0,0.0,0.0,0.0,0.0,0.0,0.0,0.0,0.0,0.0,0.0,0.0,0.0,0.0,0.0,0.0,0.0,0.0,0.0,0.0,0.0,0.0,0.0,0.0,0.0,0.0,0.0,0.0,0.0,0.0,0.0,0.0,0.0,0.0,0.0,0.0,0.0,0.0,0.0,0.0,0.0,0.0,0.0,0.0,0.0,0.0,0.0,0.0,0.0,0.0,0.0,0.0,0.0,0.0,0.0,0.0,0.0,0.0,0.0,0.0,0.0,0.0,0.0,0.0,0.0,0.0,0.0,0.0,0.0,0.0,0.0,0.0,0.0,0.0,-0.5005,-0.5007,-0.507,-0.5064,-0.5011,-0.5008,-0.4273,0.0,0.0,0.0,0.0,0.0,0.0,0.0,0.0,0.0,0.0,0.0,0.0,0.0,0.0,0.0,0.0,0.0,0.0,0.0,0.0,0.0,0.0,0.0,0.0,0.0,0.0,0.0,0.0,0.0,0.0,0.0,0.0,0.0,0.0,0.0,0.0,0.0,0.0,0.0,0.0,0.0,0.0,0.0,0.0,0.0,0.0,0.0,0.0,0.0,0.0,0.0,0.0,0.0,0.0,0.0,0.0,0.0,0.0,0.0,0.0,0.0,0.0,0.0,0.0,0.0,0.0,0.0,0.0,0.0,0.0,0.0,0.0,0.0,0.0,0.0,0.0,0.0,0.0,0.0,0.0,0.0,0.0,0.0,0.0,0.0,0.0,0.0,0.0,0.0,0.0,0.0,0.0,0.0,0.0,0.0,0.0,0.0,0.0,0.0,0.0,0.0,0.0,0.0,0.0,0.0,0.0,0.0,0.0,-0.5064,-0.5007,-0.5062,-0.5095,-0.5084,-0.5031,-0.4819,0.0,0.0,0.0,0.0,0.0,0.0,0.0,0.0,0.0,0.0,0.0,0.0,0.0,0.0,0.0,0.0,0.0,0.0,0.0,0.0,0.0,0.0,0.0,0.0,0.0,0.0,0.0,0.0,0.0,0.0,0.0,0.0,0.0,0.0,0.0,0.0,0.0,0.0,0.0,0.0,0.0,0.0,0.0,0.0,0.0,0.0,0.0,0.0,0.0,0.0,0.0,0.0,0.0,0.0,0.0,0.0,0.0,0.0,0.0,0.0,0.0,0.0,0.0,0.0,0.0,0.0,0.0,0.0,0.0,0.0,0.0,0.0,0.0,0.0,0.0,0.0,0.0,0.0,0.0,0.0,0.0,0.0,0.0,0.0,0.0,0.0,0.0,0.0,0.0,0.0,0.0,0.0,0.0,0.0,0.0,0.0,0.0,0.0,0.0,0.0,0.0,0.0,0.0,0.0,0.0,0.0,0.0,0.0,-0.5084,-0.5049,-0.5084,-0.5099,-0.5097,-0.506,-0.5038,0.0,0.0,0.0,0.0,0.0,0.0,0.0,0.0,0.0,0.0,0.0,0.0,0.0,0.0,0.0,0.0,0.0,0.0,0.0,0.0,0.0,0.0,0.0,0.0,0.0,0.0,0.0,0.0,0.0,0.0,0.0,0.0,0.0,0.0,0.0,0.0,0.0,0.0,0.0,0.0,0.0,0.0,0.0,0.0,0.0,0.0,0.0,0.0,0.0,0.0,0.0,0.0,0.0,0.0,0.0,0.0,0.0,0.0,0.0,0.0,0.0,0.0,0.0,0.0,0.0,0.0,0.0,0.0,0.0,0.0,0.0,0.0,0.0,0.0,0.0,0.0,0.0,0.0,0.0,0.0,0.0,0.0,0.0,0.0,0.0,0.0,0.0,0.0,0.0,0.0,0.0,0.0,0.0,0.0,0.0,0.0,0.0,0.0,0.0,0.0,0.0,0.0,0.0,0.0,0.0,0.0,0.0,-0.4081,-0.5099,-0.5099,-0.5099,-0.5099,-0.5099,-0.5099,-0.5064,-0.4966,0.0,0.0,0.0,0.0,0.0,0.0,0.0,0.0,0.0,0.0,0.0,0.0,0.0,0.0,0.0,0.0,0.0,0.0,0.0,0.0,0.0,0.0,0.0,0.0,0.0,0.0,0.0,0.0,0.0,0.0,0.0,0.0,0.0,0.0,0.0,0.0,0.0,0.0,0.0,0.0,0.0,0.0,0.0,0.0,0.0,0.0,0.0,0.0,0.0,0.0,0.0,0.0,0.0,0.0,0.0,0.0,0.0,0.0,0.0,0.0,0.0,0.0,0.0,0.0,0.0,0.0,0.0,0.0,0.0,0.0,0.0,0.0,0.0,0.0,0.0,0.0,0.0,0.0,0.0,0.0,0.0,0.0,0.0,0.0,0.0,0.0,0.0,0.0,0.0,0.0,0.0,0.0,0.0,0.0,0.0,0.0,0.0,0.0,0.0,0.0,0.0,0.0,0.0,0.0,0.0,-0.0426,-0.3502,-0.5099,-0.5099,-0.5099,-0.5099,-0.5099,-0.5099,-0.5095,-0.4949,0.0,0.0,0.0,0.0,0.0,0.0,0.0,0.0,0.0,0.0,0.0,0.0,0.0,0.0,0.0,0.0,0.0,0.0,0.0,0.0,0.0,0.0,0.0,0.0,0.0,0.0,0.0,0.0,0.0,0.0,0.0,0.0,0.0,0.0,0.0,0.0,0.0,0.0,0.0,0.0,0.0,0.0,0.0,0.0,0.0,0.0,0.0,0.0,0.0,0.0,0.0,0.0,0.0,0.0,0.0,0.0,0.0,0.0,0.0,0.0,0.0,0.0,0.0,0.0,0.0,0.0,0.0,0.0,0.0,0.0,0.0,0.0,0.0,0.0,0.0,0.0,0.0,0.0,0.0,0.0,0.0,0.0,0.0,0.0,0.0,0.0,0.0,0.0,0.0,0.0,0.0,0.0,0.0,0.0,0.0,0.0,0.0,0.0,0.0,0.0,0.0,0.0,0.0,0.0,0.0,0.0,-0.2474,-0.4196,-0.5061,-0.5099,-0.5099,-0.508,-0.4214,-0.4188,0.0,0.0,0.0,0.0,0.0,0.0,0.0,0.0,0.0,0.0,0.0,0.0,0.0,0.0,0.0,0.0,0.0,0.0,0.0,0.0,0.0,0.0,0.0,0.0,0.0,0.0,0.0,0.0,0.0,0.0,0.0,0.0,0.0,0.0,0.0,0.0,0.0,0.0,0.0,0.0,0.0,0.0,0.0,0.0,0.0,0.0,0.0,0.0,0.0,0.0,0.0,0.0,0.0,0.0,0.0,0.0,0.0,0.0,0.0,0.0,0.0,0.0,0.0,0.0,0.0,0.0,0.0,0.0,0.0,0.0,0.0,0.0,0.0,0.0,0.0,0.0,0.0,0.0,0.0,0.0,0.0,0.0,0.0,0.0,0.0,0.0,0.0,0.0,0.0,0.0,0.0,0.0,0.0,0.0,0.0,0.0,0.0,0.0,0.0,0.0,0.0,0.0,0.0,0.0,0.0,0.0,0.0,-0.1671,-0.3357,-0.5005,-0.5093,-0.5101,-0.5061,-0.3407,-0.3313,0.0,0.0,0.0,0.0,0.0,0.0,0.0,0.0,0.0,0.0,0.0,0.0,0.0,0.0,0.0,0.0,0.0,0.0,0.0,0.0,0.0,0.0,0.0,0.0,0.0,0.0,0.0,0.0,0.0,0.0,0.0,0.0,0.0,0.0,0.0,0.0,0.0,0.0,0.0,0.0,0.0,-0.0341,0.0,0.0,0.0,0.0,0.0,0.0,0.0,0.0,0.0,0.0,0.0,0.0,0.0,0.0,0.0,0.0,0.0,0.0,0.0,0.0,0.0,0.0,0.0,0.0,0.0,0.0,0.0,0.0,0.0,0.0,0.0,0.0,0.0,0.0,0.0,0.0,0.0,0.0,0.0,0.0,0.0,0.0,0.0,0.0,0.0,0.0,0.0,0.0,0.0,0.0,0.0,0.0,0.0,0.0,0.0,0.0,0.0,0.0,0.0,0.0,0.0,0.0,0.0,0.0,0.0,-0.1716,-0.3397,-0.4998,-0.5095,-0.5098,-0.507,-0.3411,-0.3312,0.0,0.0,0.0,0.0,0.0,0.0,0.0,0.0,0.0,0.0,0.0,0.0,0.0,0.0,0.0,0.0,0.0,0.0,0.0,0.0,0.0,0.0,0.0,0.0,0.0,0.0,0.0,0.0,0.0,0.0,0.0,0.0,0.0,0.0,0.0,0.0,0.0,0.0,0.0,0.0,0.0,-0.1478,-0.0178,0.0,-0.0053,0.0,0.0,0.0,0.0,0.0,0.0,0.0,0.0,0.0,0.0,0.0,0.0,0.0,0.0,0.0,0.0,0.0,0.0,0.0,0.0,0.0,0.0,0.0,0.0,0.0,0.0,0.0,0.0,0.0,0.0,0.0,0.0,0.0,0.0,0.0,0.0,0.0,0.0,0.0,0.0,0.0,0.0,0.0,0.0,0.0,0.0,0.0,0.0,0.0,0.0,0.0,0.0,0.0,0.0,0.0,0.0,0.0,0.0,0.0,0.0,-0.0947,-0.281,-0.2712,-0.3409,-0.5032,-0.51,-0.5095,-0.5091,-0.341,-0.241,0.0,0.0,0.0,0.0,0.0,0.0,0.0,0.0,0.0,0.0,0.0,0.0,0.0,0.0,0.0,0.0,0.0,0.0,0.0,0.0,0.0,0.0,0.0,0.0,0.0,0.0,0.0,0.0,0.0,0.0,0.0,0.0,0.0,0.0,0.0,0.0,0.0,0.0,0.0,0.0,0.0,0.0,-0.259,-0.1071,0.0,0.0,0.0,0.0,0.0,0.0,0.0,0.0,0.0,0.0,0.0,0.0,0.0,0.0,0.0,0.0,0.0,0.0,0.0,0.0,0.0,0.0,0.0,0.0,0.0,0.0,0.0,0.0,0.0,0.0,0.0,0.0,0.0,0.0,0.0,0.0,0.0,0.0,0.0,0.0,0.0,0.0,0.0,0.0,0.0,0.0,0.0,0.0,0.0,0.0,0.0,0.0,0.0,0.0,0.0,0.0,0.0,0.0,0.0,0.0,0.0,0.0,-0.4978,-0.3857,-0.3826,-0.5047,-0.5094,-0.5092,-0.507,-0.3827,0.0,0.0,0.0,0.0,0.0,0.0,0.0,0.0,0.0,0.0,0.0,0.0,0.0,0.0,0.0,0.0,0.0,0.0,0.0,0.0,0.0,0.0,0.0,0.0,0.0,0.0,0.0,0.0,0.0,0.0,0.0,0.0,0.0,0.0,0.0,0.0,0.0,0.0,0.0,0.0,0.0,0.0,-0.4367,-0.4426,-0.2515,-0.1043,0.0,0.0,-0.0989,-0.1051,-0.1048,-0.0817,0.0,0.0,0.0,0.0,0.0,0.0,0.0,0.0,0.0,0.0,0.0,0.0,0.0,0.0,0.0,0.0,0.0,0.0,0.0,0.0,0.0,0.0,0.0,0.0,0.0,0.0,0.0,0.0,0.0,0.0,0.0,0.0,0.0,0.0,0.0,0.0,0.0,0.0,0.0,0.0,0.0,0.0,0.0,0.0,0.0,0.0,0.0,0.0,0.0,0.0,0.0,0.0,0.0,0.0,0.0,-0.4951,-0.498,-0.4969,-0.5094,-0.51,-0.51,-0.5093,-0.4983,-0.3362,0.0,0.0,0.0,0.0,0.0,0.0,0.0,0.0,0.0,0.0,0.0,0.0,0.0,0.0,0.0,0.0,0.0,0.0,0.0,0.0,0.0,0.0,0.0,0.0,0.0,0.0,0.0,0.0,0.0,0.0,0.0,0.0,0.0,0.0,0.0,0.0,0.0,0.0,0.0,0.0,0.0,-0.4275,-0.4459,-0.4227,-0.3905,0.0,0.0,-0.369,-0.3873,-0.3904,-0.3032,-0.0428,0.0,0.0,0.0,0.0,0.0,0.0,0.0,0.0,0.0,0.0,0.0,0.0,0.0,0.0,0.0,0.0,0.0,0.0,0.0,0.0,0.0,0.0,0.0,0.0,0.0,0.0,0.0,0.0,0.0,0.0,0.0,0.0,0.0,0.0,0.0,0.0,0.0,0.0,0.0,0.0,0.0,0.0,0.0,0.0,0.0,0.0,0.0,0.0,0.0,0.0,0.0,0.0,0.0,-0.1182,-0.3535,-0.459,-0.5097,-0.5097,-0.5096,-0.5096,-0.5097,-0.5097,-0.4003,0.0,0.0,0.0,0.0,0.0,0.0,0.0,0.0,0.0,0.0,0.0,0.0,0.0,0.0,0.0,0.0,0.0,0.0,0.0,0.0,0.0,0.0,0.0,0.0,0.0,0.0,0.0,0.0,0.0,0.0,0.0,0.0,0.0,0.0,0.0,0.0,0.0,0.0,0.0,0.0,0.0,-0.4275,-0.4471,-0.4457,0.0,0.0,-0.4068,-0.4102,-0.4185,-0.4212,-0.3808,-0.2699,-0.2352,0.0,0.0,0.0,0.0,0.0,0.0,0.0,0.0,0.0,0.0,0.0,0.0,0.0,0.0,0.0,0.0,0.0,0.0,0.0,0.0,0.0,0.0,0.0,0.0,0.0,0.0,0.0,0.0,0.0,0.0,0.0,0.0,0.0,0.0,0.0,0.0,0.0,0.0,0.0,0.0,0.0,0.0,0.0,0.0,0.0,0.0,0.0,0.0,0.0,0.0,0.0,0.0,-0.1885,-0.2598,-0.4258,-0.5098,-0.5098,-0.5098,-0.5098,-0.5098,-0.5098,-0.4326,0.0,0.0,0.0,0.0,0.0,0.0,0.0,0.0,0.0,0.0,0.0,0.0,0.0,0.0,0.0,0.0,0.0,0.0,0.0,0.0,0.0,0.0,0.0,0.0,0.0,0.0,0.0,0.0,0.0,0.0,0.0,0.0,0.0,0.0,0.0,0.0,0.0,0.0,0.0,0.0,0.0,-0.424,-0.4383,-0.4465,-0.4454,-0.4312,-0.4265,-0.4237,-0.4212,-0.4178,-0.4126,-0.4037,0.0,0.0,0.0,0.0,0.0,0.0,0.0,0.0,0.0,0.0,0.0,0.0,0.0,0.0,0.0,0.0,0.0,0.0,0.0,0.0,0.0,0.0,0.0,0.0,0.0,0.0,0.0,0.0,0.0,0.0,0.0,0.0,0.0,0.0,0.0,0.0,0.0,0.0,0.0,0.0,0.0,0.0,0.0,0.0,0.0,0.0,0.0,0.0,0.0,0.0,0.0,0.0,0.0,0.0,-0.2676,-0.4277,-0.5098,-0.5098,-0.5098,-0.5098,-0.5098,-0.5098,-0.4316,-0.2598,0.0,0.0,0.0,0.0,0.0,0.0,0.0,0.0,0.0,0.0,0.0,0.0,0.0,0.0,0.0,0.0,0.0,0.0,0.0,0.0,0.0,0.0,0.0,0.0,0.0,0.0,0.0,0.0,0.0,0.0,0.0,0.0,0.0,0.0,0.0,0.0,0.0,0.0,0.0,-0.4148,-0.4135,-0.4214,-0.4375,-0.4485,-0.4488,-0.4429,-0.4349,-0.4211,-0.4155,-0.4037,0.0,0.0,0.0,0.0,0.0,0.0,0.0,0.0,0.0,0.0,0.0,0.0,0.0,0.0,0.0,0.0,0.0,0.0,0.0,0.0,0.0,0.0,0.0,0.0,0.0,0.0,0.0,-0.1042,-0.0064,0.0,0.0,0.0,0.0,0.0,0.0,0.0,0.0,0.0,0.0,0.0,-0.3507,-0.3509,0.0,0.0,0.0,0.0,0.0,0.0,0.0,0.0,0.0,0.0,0.0,0.0,-0.4824,-0.4316,-0.4824,-0.5098,-0.5098,-0.5098,-0.5098,-0.5098,-0.5098,-0.376,-0.0977,0.0,0.0,0.0,0.0,0.0,0.0,0.0,0.0,0.0,0.0,0.0,0.0,0.0,0.0,0.0,0.0,0.0,0.0,0.0,0.0,0.0,0.0,0.0,0.0,0.0,0.0,0.0,0.0,0.0,0.0,0.0,0.0,0.0,0.0,0.0,0.0,0.0,-0.4211,-0.4326,-0.4314,-0.4302,-0.4331,-0.4395,-0.4456,0.0,0.0,0.0,0.0,0.0,0.0,0.0,0.0,0.0,0.0,0.0,0.0,0.0,0.0,-0.2239,-0.2195,-0.2163,-0.2069,-0.1835,0.0,0.0,0.0,0.0,0.0,0.0,0.0,0.0,0.0,0.0,0.0,0.0,0.0,0.0,0.0,0.0,-0.1439,0.0,0.0,0.0,0.0,0.0,0.0,0.0,0.0,-0.5481,-0.5426,-0.4929,-0.4929,-0.4786,0.0,-0.4501,-0.3863,0.0,0.0,0.0,0.0,0.0,0.0,0.0,0.0,-0.5098,-0.5098,-0.5098,-0.5098,-0.5098,-0.5098,-0.5098,-0.5098,-0.5098,-0.3506,0.0,0.0,0.0,0.0,0.0,0.0,0.0,0.0,0.0,0.0,0.0,0.0,0.0,0.0,0.0,0.0,0.0,0.0,0.0,0.0,0.0,0.0,0.0,0.0,0.0,0.0,0.0,0.0,0.0,0.0,0.0,0.0,0.0,0.0,0.0,0.0,-0.1561,-0.3181,-0.4388,-0.4426,-0.4429,-0.4446,-0.4437,0.0,0.0,0.0,0.0,0.0,0.0,0.0,-0.4037,-0.3825,-0.3927,-0.3985,-0.3855,-0.3675,-0.3571,-0.363,0.0,0.0,-0.3359,-0.3269,-0.3121,-0.2861,-0.2761,-0.2728,-0.2637,-0.2627,-0.2593,0.0,0.0,0.0,0.0,0.0,0.0,0.0,0.0,-0.7613,-0.6661,0.0,-0.2971,0.0,0.0,0.0,0.0,0.0,0.0,0.0,0.0,-0.7349,-0.7622,-0.7559,-0.7528,-0.7181,-0.6458,-0.6417,-0.5685,-0.4233,-0.269,0.0,0.0,0.0,0.0,0.0,0.0,-0.5097,-0.5097,-0.5098,-0.5098,-0.5098,-0.5098,-0.5098,-0.5098,-0.5098,-0.3496,0.0,0.0,0.0,0.0,0.0,0.0,0.0,0.0,0.0,0.0,0.0,0.0,0.0,0.0,0.0,0.0,0.0,0.0,0.0,0.0,0.0,0.0,0.0,0.0,0.0,0.0,0.0,0.0,0.0,0.0,0.0,0.0,0.0,0.0,0.0,0.0,-0.4344,-0.4456,-0.449,-0.449,0.0,0.0,0.0,0.0,-0.5525,-0.7907,-0.5977,-0.4212,-0.4212,-0.4148,-0.4044,-0.384,0.0,0.0,-0.3935,-0.3847,-0.3773,-0.3717,-0.3653,-0.3567,-0.3419,-0.3291,-0.3157,-0.3031,-0.2896,-0.2794,-0.2732,-0.2656,-0.2593,-1.0413,0.0,0.0,0.0,0.0,-0.7627,-0.7596,-0.7603,-0.7629,-0.7377,-0.6863,-0.5312,0.0,0.0,0.0,0.0,0.0,0.0,-0.7589,-0.7417,-0.8164,-0.819,-0.7601,-0.7601,-0.7478,-0.727,-0.7241,-0.6747,-0.5759,-0.4932,-0.3925,-0.2822,0.0,0.0,0.0,0.0,-0.5095,-0.5095,-0.5097,-0.5098,-0.5098,-0.5098,-0.5098,-0.5098,-0.5098,-0.3486,0.0,0.0,0.0,0.0,0.0,0.0,0.0,0.0,0.0,0.0,0.0,0.0,0.0,0.0,0.0,0.0,0.0,0.0,0.0,0.0,0.0,0.0,0.0,0.0,0.0,0.0,0.0,0.0,0.0,0.0,0.0,0.0,0.0,0.0,0.0,0.0,-0.4488,-0.449,-0.449,0.0,0.0,-0.5309,-0.7476,-0.7704,-0.7864,-0.8493,0.0,0.0,0.0,-0.4179,-0.4104,-0.3905,-0.4034,-0.4138,-0.4055,-0.3898,-0.3773,-0.3701,-0.3693,-0.3638,-0.3557,-0.3355,-0.319,-0.3145,-0.3037,-0.2921,-0.2857,-0.2703,-0.2598,-1.2562,-1.0914,-1.0042,-0.9681,-0.9689,-0.9645,-0.962,-0.9597,-0.9246,-0.8935,-0.8616,-0.7829,-0.8507,-1.0057,-0.7576,0.0,0.0,0.0,-0.849,-0.8666,-0.9172,-0.9146,-0.8643,-0.8636,-0.8449,-0.8116,-0.8118,-0.7681,-0.6884,-0.655,-0.5851,-0.4782,0.0,0.0,-0.5088,-0.5098,-0.5093,-0.5095,-0.5097,-0.5098,-0.5098,-0.5098,-0.5098,-0.5098,-0.5098,-0.4131,-0.209,-0.0713,0.0,0.0,0.0,0.0,0.0,0.0,0.0,0.0,0.0,0.0,0.0,0.0,0.0,0.0,0.0,0.0,0.0,0.0,0.0,0.0,0.0,0.0,0.0,0.0,0.0,0.0,0.0,0.0,0.0,0.0,0.0,-0.4345,-0.4544,-0.4539,-0.4556,-0.5592,-0.6328,-0.6328,-0.6328,-0.701,-0.8831,0.0,-0.8953,-0.8872,-0.7316,-0.6054,-0.5853,-0.5825,-0.5434,-0.4186,-0.411,-0.4178,-0.4144,-0.3956,-0.3796,-0.3742,-0.3734,-0.3703,-0.3614,-0.3408,-0.324,-0.3213,-0.3088,-0.2982,-0.2909,-0.2766,-0.2636,-1.3882,-1.4035,-1.3226,-1.28,-1.2697,-1.2699,-1.2685,-1.2627,-1.1766,-1.0918,-1.0117,-1.0167,-1.0196,-1.0099,-0.8517,0.0,0.0,-0.9017,-0.9426,-1.0186,-1.0196,-1.0196,-1.0196,-1.0177,-0.9777,-0.8988,-0.9007,-0.8543,-0.7732,-0.771,-0.7657,-0.7546,-0.5569,-0.4789,-0.5175,-0.521,-0.5178,-0.5096,-0.5096,-0.5097,-0.5098,-0.5098,-0.5098,-0.5098,-0.5098,-0.4951,-0.46,-0.1953,-0.0273,0.0,0.0,0.0,0.0,0.0,0.0,0.0,0.0,0.0,0.0,0.0,0.0,0.0,0.0,0.0,0.0,0.0,0.0,0.0,0.0,0.0,0.0,-0.0247,0.0,0.0,0.0,-0.038,-0.04,-0.2908,-0.4712,-0.4929,0.0,0.0,0.0,0.0,-0.9092,-0.91,-0.91,-0.91,-0.91,-0.9099,-0.9088,-0.905,-0.8918,-0.8681,-0.8079,-0.8063,-0.7304,-0.5167,-0.4532,-0.4587,-0.4249,-0.3969,-0.3833,-0.381,-0.3811,-0.3765,-0.3614,-0.3429,-0.3293,-0.3219,-0.3097,-0.2982,-0.2918,-0.2795,-0.269,-1.4929,-1.4983,-1.4714,-1.3865,-1.2704,-1.2699,-1.2695,-1.2627,-1.1786,-1.091,-1.0104,-1.0106,-1.015,-1.0177,-0.977,-0.969,-0.9896,-0.9906,-1.0002,-1.0186,-1.0196,-1.0196,-1.0196,-1.0196,-1.0099,-0.9896,-0.9886,-0.9455,-0.8611,-0.8601,-0.8244,-0.7616,-0.707,-0.6557,-0.6098,-0.6088,-0.5768,-0.5097,-0.5096,-0.51,-0.5095,-0.5097,-0.5098,-0.5098,-0.5098,-0.3877,-0.1367,-0.2969,-0.2676,0.0,0.0,0.0,0.0,0.0,0.0,0.0,0.0,0.0,0.0,0.0,0.0,0.0,0.0,0.0,0.0,0.0,0.0,0.0,0.0,0.0,0.0,-0.2307,0.0,0.0,-0.374,-0.374,-0.3747,-0.4341,-0.5617,-0.7847,-0.8093,-0.811,-0.811,-0.8741,-0.9155,-0.9111,-0.91,-0.91,-0.909,-0.9016,-0.8936,-0.8922,-0.8751,-0.8513,-0.834,-0.8309,-0.8071,-0.7438,-0.7288,-0.6634,-0.4563,-0.3984,-0.3811,-0.3811,-0.3811,-0.3743,-0.3638,-0.3439,-0.3293,-0.3213,-0.3136,-0.3049,-0.2922,-0.2832,-0.2732,-1.5284,-1.5294,-1.5226,-1.467,-1.3821,-1.3811,-1.3802,-1.3733,-1.2887,-1.2041,-1.1262,-1.1243,-1.1279,-1.1306,-1.1297,-1.1097,-1.0747,-1.0724,-1.0544,-1.0212,-1.0193,-1.0193,-1.0196,-1.0196,-1.0196,-1.0196,-1.0196,-0.9954,-0.9506,-0.9474,-0.9223,-0.8762,-0.8762,-0.8336,-0.7519,-0.6773,-0.6164,-0.5697,-0.5294,-0.5096,-0.5094,-0.5097,-0.5098,-0.5098,-0.5098,-0.3496,-0.0156,-0.1836,-0.1943,0.0,0.0,0.0,0.0,0.0,0.0,0.0,0.0,0.0,0.0,0.0,0.0,0.0,0.0,0.0,0.0,0.0,0.0,0.0,0.0,0.0,-0.21,-0.3891,-0.497,-0.4914,-0.4917,-0.4917,-0.4917,-0.4849,-0.5978,-0.8966,-0.934,-0.9331,-0.934,-0.9311,-0.9245,-0.9164,-0.9121,-0.91,-0.909,-0.8985,-0.8838,-0.8672,-0.8501,-0.8395,-0.8301,-0.8309,-0.8309,-0.8309,-0.8309,-0.7727,-0.6218,-0.5681,-0.516,-0.4094,-0.3811,-0.375,-0.3622,-0.3437,-0.327,-0.3213,-0.3169,-0.31,-0.2957,-0.2869,-0.2769,-1.5284,-1.5294,-1.5226,-1.5195,-1.5195,-1.5195,-1.5195,-1.5138,-1.4276,-1.344,-1.269,-1.2772,-1.2892,-1.3012,-1.2781,-1.228,-1.1574,-1.1439,-1.1032,-1.0363,-1.0241,-1.019,-1.0196,-1.0196,-1.0196,-1.0196,-1.0196,-1.0196,-1.0196,-1.0196,-1.0196,-1.0196,-1.0196,-0.9825,-0.903,-0.7511,-0.661,-0.6386,-0.5541,-0.5094,-0.5092,-0.5096,-0.5097,-0.5097,-0.5097,-0.3594,-0.0498,-0.0107,-0.0215,-0.0605,0.0,0.0,0.0,0.0,0.0,0.0,0.0,0.0,0.0,0.0,0.0,0.0,0.0,0.0,0.0,0.0,0.0,0.0,-0.0381,-0.1836,-0.4719,-0.4984,-0.4959,-0.4911,-0.4917,-0.5052,-0.5444,-0.5476,-0.6498,-0.9225,-0.9533,-0.9534,-0.9533,-0.9465,-0.9394,-0.9227,-0.9164,-0.9121,-0.9081,-0.8979,-0.8781,-0.8412,-0.8306,-0.8322,-0.8301,-0.8309,-0.8309,-0.8309,-0.8309,-0.8248,-0.8021,-0.7707,-0.673,-0.4465,-0.3811,-0.3765,-0.363,-0.3462,-0.331,-0.3231,-0.321,-0.3157,-0.306,-0.2933,-0.2826,-1.5288,-1.5294,-1.5226,-1.5204,-1.5195,-1.5195,-1.5195,-1.5138,-1.4266,-1.3449,-1.2743,-1.3157,-1.3869,-1.4589,-1.3301,-1.2603,-1.2424,-1.1705,-1.1318,-1.1154,-1.0508,-1.0193,-1.0196,-1.0193,-1.0196,-1.0196,-1.0196,-1.0196,-1.0196,-1.0196,-1.0196,-1.0196,-1.0196,-1.0118,0.0,0.0,0.0,0.0,-0.5551,-0.5096,-0.5095,-0.5094,-0.5096,-0.5095,-0.5095,0.0,-0.2187,-0.0762,-0.1289,-0.3857,-0.1494,0.0,0.0,0.0,0.0,0.0,0.0,0.0,0.0,0.0,0.0,0.0,0.0,0.0,0.0,0.0,0.0,0.0,-0.247,-0.429,-0.4847,-0.4915,-0.4918,-0.4917,-0.4917,-0.5921,-0.8436,-0.882,-0.9143,-0.9636,-0.9749,-0.9739,-0.9734,-0.968,-0.9534,-0.9256,-0.9188,-0.9165,-0.91,-0.8996,-0.8832,-0.8632,-0.845,-0.8301,-0.8309,-0.8309,-0.8309,-0.8309,-0.8309,-0.8256,-0.8108,-0.7812,-0.6743,-0.4313,-0.3811,-0.378,-0.3702,-0.3521,-0.3376,-0.3302,-0.3257,-0.3199,-0.3166,-0.3109,-0.3007,-1.5288,0.0,-1.5226,-1.5199,0.0,-1.5195,-1.5195,-1.5157,-1.4738,-1.4305,-1.396,-1.422,-1.4647,-1.5147,-1.4306,-1.3705,-1.3286,-1.283,-1.2184,-1.1383,-1.0976,-1.0585,-1.0196,-1.0193,-1.0196,-1.0193,-1.0193,-1.0193,-1.0193,-1.0193,-1.0193,-1.0193,-1.0193,-1.0193,-1.0174,-0.9327,-0.8077,-0.6412,-0.5532,-0.5093,-0.5101,-0.51,-0.5093,-0.5092,0.0,0.0,0.0,0.0,0.0,0.0,0.0,0.0,0.0,0.0,0.0,0.0,0.0,-0.0732,-0.2354,-0.251,-0.251,-0.251,-0.2517,-0.1801,-0.0156,0.0,-0.0711,-0.2385,-0.4075,-0.4977,-0.4959,-0.495,-0.4941,-0.5007,-0.6403,-0.8078,-0.9473,-0.9791,-0.9791,-0.9791,-0.9791,-0.9791,-0.9791,-0.9743,-0.9608,-0.9394,-0.9312,-0.9264,-0.9165,-0.9062,-0.8953,-0.8809,-0.8505,-0.8301,-0.8309,-0.8309,-0.8301,-0.8309,-0.8309,-0.8235,-0.8129,-0.7819,-0.6779,-0.4436,-0.3811,-0.3788,-0.375,-0.3658,-0.3565,-0.3457,-0.3327,-0.3254,-0.3254,-0.3201,-0.3115,-1.5255,-1.52,-1.5195,-1.5203,-1.5195,-1.5195,-1.5195,-1.5195,0.0,0.0,0.0,-1.5195,-1.5195,-1.5195,-1.5195,-1.4805,-1.4122,-1.3824,-1.2935,-1.1612,-1.1303,-1.0816,-1.0198,-1.0192,-1.0195,-1.0182,-1.0172,-1.0182,-1.0182,-1.0172,-1.0195,-1.0195,-1.0195,-1.0189,-1.0141,-0.9327,-0.8137,-0.6649,-0.5609,-0.51,-0.5098,-0.5095,-0.5098,-0.5096,-0.5093,-0.5096,-0.5092,-0.5096,-0.3799,-0.1152,-0.3574,-0.3828,-0.1104,-0.0342,0.0,0.0,-0.0566,-0.2139,-0.4883,-0.5098,-0.5098,-0.5098,-0.5101,-0.3912,-0.1086,-0.089,-0.2054,-0.4876,-0.505,-0.502,-0.501,-0.502,-0.5277,-0.5832,-0.8306,-0.985,-0.9822,-0.9791,-0.9791,-0.9791,-0.9791,-0.9791,-0.9791,-0.9758,-0.9681,-0.9567,-0.95,-0.9385,-0.9227,-0.9155,-0.9062,-0.8933,-0.864,-0.8395,-0.8374,-0.8387,-0.8345,-0.8353,-0.8322,-0.8269,-0.8135,-0.7869,-0.6824,-0.5102,-0.4209,-0.3832,-0.3811,-0.3796,-0.375,-0.363,-0.3432,-0.3292,-0.3289,-0.3262,-0.3193,-1.5211,-1.5195,-1.5195,-1.5195,-1.5195,-1.5195,-1.5195,-1.5195,-1.5195,-1.5195,-1.5195,-1.5195,-1.5195,-1.5195,-1.5195,-1.5138,-1.492,-1.3522,-1.2704,0.0,-1.0959,-1.0229,-1.0105,-1.0106,-1.0119,-1.0108,-1.0098,-1.0112,-1.0112,-1.0119,-1.0113,-1.0136,-1.0182,-1.0189,-1.0131,-0.9337,-0.8414,-0.742,-0.5886,-0.5094,-0.5095,-0.5098,-0.5101,-0.5096,-0.51,-0.5092,-0.5093,-0.5092,-0.4891,-0.4424,-0.4834,-0.4863,-0.4336,-0.1611,0.0,0.0,-0.2744,-0.4609,-0.5049,-0.5098,-0.5098,-0.5098,-0.5101,-0.4872,-0.4452,-0.4372,-0.4588,-0.5101,-0.5093,-0.5082,-0.5089,-0.5077,-0.6193,-0.8821,-0.9696,-0.9921,-0.9803,-0.9791,-0.9791,-0.9791,-0.9791,-0.9791,-0.9791,-0.9803,-0.9763,-0.9749,-0.9649,-0.9552,-0.9293,-0.9189,-0.9165,-0.906,-0.8829,-0.8661,-0.8644,-0.8628,-0.8592,-0.8479,-0.8387,-0.8309,-0.8269,-0.8046,-0.7588,-0.7104,-0.5356,-0.4101,-0.3862,-0.3811,-0.3735,-0.3637,-0.3522,-0.3483,-0.3392,-0.3296,-0.3271,-1.6881,-1.5343,-1.5715,-1.5628,-1.5195,-1.5195,-1.5195,-1.5195,-1.5195,-1.5195,-1.5195,-1.5195,-1.5195,-1.5195,-1.5195,-1.5195,-1.5138,-1.3907,-1.3084,-1.2517,-1.1331,-1.0507,-1.0067,-1.007,-1.0071,-1.0039,-1.0025,-0.9992,-1.0049,-1.0052,-1.0068,-1.0101,-1.0121,-1.0138,-1.011,-0.9753,-0.9137,-0.829,-0.6192,-0.5098,-0.51,-0.5095,-0.5095,-0.5098,-0.51,-0.5095,-0.5092,-0.51,-0.5095,-0.5096,-0.5098,-0.5098,-0.5049,-0.3613,-0.2764,-0.2822,-0.4228,-0.5096,-0.5096,-0.5098,-0.5098,-0.5098,-0.5102,-0.5094,-0.5101,-0.5098,-0.5092,-0.5101,-0.5099,-0.5099,-0.5099,-0.5099,-0.6444,-0.9767,-1.0049,-0.9946,-0.9817,-0.9791,-0.9791,-0.9791,-0.9791,-0.9791,-0.9791,-0.9791,-0.9791,-0.9794,-0.9678,-0.9526,-0.933,-0.9245,-0.9179,-0.9146,-0.9043,-0.8981,-0.896,-0.895,-0.8872,-0.8731,-0.8472,-0.8327,-0.8309,-0.8176,-0.8053,-0.7875,-0.6653,-0.5388,-0.4261,-0.3818,-0.3735,-0.3746,-0.4568,-0.4631,-0.3776,-0.3292,-0.327,-1.8758,-1.643,-1.6439,-1.5987,-1.5214,-1.5195,-1.5195,-1.5195,-1.5195,-1.5195,-1.5195,-1.5195,-1.5195,-1.5195,-1.5195,-1.5199,-1.5064,-1.4078,-1.3232,-1.2544,-1.1507,-1.0655,-1.0053,-1.0035,-1.0025,-0.9976,-0.9915,-0.9923,-0.999,-1.0011,-1.0015,-1.01,-1.0107,-1.0096,-1.01,-0.9898,-0.9418,-0.8562,-0.7026,-0.5953,-0.5391,-0.5195,-0.5099,-0.5096,-0.5098,-0.5096,-0.5097,-0.5096,-0.51,-0.5092,-0.5096,-0.5097,-0.5098,-0.5098,-0.5098,-0.5098,-0.5096,-0.5095,-0.5095,-0.5097,-0.5098,-0.5098,-0.5093,-0.5098,-0.5101,-0.5094,-0.5096,-0.5099,-0.5099,-0.5374,-0.6203,-0.6328,-0.729,-0.9783,-1.003,-0.9936,-0.9819,-0.9791,-0.9791,-0.9791,-0.9791,-0.9791,-0.9791,-0.9791,-0.9791,-0.9777,-0.9663,-0.9559,-0.9475,-0.9321,-0.919,-0.919,-0.919,-0.917,-0.9189,-0.9146,-0.9062,-0.8946,-0.864,-0.845,-0.8382,-0.8335,-0.8243,-0.8065,-0.7797,-0.6813,-0.507,-0.4116,-0.4144,-0.4533,-0.5687,-0.5803,-0.3773,-0.3317,-0.3302,-2.003,-1.9487,-1.7389,-1.593,-1.5263,-1.5205,-1.5195,-1.5195,-1.5195,-1.5195,-1.5195,-1.5195,-1.5195,-1.5195,-1.5195,-1.5193,-1.5072,-1.3477,-1.2688,-1.2424,-1.0878,-1.0071,-1.0005,-0.9935,-0.9914,-0.9896,-0.984,-0.9878,-0.9984,-0.9995,-1.0035,-1.0091,-1.01,-1.0104,-1.0026,-0.9335,-0.8539,-0.779,-0.8998,-0.8521,-0.6287,-0.5486,-0.5095,-0.5096,-0.5095,-0.5096,-0.5095,-0.5094,-0.5093,-0.5093,-0.5101,-0.5096,-0.5097,-0.5097,-0.5098,-0.5098,-0.5096,-0.5095,-0.5098,-0.5098,-0.5098,-0.5098,-0.5096,-0.51,-0.5101,-0.5095,-0.5094,-0.5099,-0.5093,-0.6308,-0.9178,-0.9469,-0.9508,-0.9902,-1.0039,-0.9936,-0.9839,-0.9791,-0.9791,-0.9791,-0.9815,-0.9801,-0.9815,-0.9815,-0.9798,-0.9791,-0.9754,-0.9719,-0.9634,-0.9412,-0.9209,-0.9208,-0.9199,-0.919,-0.9189,-0.918,-0.9138,-0.906,-0.8852,-0.8652,-0.853,-0.8387,-0.8248,-0.8102,-0.7834,-0.7344,-0.6723,-0.5635,-0.4766,-0.6047,-0.658,-0.6165,-0.4045,-0.3499,-0.3578,-2.0171,-2.0079,-1.857,-1.7166,-1.5993,-1.542,-1.5195,-1.5195,-1.5195,-1.5195,-1.5195,-1.5195,-1.5195,-1.5195,-1.5195,-1.5193,-1.5066,-1.3398,-1.2569,-1.2394,-1.0757,-0.9942,-0.9941,-0.9878,-0.984,-0.9843,-0.9803,-0.9833,-0.9885,-0.991,-0.9964,-1.0053,-1.0049,-1.0034,-0.9985,-0.921,-0.8614,-0.8318,-0.8161,-0.7496,-0.638,-0.5511,-0.5099,-0.5095,-0.5098,-0.5095,-0.5101,-0.5095,-0.5099,-0.5099,-0.5096,-0.5093,-0.5099,-0.5097,-0.5098,-0.5098,-0.5097,-0.5097,-0.5098,-0.5098,-0.5098,-0.5098,-0.5097,-0.5097,-0.5095,-0.5097,-0.5101,-0.5093,-0.5098,-0.6484,-0.9554,-1.0104,-1.0104,-1.01,-1.009,-1.003,-0.9934,-0.9894,-0.9856,-0.9872,-0.9872,-0.9856,-0.9847,-0.9866,-0.9846,-0.9805,-0.9791,-0.978,-0.9706,-0.9508,-0.9385,-0.9311,-0.9255,-0.9199,-0.919,-0.919,-0.9169,-0.9146,-0.9041,-0.8877,-0.8739,-0.8468,-0.8261,-0.8129,-0.7841,-0.7642,-0.7525,-0.7048,-0.6487,-0.7418,-0.7244,-0.658,-0.5448,-0.5247,-0.524,-2.0126,-2.0047,-1.9331,-1.8021,-1.6449,-1.5824,-1.5407,-1.5209,-1.5195,-1.5195,-1.5195,-1.5195,-1.5195,-1.5195,-1.5195,-1.5193,-1.4944,-1.3375,-1.2559,-1.2313,-1.0713,-0.9888,-0.9884,-0.9819,-0.9791,-0.9791,-0.9791,-0.9819,-0.9822,-0.9872,-0.9927,-0.9971,-0.9988,-1.001,-0.9896,-0.8994,-0.8438,-0.83,-0.7002,-0.6143,-0.5884,-0.5373,-0.5086,-0.5097,-0.5099,-0.5093,-0.5101,-0.5095,-0.5099,-0.5099,-0.5093,-0.51,-0.5095,-0.5094,-0.5098,-0.5098,-0.5098,-0.5098,-0.5098,-0.5098,-0.5098,-0.5098,-0.5098,-0.5098,-0.5098,-0.5093,-0.51,-0.5172,-0.593,-0.7746,-0.9571,-1.0127,-1.0133,-1.0113,-1.0123,-1.0115,-1.0054,-1.0009,-0.9931,-0.9903,-0.9885,-0.9891,-0.9891,-0.9891,-0.9875,-0.9839,-0.9815,-0.9794,-0.9743,-0.9649,-0.9568,-0.9474,-0.9321,-0.919,-0.919,-0.919,-0.919,-0.9179,-0.9126,-0.9062,-0.8966,-0.864,-0.8366,-0.829,-0.7933,-0.7724,-0.7717,-0.7629,-0.7489,-0.7501,-0.7322,-0.697,-0.6393,-0.6535,-0.653,-2.0108,-2.0002,-1.9296,-1.8013,-1.6422,-1.641,-1.5955,-1.5195,-1.5195,-1.5195,-1.5199,-1.5199,-1.5199,-1.5189,-1.5199,-1.5168,-1.4884,-1.3404,-1.2601,-1.2334,-1.0728,-0.9884,-0.9807,-0.9796,-0.9791,-0.9791,-0.9791,-0.9835,-0.9878,-0.9885,-0.9884,-0.9902,-0.9963,-1.0006,-0.9786,-0.8428,-0.7591,-0.7469,-0.6033,-0.514,-0.5121,-0.5067,-0.5053,-0.5151,-0.5109,-0.5099,-0.5101,-0.5099,-0.5099,-0.5099,-0.5101,-0.5101,-0.5093,-0.5092,-0.5098,-0.5098,-0.5098,-0.5098,-0.5098,-0.5098,-0.5215,-0.5283,-0.5537,-0.5254,-0.5615,-0.5614,-0.5619,-0.5269,-0.8039,-0.9836,-1.0089,-1.018,-1.018,-1.018,-1.0183,-1.0196,-1.0186,-1.0108,-1.003,-0.9944,-0.9915,-0.9909,-0.9897,-0.9891,-0.9891,-0.9882,-0.9846,-0.9808,-0.9808,-0.9784,-0.9749,-0.9641,-0.9439,-0.9207,-0.919,-0.919,-0.919,-0.9189,-0.9178,-0.9158,-0.9039,-0.8883,-0.8689,-0.8487,-0.8264,-0.8074,-0.7913,-0.7768,-0.7628,-0.7514,-0.7314,-0.7009,-0.6678,-0.6616,-0.6599,-2.0117,-2.0097,-1.9324,-1.8311,-1.7219,-1.6728,-1.6013,-1.5224,-1.5195,-1.5193,-1.5187,-1.5152,-1.514,-1.5137,-1.5137,-1.5117,-1.4964,-1.3828,-1.3,-1.2364,-1.1178,-1.0314,-0.9824,-0.9798,-0.9791,-0.9791,-0.9791,-0.9815,-0.9835,-0.9839,-0.9837,-0.9843,-0.9857,-0.9894,-0.9637,-0.8282,-0.7428,-0.7269,-0.5829,-0.5242,-0.5644,-0.5268,-0.5248,-0.5733,-0.534,-0.5099,-0.5099,-0.5099,-0.5099,-0.5099,-0.5099,-0.5097,-0.5099,-0.5096,-0.5096,-0.5096,-0.5096,-0.5096,-0.5096,-0.5096,-0.6132,-0.8184,-0.8418,-0.832,-0.8428,-0.8428,-0.8437,-0.8659,-0.9328,-1.0228,-1.0211,-1.0196,-1.0196,-1.0196,-1.0196,-1.0196,-1.018,-1.0134,-1.0075,-1.003,-1.0024,-1.0018,-0.9965,-0.9921,-0.9888,-0.9891,-0.9872,-0.9863,-0.9863,-0.9856,-0.9839,-0.9756,-0.9567,-0.9385,-0.9403,-0.9284,-0.9207,-0.919,-0.918,-0.9179,-0.9097,-0.9076,-0.8921,-0.8751,-0.8551,-0.833,-0.8143,-0.7819,-0.768,-0.7552,-0.7345,-0.7042,-0.6661,-0.6651,-0.6633,-2.0126,-2.0078,-1.9613,-1.8893,-1.802,-1.7233,-1.6404,-1.56,-1.5293,-1.5156,-1.5172,-1.5133,-1.5107,-1.5076,-1.5069,-1.5043,-1.4935,-1.4106,-1.3374,-1.2708,-1.1554,-1.0718,-1.0218,-0.9921,-0.9791,-0.9791,-0.9791,-0.9791,-0.9791,-0.9791,-0.9791,-0.9798,-0.9798,-0.9838,-0.9625,-0.8241,-0.7388,-0.7101,-0.5809,-0.5359,-0.5991,-0.5421,-0.537,-0.5948,-0.5466,-0.5082,-0.5099,-0.5099,-0.5099,-0.5099,-0.5099,-0.5101,-0.5098,-0.5093,-0.5102,-0.5171,-0.6216,-0.6216,-0.5455,-0.6118,-0.78,-0.999,-1.0293,-1.0312,-1.0312,-1.0312,-1.0312,-1.0312,-1.0296,-1.0273,-1.0249,-1.0227,-1.0229,-1.0205,-1.0196,-1.0196,-1.0196,-1.0167,-1.0138,-1.0119,-1.013,-1.0105,-1.0035,-0.9967,-0.9931,-0.9897,-0.9894,-0.9884,-0.9888,-0.9891,-0.9879,-0.9846,-0.9728,-0.9652,-0.9637,-0.9549,-0.9367,-0.932,-0.919,-0.919,-0.919,-0.919,-0.9139,-0.8979,-0.8786,-0.8559,-0.8282,-0.7925,-0.7731,-0.7605,-0.7407,-0.7155,-0.6908,-0.6736,-0.6685,-2.0108,-2.0107,-2.0164,-1.9618,-1.8737,-1.7926,-1.7157,-1.6277,-1.545,-1.5114,-1.5109,-1.5136,-1.5085,-1.5019,-1.4987,-1.4954,-1.4777,-1.4153,-1.3687,-1.3339,-1.1911,-1.1109,-1.0868,-1.0237,-0.9866,-0.9801,-0.9791,-0.9791,-0.9791,-0.9791,-0.9791,-0.9798,-0.9803,-0.983,-0.9885,-0.8355,-0.7467,-0.7186,-0.5966,-0.5542,-0.6014,-0.5625,-0.5631,-0.6193,-0.5499,-0.5109,-0.5201,-0.5145,-0.5099,-0.5099,-0.5099,-0.51,-0.5094,-0.5098,-0.5097,-0.5571,-0.8138,-0.8226,-0.6187,-0.8139,-0.9499,-1.0303,-1.0312,-1.0312,-1.0312,-1.0312,-1.0312,-1.0312,-1.031,-1.0311,-1.0302,-1.0299,-1.0265,-1.0223,-1.0215,-1.0192,-1.0196,-1.0196,-1.0196,-1.019,-1.0186,-1.0167,-1.0104,-1.0039,-0.9997,-0.9948,-0.9908,-0.9908,-0.9915,-0.9903,-0.9891,-0.9885,-0.9838,-0.9805,-0.9821,-0.9833,-0.9628,-0.9457,-0.9283,-0.919,-0.919,-0.919,-0.9177,-0.9039,-0.8818,-0.8604,-0.842,-0.8092,-0.7826,-0.7665,-0.7462,-0.7298,-0.7155,-0.6974,-0.677,-2.0108,-2.0117,-2.0173,-1.9694,-1.8834,-1.8033,-1.7198,-1.635,-1.5474,-1.5078,-1.5025,-1.5003,-1.4926,-1.4876,-1.4849,-1.4822,-1.4748,-1.4522,-1.4156,-1.3558,-1.2965,-1.2056,-1.1119,-1.0738,-1.033,-0.9875,-0.9791,-0.9791,-0.9791,-0.9791,-0.9791,-0.9798,-0.9798,-0.9805,-0.9779,-0.878,-0.8218,-0.8094,-0.7124,-0.6989,-0.7692,-0.7051,-0.7041,-0.7552,-0.6023,-0.5511,-0.6601,-0.5685,-0.5126,-0.5147,-0.5099,-0.5095,-0.5129,-0.5093,-0.5093,-0.5316,-0.7195,-0.8864,-0.8772,-0.8529,-0.9174,-0.9986,-1.0319,-1.0319,-1.0319,-1.0319,-1.0311,-1.0312,-1.0312,-1.0311,-1.031,-1.031,-1.0303,-1.0285,-1.0234,-1.0197,-1.0189,-1.0196,-1.0196,-1.0196,-1.0196,-1.017,-1.0119,-1.008,-1.0068,-1.0049,-0.9996,-0.9975,-0.9971,-0.9921,-0.9891,-0.9891,-0.9891,-0.991,-0.9935,-1.0466,-1.0961,-1.0457,-1.0005,-0.929,-0.9218,-0.9189,-0.9167,-0.906,-0.884,-0.8665,-0.8476,-0.8275,-0.8003,-0.7753,-0.756,-0.7453,-0.7376,-0.7203,-0.699,-2.0108,-2.0117,-2.0136,-1.9858,-1.9275,-1.8487,-1.7637,-1.6745,-1.5874,-1.5306,-1.4975,-1.4886,-1.4813,-1.4738,-1.4727,-1.4688,-1.4677,-1.4716,-1.4455,-1.3952,-1.3588,-1.2734,-1.1444,-1.0766,-1.033,-0.9894,-0.9791,-0.9791,-0.9791,-0.9791,-0.9791,-0.9791,-0.9791,-0.9791,-0.9727,-0.9018,-0.8604,-0.8483,-0.7746,-0.7731,-0.8253,-0.7814,-0.7778,-0.8209,-0.6834,-0.651,-0.7395,-0.7081,-0.6676,-0.603,-0.5482,-0.5624,-0.6715,-0.7048,-0.6991,-0.72,-0.798,-0.916,-1.0009,-0.9295,-0.9065,-1.009,-1.0314,-1.0314,-1.0314,-1.0314,-1.0319,-1.0312,-1.0312,-1.0312,-1.0312,-1.0312,-1.0312,-1.0285,-1.0274,-1.0219,-1.0208,-1.0196,-1.0196,-1.0196,-1.0196,-1.0174,-1.0147,-1.014,-1.0133,-1.0129,-1.0086,-1.0034,-1.001,-0.9957,-0.9923,-0.9894,-0.9891,-0.9938,-1.0019,-1.0927,-1.2186,-1.1668,-1.0949,-0.9942,-0.9275,-0.9208,-0.9168,-0.9009,-0.8806,-0.8721,-0.8567,-0.8387,-0.8154,-0.7919,-0.7657,-0.7612,-0.753,-0.7376,-0.7155,-2.0108,-2.0108,-2.0108,-2.0088,-1.9926,-1.9171,-1.8257,-1.7394,-1.6514,-1.562,-1.4954,-1.4794,-1.4726,-1.4624,-1.4611,-1.4609,-1.4591,-1.4611,-1.4585,-1.4365,-1.3921,-1.3096,-1.201,-1.0619,-0.9912,-0.981,-0.9784,-0.9791,-0.9794,-0.9791,-0.9791,-0.9791,-0.9791,-0.9791,-0.968,-0.9046,-0.8752,-0.8687,-0.7963,-0.8037,-0.8668,-0.8051,-0.7954,-0.869,-0.7993,-0.7627,-0.7978,-0.8918,-0.9005,-0.7607,-0.6138,-0.679,-0.9294,-1.0135,-0.9815,-0.972,-1.0103,-1.0062,-1.02,-1.007,-1.0116,-1.0245,-1.0314,-1.0314,-1.0314,-1.0315,-1.0317,-1.0312,-1.0312,-1.0312,-1.0312,-1.0312,-1.0312,-1.0293,-1.0285,-1.0253,-1.0205,-1.0196,-1.0196,-1.0196,-1.0196,-1.0196,-1.019,-1.0193,-1.0193,-1.018,-1.014,-1.0107,-1.0071,-1.0006,-0.9937,-0.9933,-0.9973,-1.0886,-1.1266,-1.2344,-1.3462,-1.3122,-1.2225,-1.1021,-0.9625,-0.9309,-0.9188,-0.9022,-0.8886,-0.8783,-0.8628,-0.845,-0.8181,-0.7862,-0.7739,-0.7753,-0.7672,-0.7521,-0.736,-2.0108,-2.0108,-2.0108,-2.0108,-1.9984,-1.9192,-1.8308,-1.7378,-1.6498,-1.5677,-1.4906,-1.4704,-1.4642,-1.4578,-1.4535,-1.4535,-1.4537,-1.4578,-1.4591,-1.4565,-1.4437,-1.3484,-1.2113,-1.0576,-0.978,-0.9743,-0.9761,-0.9796,-0.9798,-0.9794,-0.9791,-0.9791,-0.9791,-0.9791,-0.9727,-0.9557,-0.9497,-0.9474,-0.9289,-0.915,-0.9289,-0.9231,-0.9268,-0.9407,-0.9241,-0.9152,-0.9252,-0.9739,-0.9275,-0.7761,-0.725,-0.786,-0.9829,-1.011,-1.0121,-1.0128,-1.0131,-1.0128,-1.0151,-1.0198,-1.0243,-1.0303,-1.0304,-1.0314,-1.0314,-1.0314,-1.0316,-1.0318,-1.0318,-1.0319,-1.0319,-1.0319,-1.0312,-1.0292,-1.0267,-1.0222,-1.0212,-1.0196,-1.0196,-1.0196,-1.0196,-1.0196,-1.0196,-1.0196,-1.0196,-1.0193,-1.0179,-1.0164,-1.0113,-1.0107,-1.0063,-1.0111,-1.0411,-1.1784,-1.292,-1.3965,-1.456,-1.4448,-1.3596,-1.2382,-1.0797,-0.9461,-0.9306,-0.9136,-0.9033,-0.8936,-0.8708,-0.8488,-0.8154,-0.7884,-0.805,-0.8154,-0.7886,-0.7701,-0.7589,-2.0108,-2.0108,-2.0108,-2.0079,-1.9983,-1.9476,-1.8544,-1.7422,-1.6783,-1.582,-1.4901,-1.4611,-1.4554,-1.4552,-1.4513,-1.4492,-1.4492,-1.4554,-1.4565,-1.441,-1.3833,-1.3011,-1.1947,-1.055,-0.9737,-0.971,-0.9728,-0.9763,-0.9791,-0.978,-0.9759,-0.9759,-0.9759,-0.9759,-0.9759,-0.9759,-0.9777,-0.9772,-0.9772,-0.9754,-0.971,-0.9728,-0.9763,-0.9789,-0.9794,-0.9826,-0.986,-0.9955,-0.9537,-0.8837,-0.8697,-0.9127,-0.995,-1.0104,-1.0104,-1.0104,-1.0104,-1.0104,-1.0106,-1.0164,-1.0205,-1.0265,-1.0275,-1.0302,-1.0313,-1.0314,-1.0314,-1.0315,-1.0314,-1.0314,-1.0315,-1.0318,-1.0312,-1.0297,-1.0271,-1.0246,-1.0221,-1.0196,-1.0196,-1.0196,-1.0196,-1.0196,-1.0196,-1.0196,-1.0196,-1.0193,-1.019,-1.0179,-1.0153,-1.0229,-1.0741,-1.1363,-1.1858,-1.32,-1.3773,-1.453,-1.4785,-1.4757,-1.4452,-1.3331,-1.2126,-1.0333,-0.9652,-0.9493,-0.9296,-0.9185,-0.9195,-0.8944,-0.8348,-0.8251,-0.8453,-0.8921,-0.9011,-0.7842,-0.7738,-2.0108,-2.0117,-2.0088,-2.006,-1.9981,-1.9889,-1.8932,-1.7609,-1.7142,-1.6103,-1.4862,-1.4543,-1.4508,-1.4497,-1.4499,-1.4497,-1.4499,-1.4508,-1.4511,-1.4064,-1.3221,-1.2253,-1.204,-1.0479,-0.9786,-0.9704,-0.9702,-0.9728,-0.9765,-0.9721,-0.9686,-0.9688,-0.9688,-0.9688,-0.9697,-0.9695,-0.973,-0.9765,-0.973,-0.9721,-0.9704,-0.9704,-0.973,-0.9774,-0.978,-0.978,-0.9812,-0.9899,-0.9891,-1.0031,-1.01,-1.0008,-1.0104,-1.0104,-1.0104,-1.0104,-1.0104,-1.0104,-1.0108,-1.0154,-1.0183,-1.0195,-1.0242,-1.0283,-1.0292,-1.0314,-1.0314,-1.0314,-1.0314,-1.0627,-1.1311,-1.1072,-1.1269,-1.1435,-1.1147,-1.0903,-1.0695,-1.0459,-1.0217,-1.0198,-1.0208,-1.0205,-1.0192,-1.0199,-1.0196,-1.0196,-1.037,-1.085,-1.1329,-1.2007,-1.2919,-1.4057,-1.4497,-1.4864,-1.497,-1.4952,-1.4884,-1.4804,-1.4665,-1.4002,-1.3419,-1.197,-1.0668,-1.0153,-1.0875,-1.085,-1.0392,-0.9866,-0.9323,-0.9444,-1.0174,-1.0806,-1.1065,-0.8805,-0.7827,-2.0108,-2.0098,-2.004,-1.999,-1.9926,-1.9844,-1.9185,-1.8112,-1.7343,-1.6155,-1.4857,-1.454,-1.4515,-1.4497,-1.4497,-1.4497,-1.4497,-1.4497,-1.4499,-1.4274,-1.2849,-1.2197,-1.182,-1.0521,-0.9775,-0.9712,-0.9701,-0.9708,-0.9717,-0.9692,-0.966,-0.9631,-0.9612,-0.9611,-0.9621,-0.9663,-0.9703,-0.9717,-0.9708,-0.9701,-0.9684,-0.9682,-0.9692,-0.9728,-0.973,-0.9726,-0.9745,-0.9806,-0.9875,-0.9959,-1.0044,-1.0092,-1.0104,-1.0104,-1.0104,-1.0104,-1.0104,-1.0104,-1.0108,-1.0115,-1.0133,-1.0131,-1.019,-1.0259,-1.0283,-1.0295,-1.0305,-1.0314,-1.0363,-1.134,-1.3489,-1.4173,-1.397,-1.3844,-1.3933,-1.4023,-1.3799,-1.1923,-1.075,-1.0522,-1.054,-1.0318,-1.0336,-1.0573,-1.0521,-1.0286,-1.0728,-1.1518,-1.2539,-1.3564,-1.4351,-1.5284,-1.5279,-1.5265,-1.5208,-1.508,-1.4968,-1.4859,-1.4726,-1.4591,-1.4002,-1.3674,-1.2386,-1.2363,-1.3012,-1.2632,-1.1794,-1.2009,-1.1711,-1.1859,-1.1717,-1.1824,-1.1346,-0.9351,-0.8551,-2.0079,-2.0059,-1.9981,-1.9916,-1.9842,-1.9691,-1.9153,-1.8345,-1.7761,-1.6398,-1.494,-1.486,-1.4848,-1.4515,-1.4497,-1.4497,-1.4497,-1.4497,-1.4499,-1.4235,-1.3234,-1.2711,-1.2316,-1.1067,-1.0067,-0.9765,-0.9665,-0.9655,-0.9646,-0.9614,-0.9574,-0.9559,-0.9541,-0.9541,-0.9541,-0.9593,-0.9624,-0.9637,-0.9646,-0.9655,-0.9646,-0.9645,-0.9678,-0.9704,-0.9706,-0.9702,-0.9706,-0.9764,-0.9834,-0.99,-0.9965,-1.0053,-1.0105,-1.0104,-1.0104,-1.0104,-1.0104,-1.0104,-1.0104,-1.0104,-1.0108,-1.0104,-1.0161,-1.0203,-1.0243,-1.0264,-1.0302,-1.0313,-1.0588,-1.1662,-1.4894,-1.5364,-1.5412,-1.5412,-1.5412,-1.5412,-1.5083,-1.374,-1.2699,-1.269,-1.2895,-1.2844,-1.2658,-1.216,-1.2432,-1.2877,-1.0628,-1.137,-1.3707,-1.4603,-1.4767,-1.5284,-1.5284,-1.5275,-1.5235,-1.5152,-1.5045,-1.4928,-1.4804,-1.4726,-1.4461,-1.4327,-1.4138,-1.4112,-1.3904,-1.3815,-1.3237,-1.3615,-1.3388,-1.2837,-1.2433,-1.24,-1.1956,-1.079,-1.0383,-2.006,-1.9981,-1.9916,-1.9835,-1.9741,-1.9577,-1.9101,-1.8472,-1.8171,-1.7105,-1.5545,-1.572,-1.5252,-1.4625,-1.4497,-1.4497,-1.4497,-1.4497,-1.4488,-1.4341,-1.3561,-1.3176,-1.2745,-1.1525,-1.0402,-0.9791,-0.9629,-0.9592,-0.9549,-0.9508,-0.9456,-0.9448,-0.9448,-0.943,-0.9448,-0.9465,-0.9499,-0.9541,-0.9567,-0.96,-0.9607,-0.9614,-0.964,-0.9697,-0.9701,-0.9708,-0.9712,-0.9749,-0.9805,-0.985,-0.9869,-0.9949,-1.0039,-1.0094,-1.0104,-1.0104,-1.0104,-1.0104,-1.0104,-1.0104,-1.0104,-1.0104,-1.0147,-1.0177,-1.0185,-1.0232,-1.0272,-1.0633,-1.1095,-1.257,-1.5031,-1.5412,-1.5412,-1.5412,-1.5412,-1.5412,-1.5414,-1.5408,-1.5039,-1.5039,-1.4551,-1.4351,-1.4596,-1.4488,-1.4998,-1.4919,-1.2549,-1.1583,-1.3952,-1.5284,-1.5284,-1.5284,-1.5284,-1.5284,-1.5265,-1.5208,-1.511,-1.503,-1.4894,-1.4823,-1.4775,-1.4656,-1.4519,-1.4422,-1.427,-1.4136,-1.3927,-1.3693,-1.3445,-1.3173,-1.2985,-1.2773,-1.2503,-1.2216,-1.1968,-1.9982,-1.9919,-1.9849,-1.9741,-1.9619,-1.949,-1.932,-1.9092,-1.8423,-1.8307,-1.8197,-1.6775,-1.5515,-1.4708,-1.4497,-1.4497,-1.4497,-1.4497,-1.4497,-1.4378,-1.3725,-1.3346,-1.3032,-1.1831,-1.082,-1.0376,-0.9933,-0.9573,-0.9439,-0.9358,-0.9331,-0.9284,-0.9311,-0.9311,-0.9293,-0.9303,-0.9368,-0.9439,-0.9483,-0.9535,-0.9584,-0.9608,-0.9632,-0.9698,-0.9704,-0.9704,-0.9706,-0.9713,-0.9734,-0.974,-0.9738,-0.9803,-0.9912,-1.0011,-1.006,-1.0096,-1.0096,-1.01,-1.0104,-1.0104,-1.0104,-1.0098,-1.0115,-1.0119,-1.0135,-1.023,-1.0448,-1.1339,-1.287,-1.4716,-1.5265,-1.5412,-1.5412,-1.5412,-1.5412,-1.5412,-1.5412,-1.5414,-1.5408,-1.541,-1.541,-1.541,-1.5395,-1.5391,-1.5377,-1.5363,-1.4294,-1.3355,-1.4565,-1.5305,-1.5284,-1.5284,-1.5284,-1.5284,-1.5279,-1.5234,-1.5162,-1.5121,-1.5023,-1.4921,-1.4868,-1.4813,-1.4717,-1.4603,-1.4467,-1.4315,-1.4064,-1.3803,-1.3502,-1.3243,-1.3129,-1.303,-1.2819,-1.255,-1.229,-1.9691,-1.9682,-1.9668,-1.9597,-1.9499,-1.9377,-1.9351,-1.9289,-1.8926,-1.8935,-1.8757,-1.7605,-1.5991,-1.4864,-1.4497,-1.4497,-1.4497,-1.4497,-1.4497,-1.4357,-1.408,-1.3833,-1.3659,-1.2401,-1.1947,-1.1433,-1.0589,-0.9704,-0.9393,-0.9284,-0.9236,-0.9233,-0.9231,-0.9222,-0.9224,-0.9237,-0.9275,-0.9357,-0.9412,-0.9466,-0.9552,-0.9601,-0.9674,-0.9691,-0.9707,-0.9707,-0.9707,-0.9707,-0.9704,-0.9706,-0.9699,-0.9731,-0.979,-0.9863,-0.9938,-1.0025,-1.0077,-1.0097,-1.01,-1.0104,-1.0104,-1.0104,-1.0104,-1.0104,-1.0119,-1.0267,-1.1047,-1.2776,-1.3722,-1.5358,-1.5387,-1.5407,-1.5412,-1.5412,-1.5412,-1.5412,-1.5412,-1.5412,-1.5415,-1.5408,-1.5408,-1.5408,-1.5408,-1.541,-1.5407,-1.5414,-1.541,-1.5387,-1.536,-1.5332,-1.5306,-1.5312,-1.5316,-1.5316,-1.5302,-1.5275,-1.523,-1.5188,-1.514,-1.5047,-1.4955,-1.4894,-1.4832,-1.4747,-1.4603,-1.4488,-1.4268,-1.4023,-1.3676,-1.3337,-1.3208,-1.3102,-1.3056,-1.2891,-1.2628,-1.941,-1.9485,-1.9494,-1.944,-1.9366,-1.9323,-1.9301,-1.9276,-1.9264,-1.9259,-1.9124,-1.7963,-1.634,-1.4928,-1.4497,-1.4497,-1.4497,-1.4497,-1.4497,-1.4485,-1.4425,-1.4365,-1.4071,-1.3466,-1.2727,-1.2253,-1.1239,-1.0164,-0.9611,-0.9293,-0.9194,-0.9181,-0.9178,-0.917,-0.9174,-0.9167,-0.9217,-0.9264,-0.9328,-0.9402,-0.9501,-0.9602,-0.97,-0.9707,-0.9707,-0.9707,-0.9707,-0.9707,-0.9706,-0.9703,-0.9703,-0.9703,-0.9706,-0.9712,-0.9777,-0.9913,-1.0013,-1.0068,-1.0099,-1.0101,-1.0097,-1.0097,-1.0101,-1.0413,-1.131,-1.1946,-1.2475,-1.4665,-1.5284,-1.5306,-1.535,-1.5381,-1.541,-1.5412,-1.5412,-1.5412,-1.5412,-1.5412,-1.5412,-1.5414,-1.5412,-1.5413,-1.5415,-1.5415,-1.541,-1.541,-1.5409,-1.5416,-1.5381,-1.5358,-1.5338,-1.534,-1.534,-1.534,-1.5336,-1.5319,-1.5278,-1.525,-1.5211,-1.5146,-1.5052,-1.4962,-1.4929,-1.4894,-1.4832,-1.4696,-1.4469,-1.4242,-1.3966,-1.3669,-1.3354,-1.3147,-1.3092,-1.3038,-1.2856,-1.9353,-1.9411,-1.9396,-1.936,-1.9307,-1.9316,-1.9269,-1.9226,-1.9266,-1.9286,-1.9188,-1.7683,-1.6092,-1.4809,-1.4497,-1.4497,-1.4497,-1.4497,-1.4497,-1.4497,-1.445,-1.4359,-1.412,-1.3304,-1.3006,-1.2695,-1.1781,-1.0888,-1.0224,-0.96,-0.9147,-0.9137,-0.9139,-0.9128,-0.9113,-0.9123,-0.913,-0.9151,-0.9207,-0.9306,-0.9412,-0.9534,-0.9634,-0.9683,-0.9691,-0.9691,-0.9689,-0.9698,-0.9706,-0.9706,-0.9706,-0.9698,-0.9706,-0.9706,-0.9706,-0.977,-0.9856,-0.9991,-1.0111,-1.0087,-1.01,-1.0177,-1.0383,-1.1758,-1.3108,-1.4008,-1.4342,-1.4908,-1.5214,-1.5255,-1.5319,-1.5352,-1.5398,-1.54,-1.5397,-1.5408,-1.541,-1.5412,-1.5412,-1.5412,-1.5412,-1.5412,-1.5413,-1.5413,-1.5414,-1.5416,-1.5409,-1.541,-1.5408,-1.5379,-1.5363,-1.5375,-1.5373,-1.5373,-1.5357,-1.5339,-1.5309,-1.5299,-1.5273,-1.524,-1.5164,-1.508,-1.5076,-1.5047,-1.4987,-1.4896,-1.4686,-1.4469,-1.4255,-1.3947,-1.3559,-1.3312,-1.3128,-1.3066,-1.3003,-1.9209,-1.9235,-1.9239,-1.9223,-1.9191,-1.9182,-1.9175,-1.9159,-1.9166,-1.9207,-1.8953,-1.7591,-1.601,-1.4726,-1.4494,-1.4494,-1.4497,-1.4497,-1.4497,-1.4485,-1.4408,-1.4313,-1.4096,-1.373,-1.3433,-1.3,-1.2468,-1.197,-1.1196,-1.0299,-0.9573,-0.9187,-0.9126,-0.9109,-0.9256,-0.9126,-0.91,-0.912,-0.9139,-0.9212,-0.9347,-0.9475,-0.9578,-0.9642,-0.9632,-0.9631,-0.9655,-0.968,-0.9698,-0.9707,-0.9707,-0.9707,-0.9707,-0.9873,-1.0304,-1.2481,-1.253,-1.179,-1.0356,-1.0165,-1.0268,-1.0818,-1.1703,-1.3706,-1.4966,-1.5195,-1.5195,-1.5195,-1.5195,-1.523,-1.5283,-1.5313,-1.534,-1.5358,-1.5351,-1.5372,-1.5389,-1.541,-1.5412,-1.5412,-1.5412,-1.5412,-1.5412,-1.5412,-1.5412,-1.5414,-1.5416,-1.5409,-1.541,-1.54,-1.5399,-1.54,-1.5399,-1.5399,-1.5383,-1.5365,-1.5325,-1.53,-1.5293,-1.5263,-1.5255,-1.5219,-1.5186,-1.5177,-1.5137,-1.5015,-1.4868,-1.4655,-1.4429,-1.4083,-1.3731,-1.347,-1.3225,-1.311,-1.3003,-1.9113,-1.9113,-1.9101,-1.9099,-1.9108,-1.9099,-1.9108,-1.9108,-1.9115,-1.8979,-1.834,-1.7004,-1.5508,-1.4711,-1.4471,-1.4471,-1.4464,-1.4492,-1.448,-1.4459,-1.4381,-1.4246,-1.4074,-1.3945,-1.3792,-1.3605,-1.3052,-1.2586,-1.2103,-1.1412,-1.0497,-0.9705,-0.9913,-0.9809,-0.9731,-0.9818,-0.9878,-0.9852,-0.9351,-0.931,-0.9525,-0.9454,-0.9493,-0.9527,-0.9559,-0.9582,-0.9633,-1.004,-1.0157,-0.9707,-0.9707,-0.9707,-0.9717,-1.0838,-1.2031,-1.3701,-1.4026,-1.3341,-1.2079,-1.1554,-1.1257,-1.2089,-1.3064,-1.4769,-1.5028,-1.5187,-1.5195,-1.5195,-1.5195,-1.5233,-1.526,-1.5259,-1.5272,-1.5276,-1.5276,-1.5316,-1.5357,-1.5376,-1.54,-1.5412,-1.5412,-1.5412,-1.5412,-1.5412,-1.5412,-1.5412,-1.5414,-1.5415,-1.5416,-1.5416,-1.5417,-1.5408,-1.5408,-1.541,-1.54,-1.5376,-1.5344,-1.5315,-1.5297,-1.5289,-1.5277,-1.5274,-1.526,-1.525,-1.5244,-1.513,-1.497,-1.4785,-1.4585,-1.4228,-1.3894,-1.3583,-1.3337,-1.3208,-1.3021,-1.9113,-1.9113,-1.9101,-1.911,-1.9104,-1.9108,-1.9101,-1.9104,-1.9108,-1.8538,-1.7497,-1.5646,-1.4687,-1.4444,-1.4396,-1.4405,-1.4417,-1.4405,-1.4392,-1.4337,-1.4255,-1.4132,-1.4018,-1.3912,-1.3802,-1.3638,-1.338,-1.3044,-1.2681,-1.2465,-1.1806,-1.133,-1.0959,-1.1131,-1.1024,-1.0744,-1.0825,-1.0563,-0.9798,-0.9597,-0.9845,-0.9815,-0.951,-0.9564,-0.9556,-0.9553,-0.9656,-1.0509,-1.07,-0.9948,-1.0038,-0.9763,-1.0112,-1.2113,-1.3774,-1.424,-1.4497,-1.4053,-1.3555,-1.3588,-1.429,-1.4663,-1.4887,-1.5071,-1.5119,-1.5175,-1.5199,-1.5195,-1.5195,-1.5195,-1.5207,-1.5197,-1.5215,-1.5226,-1.5241,-1.5278,-1.5316,-1.5358,-1.5374,-1.5401,-1.54,-1.5392,-1.5381,-1.5379,-1.54,-1.5401,-1.5412,-1.5415,-1.5414,-1.5414,-1.5414,-1.5414,-1.5414,-1.5417,-1.541,-1.5387,-1.5363,-1.5324,-1.5294,-1.529,-1.5289,-1.5294,-1.5292,-1.5284,-1.5255,-1.5171,-1.5085,-1.4929,-1.4698,-1.4365,-1.405,-1.3791,-1.3544,-1.3379,-1.3138,-1.9113,-1.9113,-1.9111,-1.9095,-1.9113,-1.9111,-1.9095,-1.9113,-1.9076,-1.8295,-1.6905,-1.5202,-1.434,-1.4331,-1.4301,-1.4288,-1.4284,-1.4219,-1.4198,-1.4154,-1.4091,-1.4,-1.3927,-1.3871,-1.3813,-1.3657,-1.3598,-1.3536,-1.3242,-1.3113,-1.3078,-1.2638,-1.1921,-1.1477,-1.1352,-1.1321,-1.1269,-1.1054,-1.0191,-0.9743,-1.0717,-1.0793,-1.0622,-1.074,-1.04,-1.0615,-1.0918,-1.1086,-1.0949,-1.0839,-1.1003,-1.0691,-1.0489,-1.3068,-1.4268,-1.4497,-1.4497,-1.4497,-1.452,-1.4643,-1.4804,-1.4867,-1.4891,-1.4944,-1.5028,-1.5127,-1.5183,-1.5195,-1.5189,-1.5183,-1.5205,-1.5195,-1.5201,-1.5195,-1.5212,-1.524,-1.5269,-1.5313,-1.5331,-1.5343,-1.5343,-1.5338,-1.5331,-1.5324,-1.5356,-1.5388,-1.5401,-1.5412,-1.5412,-1.5412,-1.5412,-1.5412,-1.5412,-1.5412,-1.5408,-1.54,-1.5391,-1.5338,-1.5297,-1.5303,-1.5307,-1.5287,-1.5288,-1.5288,-1.5284,-1.5235,-1.5158,-1.5062,-1.4831,-1.4499,-1.4275,-1.4073,-1.3821,-1.3575,-1.3346,-1.9113,-1.9113,-1.9113,-1.9113,-1.9113,-1.9113,-1.9105,-1.9061,-1.9035,-1.8172,-1.6612,-1.5216,-1.4409,-1.4292,-1.4176,-1.4159,-1.4128,-1.4078,-1.4014,-1.3957,-1.3923,-1.3865,-1.3824,-1.3772,-1.371,-1.3618,-1.3608,-1.357,-1.3527,-1.3596,-1.3501,-1.3165,-1.2664,-1.2272,-1.2072,-1.1754,-1.168,-1.1641,-1.1293,-1.0666,-1.1766,-1.1961,-1.1616,-1.1579,-1.1124,-1.1194,-1.1627,-1.192,-1.2021,-1.2048,-1.2155,-1.2158,-1.2361,-1.2967,-1.424,-1.4497,-1.4497,-1.4497,-1.4531,-1.4585,-1.4672,-1.4707,-1.4717,-1.4785,-1.4919,-1.5069,-1.5146,-1.5159,-1.5159,-1.5165,-1.5181,-1.5187,-1.5199,-1.5195,-1.5195,-1.5224,-1.5235,-1.5259,-1.5273,-1.5277,-1.5277,-1.5272,-1.5282,-1.5293,-1.5421,-1.5431,-1.5401,-1.5412,-1.5412,-1.5412,-1.5412,-1.5412,-1.5412,-1.5412,-1.5414,-1.5556,-1.5651,-1.5376,-1.5336,-1.5331,-1.5329,-1.5493,-1.5443,-1.5284,-1.5291,-1.5287,-1.5241,-1.5157,-1.4929,-1.4648,-1.446,-1.4281,-1.4141,-1.39,-1.366,-1.9113,-1.9113,-1.9113,-1.9113,-1.9087,-1.9113,-1.907,-1.8966,-1.8823,-1.8109,-1.6833,-1.566,-1.467,-1.4202,-1.4,-1.406,-1.4132,-1.4047,-1.4057,-1.4149,-1.4192,-1.3908,-1.3797,-1.3793,-1.371,-1.3635,-1.3592,-1.3582,-1.3598,-1.3591,-1.3606,-1.3606,-1.3289,-1.3218,-1.3484,-1.351,-1.3518,-1.3477,-1.3231,-1.285,-1.2666,-1.2975,-1.2595,-1.2073,-1.1799,-1.1907,-1.221,-1.2895,-1.2982,-1.2831,-1.3472,-1.3687,-1.3928,-1.402,-1.4497,-1.4497,-1.4497,-1.4497,-1.4497,-1.4517,-1.4531,-1.4535,-1.4589,-1.4644,-1.4804,-1.496,-1.5085,-1.5085,-1.5097,-1.5116,-1.5129,-1.5181,-1.5203,-1.5195,-1.5195,-1.5201,-1.5208,-1.5219,-1.5235,-1.524,-1.5214,-1.5212,-1.5231,-1.5274,-1.5446,-1.5491,-1.5437,-1.5412,-1.5421,-1.5412,-1.5412,-1.5412,-1.548,-1.6397,-1.6467,-1.6053,-1.5879,-1.56,-1.5919,-1.6525,-1.6571,-1.6711,-1.64,-1.5747,-1.5286,-1.5288,-1.5294,-1.5277,-1.505,-1.483,-1.4623,-1.445,-1.4344,-1.4198,-1.3963,-1.9113,-1.9113,-1.9113,-1.907,-1.9053,-1.907,-1.9053,-1.8806,-1.8253,-1.7959,-1.7636,-1.6054,-1.457,-1.399,-1.39,-1.4071,-1.4393,-1.4475,-1.4546,-1.501,-1.4924,-1.5052,-1.4803,-1.4152,-1.3845,-1.3956,-1.3853,-1.3535,-1.3536,-1.3544,-1.3544,-1.3544,-1.3551,-1.355,-1.358,-1.3613,-1.3596,-1.3596,-1.3536,-1.3449,-1.3285,-1.3441,-1.3361,-1.2826,-1.2809,-1.2826,-1.2906,-1.3628,-1.3549,-1.3432,-1.4091,-1.4295,-1.4441,-1.4476,-1.4497,-1.4497,-1.4497,-1.4497,-1.4497,-1.4497,-1.4497,-1.4497,-1.4508,-1.4576,-1.4744,-1.4822,-1.4929,-1.5161,-1.5424,-1.5401,-1.5116,-1.5236,-1.5276,-1.5214,-1.5195,-1.5195,-1.5207,-1.5201,-1.5207,-1.5212,-1.5195,-1.5455,-1.5565,-1.6316,-1.6584,-1.657,-1.6622,-1.5753,-1.5486,-1.544,-1.5412,-1.5412,-1.5695,-1.7032,-1.7687,-1.7662,-1.7897,-1.8085,-1.8534,-1.9177,-1.9003,-1.8242,-1.8387,-1.8261,-1.6697,-1.5287,-1.5303,-1.528,-1.5195,-1.5028,-1.4822,-1.4622,-1.4478,-1.4396,-1.4275,-1.9113,-1.9113,-1.9113,-1.9053,-1.8984,-1.9018,-1.8922,-1.8654,-1.8036,-1.8077,-1.8049,-1.65,-1.4856,-1.4013,-1.3925,-1.4166,-1.4658,-1.4649,-1.5041,-1.5614,-1.5648,-1.5582,-1.5241,-1.4807,-1.4459,-1.4373,-1.3888,-1.3471,-1.3512,-1.3487,-1.3504,-1.3504,-1.3504,-1.3528,-1.3551,-1.3559,-1.3559,-1.3575,-1.3549,-1.3589,-1.3546,-1.3606,-1.3612,-1.3534,-1.3558,-1.3582,-1.3674,-1.37,-1.3676,-1.3824,-1.3977,-1.4159,-1.4313,-1.4417,-1.445,-1.4485,-1.4497,-1.4497,-1.4497,-1.4497,-1.4497,-1.4497,-1.4497,-1.4543,-1.4628,-1.4674,-1.4776,-1.5101,-1.5892,-1.6588,-1.6726,-1.6692,-1.6615,-1.6651,-1.6682,-1.6749,-1.5408,-1.5428,-1.5195,-1.5195,-1.5551,-1.5782,-1.659,-1.7231,-1.7978,-1.7935,-1.7864,-1.6827,-1.5865,-1.5859,-1.5904,-1.5919,-1.6144,-1.7315,-1.869,-1.9687,-2.001,-2.0507,-2.058,-2.0555,-2.0408,-1.9549,-2.0163,-2.0174,-1.765,-1.5762,-1.5423,-1.5288,-1.5222,-1.5142,-1.5008,-1.4822,-1.4635,-1.4524,-1.4443,-1.9113,-1.9096,-1.9105,-1.9009,-1.8886,-1.8852,-1.8706,-1.8476,-1.8333,-1.8237,-1.8078,-1.7234,-1.5747,-1.4092,-1.4418,-1.4786,-1.4913,-1.4816,-1.5342,-1.5773,-1.6101,-1.5999,-1.5982,-1.5795,-1.5431,-1.4669,-1.4143,-1.3998,-1.365,-1.3922,-1.3888,-1.3752,-1.3939,-1.3956,-1.3922,-1.3939,-1.3803,-1.3656,-1.3551,-1.3576,-1.3568,-1.3591,-1.3598,-1.3622,-1.3622,-1.3613,-1.3653,-1.3629,-1.3636,-1.3698,-1.3743,-1.3911,-1.4074,-1.4246,-1.4359,-1.448,-1.4543,-1.5023,-1.4497,-1.4497,-1.4497,-1.4561,-1.5019,-1.4747,-1.4511,-1.4565,-1.4664,-1.578,-1.7018,-1.8555,-1.9593,-1.9469,-1.9345,-1.9364,-1.9383,-1.8219,-1.6258,-1.5605,-1.5293,-1.5426,-1.5949,-1.6737,-1.8648,-1.9499,-1.8984,-1.9162,-1.8972,-1.8356,-1.7478,-1.6933,-1.6948,-1.6876,-1.7188,-1.7705,-1.8983,-2.0357,-2.0603,-2.0603,-2.0554,-2.0523,-2.0529,-2.0526,-2.0551,-1.9765,-1.7603,-1.621,-1.5641,-1.5367,-1.5288,-1.5269,-1.5661,-1.5405,-1.5348,-1.4729,-1.4537,-1.9044,-1.8966,-1.8975,-1.8843,-1.8669,-1.8485,-1.8328,-1.8199,-1.8121,-1.8018,-1.7858,-1.7101,-1.6214,-1.5522,-1.5425,-1.5662,-1.59,-1.6168,-1.6626,-1.6877,-1.6931,-1.7092,-1.7117,-1.6991,-1.6648,-1.6013,-1.5369,-1.492,-1.4939,-1.4931,-1.4924,-1.5032,-1.4796,-1.4829,-1.4863,-1.4965,-1.4347,-1.382,-1.3665,-1.364,-1.3682,-1.3756,-1.3764,-1.3798,-1.3649,-1.3667,-1.3779,-1.377,-1.3793,-1.3782,-1.3695,-1.3735,-1.3801,-1.4037,-1.4265,-1.4782,-1.5963,-1.7047,-1.505,-1.4533,-1.4717,-1.5423,-1.6481,-1.616,-1.5414,-1.4823,-1.4945,-1.6414,-1.792,-1.9315,-1.9849,-1.9849,-1.9858,-1.9858,-1.987,-1.9089,-1.7331,-1.6676,-1.638,-1.6417,-1.692,-1.816,-2.0121,-2.0187,-1.9742,-2.011,-2.004,-1.9441,-1.8994,-1.8416,-1.8182,-1.8113,-1.8377,-1.8929,-1.9417,-2.0597,-2.0601,-2.059,-2.0533,-2.0473,-2.0423,-2.0444,-2.0529,-1.9914,-1.8655,-1.7089,-1.5643,-1.5449,-1.5316,-1.64,-1.6842,-1.6404,-1.5984,-1.5725,-1.5369,-1.9001,-1.8869,-1.8834,-1.8651,-1.8348,-1.8125,-1.8001,-1.7945,-1.7957,-1.79,-1.7743,-1.7346,-1.6821,-1.6255,-1.6114,-1.6258,-1.6589,-1.658,-1.6961,-1.7515,-1.7789,-1.7696,-1.7763,-1.7729,-1.7236,-1.6796,-1.6492,-1.612,-1.5874,-1.5621,-1.5544,-1.5511,-1.5595,-1.5612,-1.5519,-1.5403,-1.5117,-1.4423,-1.399,-1.3939,-1.4119,-1.4341,-1.4383,-1.4247,-1.4014,-1.3902,-1.4332,-1.4375,-1.4444,-1.4288,-1.4142,-1.362,-1.4146,-1.4901,-1.6002,-1.667,-1.7387,-1.7857,-1.6873,-1.6625,-1.6468,-1.6793,-1.805,-1.7913,-1.7445,-1.6876,-1.6861,-1.7422,-1.8618,-1.9601,-1.9601,-1.9592,-1.9601,-1.9614,-1.9655,-1.9694,-1.8896,-1.8106,-1.7884,-1.78,-1.8513,-1.96,-2.0302,-2.0294,-2.0302,-2.0302,-2.0302,-2.0079,-1.9863,-1.9699,-1.9575,-1.9581,-1.9838,-2.0221,-2.0554,-2.0542,-2.0539,-2.0516,-2.0477,-2.0416,-2.0342,-2.0376,-2.0468,-2.0519,-2.0357,-1.8502,-1.642,-1.5628,-1.5509,-1.671,-1.8005,-1.8258,-1.8058,-1.7823,-1.742,-1.894,-1.8742,-1.8669,-1.8388,-1.7996,-1.7864,-1.778,-1.7718,-1.7816,-1.7847,-1.778,-1.7772,-1.7239,-1.6716,-1.6703,-1.6771,-1.6948,-1.6995,-1.7227,-1.778,-1.7789,-1.7789,-1.7789,-1.7746,-1.7481,-1.7261,-1.7117,-1.6965,-1.6153,-1.6043,-1.6145,-1.5773,-1.5933,-1.6086,-1.6153,-1.6128,-1.6004,-1.5801,-1.5073,-1.4778,-1.5338,-1.5626,-1.5719,-1.5379,-1.4803,-1.4341,-1.5323,-1.5729,-1.5795,-1.5297,-1.4726,-1.3969,-1.5228,-1.6483,-1.7859,-1.8277,-1.8313,-1.8359,-1.831,-1.8312,-1.8645,-1.884,-1.9268,-1.9023,-1.8519,-1.828,-1.8198,-1.8194,-1.9234,-1.9433,-1.9433,-1.9423,-1.9433,-1.9433,-1.9462,-1.9564,-1.9348,-1.894,-1.904,-1.9005,-1.9249,-2.0226,-2.0277,-2.0277,-2.02,-2.0244,-2.026,-2.0251,-2.0308,-2.0359,-2.0411,-2.0468,-2.0459,-2.0449,-2.0413,-2.0403,-2.0433,-2.0427,-2.0398,-2.0373,-2.0323,-2.0352,-2.0411,-2.0442,-2.0376,-1.9042,-1.7419,-1.704,-1.6956,-1.7347,-1.8634,-1.9915,-2.0033,-1.9467,-1.909,-1.8623,-1.8463,-1.8266,-1.804,-1.785,-1.7712,-1.7673,-1.7695,-1.7673,-1.7704,-1.7718,-1.7701,-1.76,-1.7336,-1.7319,-1.74,-1.7464,-1.7388,-1.7625,-1.7738,-1.7789,-1.7789,-1.7789,-1.778,-1.765,-1.7667,-1.765,-1.7586,-1.7147,-1.7117,-1.7227,-1.7197,-1.7121,-1.705,-1.7058,-1.7058,-1.7024,-1.694,-1.6669,-1.5891,-1.5824,-1.6597,-1.691,-1.6132,-1.5321,-1.534,-1.6135,-1.6737,-1.6379,-1.5814,-1.5492,-1.5788,-1.6863,-1.765,-1.7967,-1.8035,-1.8138,-1.8357,-1.865,-1.8966,-1.9157,-1.9252,-1.9274,-1.928,-1.925,-1.9295,-1.928,-1.928,-1.9295,-1.9295,-1.9295,-1.9295,-1.9295,-1.9295,-1.9295,-1.9466,-1.9634,-1.9801,-1.9996,-2.0049,-2.0089,-2.0163,-2.0216,-2.019,-2.0146,-2.0127,-2.0136,-2.0163,-2.0251,-2.0308,-2.0325,-2.0372,-2.0349,-2.0325,-2.0279,-2.0254,-2.0277,-2.0316,-2.0304,-2.0291,-2.0292,-2.0323,-2.0359,-2.0347,-2.004,-1.9172,-1.9002,-1.9534,-1.945,-1.8973,-1.9062,-2.0253,-2.0501,-2.0079,-1.9986,-1.8249,-1.8187,-1.7971,-1.7805,-1.766,-1.7607,-1.7582,-1.7589,-1.7574,-1.7566,-1.7612,-1.765,-1.7673,-1.7687,-1.7695,-1.7726,-1.7789,-1.778,-1.7755,-1.7772,-1.7789,-1.7789,-1.7789,-1.7789,-1.7763,-1.778,-1.778,-1.7772,-1.7789,-1.7755,-1.7712,-1.7789,-1.7789,-1.7789,-1.7789,-1.7789,-1.7789,-1.7746,-1.7789,-1.7282,-1.65,-1.7177,-1.7532,-1.6728,-1.6601,-1.6596,-1.6813,-1.7439,-1.719,-1.6838,-1.6681,-1.6821,-1.7444,-1.7762,-1.7816,-1.7847,-1.7922,-1.8031,-1.8385,-1.8678,-1.8957,-1.9016,-1.9058,-1.9008,-1.9034,-1.9034,-1.9173,-1.918,-1.928,-1.9295,-1.9295,-1.9295,-1.9295,-1.9295,-1.9305,-1.9392,-1.946,-1.9541,-1.963,-1.9634,-1.9783,-2.002,-1.999,-1.9778,-1.9747,-1.9732,-1.9783,-2.004,-2.0135,-2.0226,-2.0252,-2.027,-2.0252,-2.0226,-2.0189,-2.0145,-2.0117,-2.0155,-2.0173,-2.0234,-2.0251,-2.0277,-2.0302,-2.0302,-2.0325,-2.0204,-2.0283,-2.0498,-2.0538,-1.9928,-2.0059,-2.0533,-2.0555,-2.0545,-2.0404,-1.7842,-1.7931,-1.7749,-1.7597,-1.7498,-1.7498,-1.7482,-1.7504,-1.748,-1.7504,-1.7512,-1.7582,-1.7612,-1.765,-1.7673,-1.7726,-1.7758,-1.7749,-1.7772,-1.7789,-1.7789,-1.7789,-1.7789,-1.7789,-1.7789,-1.7789,-1.7789,-1.7789,-1.7789,-1.7789,-1.7789,-1.7789,-1.7789,-1.7789,-1.7789,-1.7789,-1.7789,-1.7789,-1.7789,-1.7789,-1.7738,-1.7789,-1.7718,-1.7721,-1.7789,-1.7789,-1.7803,-1.7803,-1.7803,-1.7726,-1.7566,-1.7633,-1.7701,-1.7789,-1.7789,-1.7811,-1.7811,-1.7931,-1.8147,-1.8357,-1.8526,-1.8631,-1.8667,-1.8686,-1.8686,-1.8743,-1.8878,-1.9016,-1.9097,-1.9243,-1.9243,-1.9295,-1.9295,-1.9295,-1.9305,-1.9314,-1.9329,-1.9344,-1.9344,-1.9335,-1.9564,-1.9835,-1.9757,-1.9532,-1.9434,-1.9409,-1.9536,-1.9781,-1.9989,-2.0088,-2.0146,-2.0164,-2.0174,-2.0146,-2.0108,-2.0018,-1.9973,-1.9879,-1.9896,-2.0069,-2.0216,-2.0251,-2.0285,-2.0302,-2.0308,-2.0337,-2.0366,-2.0416,-2.0458,-2.0476,-2.0464,-2.0478,-2.0555,-2.0546,-2.0562,-1.7637,-1.7749,-1.7589,-1.7521,-1.7498,-1.7498,-1.7482,-1.748,-1.7482,-1.7482,-1.7489,-1.7514,-1.7529,-1.7551,-1.7527,-1.7589,-1.7718,-1.771,-1.7749,-1.7789,-1.7789,-1.7789,-1.7789,-1.7789,-1.7789,-1.7789,-1.7789,-1.7789,-1.7789,-1.7789,-1.7789,-1.7789,-1.7789,-1.7789,-1.7789,-1.7789,-1.7789,-1.7789,-1.7789,-1.7789,-1.7789,-1.7789,-1.7789,-1.7789,-1.7789,-1.7789,-1.7789,-1.7789,-1.7789,-1.7789,-1.7789,-1.7789,-1.7789,-1.7789,-1.7789,-1.7789,-1.7789,-1.7833,-1.7988,-1.8095,-1.8213,-1.8121,-1.8142,-1.8121,-1.8121,-1.8121,-1.8281,-1.8487,-1.8679,-1.9035,-1.9119,-1.9243,-1.928,-1.9295,-1.9305,-1.9305,-1.9295,-1.9305,-1.9295,-1.9359,-1.9471,-1.9649,-1.9735,-1.9523,-1.9346,-1.935,-1.9451,-1.9679,-1.9775,-1.9898,-2.0005,-2.0007,-2.0018,-2.0098,-2.0079,-1.9909,-1.9801,-1.9684,-1.9679,-1.9926,-2.0117,-2.0243,-2.0269,-2.0251,-2.0277,-2.03,-2.0337,-2.0366,-2.0356,-2.0372,-2.0343,-2.0353,-2.0466,-2.0543,-2.0556]},{"header":{"parameterUnit":"m.s-1","parameterCategory":1,"la1":31.0,"la2":29.5877,"lo1":-88.7671,"lo2":-86.6584,"dy":0.0162,"dx":0.0185,"nx":115,"ny":88,"refTime":"2026-05-16T00:00:00:Z","depth":0,"parameterNumber":3,"parameterNumberName":"V-component_of_WINDS"},"data":[0.0,0.0,0.0,0.0,0.0,0.0,0.0,0.0,0.0,0.0,0.0,0.0,0.0,0.0,0.0,0.0,0.0,0.0,0.0,0.0,0.0,0.0,0.0,0.0,0.0,0.0,0.0,0.0,0.0,0.0,0.0,0.0,0.0,0.0,0.0,0.0,0.0,0.0,0.0,0.0,0.0,0.0,0.0,0.0,0.0,0.0,0.0,0.0,0.0,0.0,0.0,0.0,0.0,0.0,0.0,0.0,0.0,0.0,0.0,0.0,0.0,0.0,0.0,0.0,0.0,0.0,0.0,0.0,0.0,0.0,0.0,0.0,0.0,0.0,0.0,0.0,0.0,0.0,0.0,0.0,0.0,0.0,0.0,0.0,0.0,0.0,0.0,0.0,0.0,0.0,0.0,0.0,0.0,0.0,0.0,0.0,0.0,0.0,0.0,0.0,0.0,0.0,0.0,0.0,0.0,0.0,0.0,0.0,0.0,0.0,0.0,0.0,0.0,0.0,0.0,0.0,0.0,0.0,0.0,0.0,0.0,0.0,0.0,0.0,0.0,0.0,0.0,0.0,0.0,0.0,0.0,0.0,0.0,0.0,0.0,0.0,0.0,0.0,0.0,0.0,0.0,0.0,0.0,0.0,0.0,0.0,0.0,0.0,0.0,0.0,0.0,0.0,0.0,0.0,0.0,0.0,0.0,0.0,0.0,0.0,0.0,0.0,0.0,0.0,0.0,0.0,0.0,0.0,0.0,0.0,0.0,0.0,0.0,0.0,0.0,0.0,0.0,0.0,0.0,0.0,0.0,0.0,0.0,0.0,0.0,0.0,0.0,0.0,0.0,0.0,0.0,0.0,0.0,0.0,0.0,0.0,0.0,0.0,0.0,0.0,0.0,0.0,0.0,0.0,0.0,0.0,0.0,0.0,0.0,0.0,0.0,0.0,0.0,0.0,0.0,0.0,0.0,0.0,0.0,0.0,0.0,0.0,0.0,0.0,0.0,0.0,0.0,0.0,0.0,0.0,0.0,0.0,0.0,0.0,0.0,0.0,0.0,0.0,0.0,0.0,0.0,0.0,0.0,0.0,0.0,0.0,0.0,0.0,0.0,0.0,0.0,0.0,0.0,0.0,0.0,0.0,0.0,0.0,0.0,0.0,0.0,0.0,0.0,0.0,0.0,0.0,0.0,0.0,0.0,0.0,0.0,0.0,0.0,0.0,0.0,0.0,0.0,0.0,0.0,0.0,0.0,0.0,0.0,0.0,0.0,0.0,0.0,0.0,0.0,0.0,0.0,0.0,0.0,0.0,0.0,0.0,0.0,0.0,0.0,0.0,0.0,0.0,0.0,0.0,0.0,0.0,0.0,0.0,0.0,0.0,0.0,0.0,0.0,0.0,0.0,0.0,0.0,0.0,0.0,0.0,0.0,0.0,0.0,0.0,0.0,0.0,0.0,0.0,0.0,0.0,0.0,0.0,0.0,0.0,0.0,0.0,0.0,0.0,0.0,0.0,0.0,0.0,0.0,0.0,0.0,0.0,0.0,0.0,0.0,0.0,0.0,0.0,0.0,0.0,0.0,0.0,0.0,0.0,0.0,0.0,0.0,0.0,0.0,0.0,0.0,0.0,0.0,0.0,0.0,0.0,0.0,0.0,0.0,0.0,0.0,0.0,0.0,0.0,0.0,0.0,0.0,0.0,0.0,0.0,0.0,0.0,0.0,0.0,0.0,0.0,0.0,0.0,0.0,0.0,0.0,0.0,0.0,0.0,0.0,0.0,0.0,0.0,0.0,0.0,0.0,0.0,0.0,0.0,0.0,0.0,0.0,0.0,0.0,0.0,0.0,0.0,0.0,0.0,0.0,0.0,0.0,0.0,0.0,0.0,0.0,0.0,0.0,0.0,0.0,0.0,0.0,0.0,0.0,0.0,0.0,0.0,0.0,0.0,0.0,0.0,0.0,0.0,0.0,0.0,0.0,0.0,0.0,0.0,0.0,0.0,0.0,0.0,0.0,0.0,0.0,0.0,0.0,0.0,0.0,0.0,0.0,0.0,0.0,0.0,0.0,0.0,0.0,0.0,0.0,0.0,0.0,0.0,0.0,0.0,0.0,0.0,0.0,0.0,0.0,0.0,0.0,0.0,0.0,0.0,0.0,0.0,0.0,0.0,0.0,0.0,0.0,0.0,0.0,0.0,0.0,0.0,0.0,0.0,0.0,0.0,0.0,0.0,0.0,0.0,0.0,0.0,0.0,0.0,0.0,0.0,0.0,0.0,0.0,0.0,0.0,0.0,0.0,0.0,0.0,0.0,0.0,0.0,0.0,0.0,0.0,0.0,0.0,0.0,0.0,0.0,0.0,0.0,0.0,0.0,0.0,0.0,0.0,0.0,0.0,0.0,0.0,0.0,0.0,0.0,0.0,0.0,0.0,0.0,0.0,0.0,0.0,0.0,0.0,0.0,0.0,0.0,0.0,0.0,0.0,0.0,0.0,0.0,0.0,0.0,0.0,0.0,0.0,0.0,0.0,0.0,0.0,0.0,0.0,0.0,0.0,0.0,0.0,0.0,0.0,0.0,0.0,0.0,0.0,0.0,0.0,0.0,0.0,0.0,0.0,0.0,0.0,0.0,0.0,0.0,0.0,0.0,0.0,0.0,0.0,0.0,0.0,0.0,0.0,0.0,0.0,0.0,0.0,0.0,0.0,0.0,0.0,0.0,0.0,0.0,0.0,0.0,0.0,0.0,0.0,0.0,0.0,0.0,0.0,0.0,0.0,0.0,0.0,0.0,0.0,0.0,0.0,0.0,0.0,0.0,0.0,0.0,0.0,0.0,0.0,0.0,0.0,0.0,0.0,0.0,0.0,0.0,0.0,0.0,0.0,0.0,0.0,0.0,0.0,0.0,0.0,0.0,0.0,0.0,0.0,0.0,0.0,0.0,0.0,0.0,0.0,0.0,0.0,0.0,0.0,0.0,0.0,0.0,0.0,0.0,0.0,0.0,0.0,0.0,0.0,0.0,0.0,0.0,0.0,0.0,0.0,0.0,0.0,0.0,0.0,0.0,0.0,0.0,0.0,0.0,0.0,0.0,0.0,0.0,0.0,0.0,0.0,0.0,0.0,0.0,0.0,0.0,0.0,0.0,0.0,0.0,0.0,0.0,0.0,0.0,0.0,0.0,0.0,0.0,0.0,0.0,0.0,0.0,0.0,0.0,0.0,0.0,0.0,0.0,0.0,0.0,0.0,0.0,0.0,0.0,0.0,0.0,0.0,0.0,0.0,0.0,0.0,0.0,0.0,0.0,0.0,0.0,0.0,0.0,0.0,0.0,0.0,0.0,0.0,0.0,0.0,0.0,0.0,0.0,0.0,0.0,0.0,0.0,0.0,0.0,0.0,0.0,0.0,0.0,0.0,0.0,0.0,0.0,0.0,0.0,0.0,0.0,0.0,0.0,0.0,0.0,0.0,0.0,0.0,0.0,0.0,0.0,0.0,0.0,0.0,0.0,0.0,0.0,0.0,0.0,0.0,0.0,0.0,0.0,0.0,0.0,0.0,0.0,0.0,0.0,0.0,0.0,0.0,0.0,0.0,0.0,0.0,0.0,0.0,0.0,0.0,0.0,0.0,0.0,0.0,0.0,0.0,0.0,0.0,0.0,0.0,0.0,0.0,0.0,0.0,0.0,0.0,0.0,0.0,0.0,0.0,0.0,0.0,0.0,0.0,0.0,0.0,0.0,0.0,0.0,0.0,0.0,0.0,0.0,0.0,0.0,0.0,0.0,0.0,0.0,0.0,0.0,0.0,0.0,0.0,0.0,0.0,0.0,0.0,0.0,0.0,0.0,0.0,0.0,0.0,0.0,0.0,0.0,0.0,0.0,0.0,0.0,0.0,0.0,0.0,0.0,0.0,0.0,0.0,0.0,0.0,0.0,0.0,0.0,0.0,0.0,0.0,0.0,0.0,0.0,0.0,0.0,0.0,0.0,0.0,0.0,0.0,0.0,0.0,0.0,0.0,0.0,0.0,0.0,0.0,0.0,0.0,0.0,0.0,0.0,0.0,0.0,0.0,0.0,0.0,0.0,0.0,0.0,0.0,0.0,0.0,0.0,0.0,0.0,0.0,0.0,0.0,0.0,0.0,0.0,0.0,0.0,0.0,0.0,0.0,0.0,0.0,0.0,0.0,0.0,0.0,0.0,0.0,0.0,0.0,0.0,0.0,0.0,0.0,0.0,0.0,0.0,0.0,0.0,0.0,0.0,0.0,0.0,0.0,0.0,0.0,0.0,0.0,0.0,0.0,0.0,0.0,0.0,0.0,0.0,0.0,0.0,0.0,0.0,0.0,0.0,0.0,0.0,0.0,0.0,0.0,0.0,0.0,0.0,0.0,0.0,0.0,0.0,0.0,0.0,0.0,0.0,0.0,0.0,0.0,0.0,0.0,0.0,0.0,0.0,0.0,0.0,0.0,0.0,0.0,0.0,0.0,0.0,0.0,0.0,0.0,0.0,0.0,0.0,0.0,0.0,0.0,0.0,0.0,0.0,0.0,0.0,0.0,0.0,0.0,0.0,0.0,0.0,0.0,0.0,0.0,0.0,0.0,0.0,0.0,0.0,0.0,0.0,0.0,0.0,0.0,0.0,0.0,0.0,0.0,0.0,0.0,0.0,0.0,0.0,0.0,0.0,0.0,0.0,0.0,0.0,0.0,0.0,0.0,0.0,0.0,0.0,0.0,0.0,0.0,0.0,0.0,0.0,0.0,0.0,0.0,0.0,0.0,0.0,0.0,0.0,0.0,0.0,0.0,0.0,0.0,0.0,0.0,0.0,0.0,0.0,0.0,0.0,0.0,0.0,0.0,0.0,0.0,0.0,0.0,0.0,0.0,0.0,0.0,0.0,0.0,0.0,0.0,0.0,0.0,0.0,0.0,0.0,0.0,0.0,0.0,0.0,0.0,0.0,0.0,0.0,0.0,0.0,0.0,0.0,0.0,0.0,0.0,0.0,0.0,0.0,0.0,0.0,0.0,0.0,0.0,0.0,0.0,0.0,0.0,0.0,0.0,0.0,0.0,0.0,0.0,0.0,0.0,0.0,0.0,0.0,0.0,0.0,0.0,0.0,0.0,0.0,0.0,0.0,0.0,0.0,0.0,0.0,0.0,0.0,0.0,0.0,0.0,0.0,0.0,0.0,0.0,0.0,0.0,0.0,0.0,0.0,0.0,0.0,0.0,0.0,0.0,0.0,0.0,0.0,0.0,0.0,0.0,0.0,0.0,0.0,0.0,0.0,0.0,0.0,-0.04,0.0,0.0,0.0,0.0,0.0,0.0,0.0,0.0,0.0,0.0,0.0,0.0,0.0,0.0,0.0,0.0,0.0,0.0,0.0,0.0,0.0,0.0,0.0,0.0,0.0,0.0,0.0,0.0,0.0,0.0,0.0,0.0,0.0,0.0,0.0,0.0,0.0,0.0,0.0,0.0,0.0,0.0,0.0,0.0,0.0,0.0,0.0,0.0,0.0,0.0,0.0,0.0,0.0,0.0,0.0,0.0,0.0,0.0,0.0,0.0,0.0,0.0,0.0,0.0,0.0,0.0,0.0,0.0,0.0,0.0,0.0,0.0,0.0,0.0,0.0,0.0,0.0,0.0,0.0,0.0,0.0,0.0,0.0,0.0,0.0,0.0,0.0,0.0,0.0,0.0,0.0,0.0,0.0,0.0,0.0,0.0,0.0,0.0,0.0,0.0,0.0,0.0,0.0,0.0,0.0,0.0,0.0,0.0,0.0,0.0,0.0,0.0,-0.4548,-0.4501,-0.1573,0.0,0.0,0.0,0.0,0.0,0.0,0.0,0.0,0.0,0.0,0.0,0.0,0.0,0.0,0.0,0.0,0.0,0.0,0.0,0.0,0.0,0.0,0.0,0.0,0.0,0.0,0.0,0.0,0.0,0.0,0.0,0.0,0.0,0.0,0.0,0.0,0.0,0.0,0.0,0.0,0.0,0.0,0.0,0.0,0.0,0.0,0.0,0.0,0.0,0.0,0.0,0.0,0.0,0.0,0.0,0.0,0.0,0.0,0.0,0.0,0.0,0.0,0.0,0.0,0.0,0.0,0.0,0.0,0.0,0.0,0.0,0.0,0.0,0.0,0.0,0.0,0.0,0.0,0.0,0.0,0.0,0.0,0.0,0.0,0.0,0.0,0.0,0.0,0.0,0.0,0.0,0.0,0.0,0.0,0.0,0.0,0.0,0.0,0.0,0.0,0.0,0.0,0.0,0.0,0.0,0.0,0.0,0.0,0.0,0.0,0.0,0.0,-0.2982,-0.2995,-0.1042,0.0,0.0,0.0,0.0,0.0,0.0,0.0,0.0,0.0,0.0,0.0,0.0,0.0,0.0,0.0,0.0,0.0,0.0,0.0,0.0,0.0,0.0,0.0,0.0,0.0,0.0,0.0,0.0,0.0,0.0,0.0,0.0,0.0,0.0,0.0,0.0,0.0,0.0,0.0,0.0,0.0,0.0,0.0,0.0,0.0,0.0,0.0,0.0,0.0,0.0,0.0,0.0,0.0,0.0,0.0,0.0,0.0,0.0,0.0,0.0,0.0,0.0,0.0,0.0,0.0,0.0,0.0,0.0,0.0,0.0,0.0,0.0,0.0,0.0,0.0,0.0,0.0,0.0,0.0,0.0,0.0,0.0,0.0,0.0,0.0,0.0,0.0,0.0,0.0,0.0,0.0,0.0,0.0,0.0,0.0,0.0,0.0,0.0,0.0,0.0,0.0,0.0,0.0,0.0,0.0,0.0,0.0,0.0,0.0,0.0,0.0,-0.1436,0.0,-0.1568,-0.1157,-0.0623,0.0,0.0,0.0,0.0,0.0,0.0,0.0,0.0,0.0,0.0,0.0,0.0,0.0,0.0,0.0,0.0,0.0,0.0,0.0,0.0,0.0,0.0,0.0,0.0,0.0,0.0,0.0,0.0,0.0,0.0,0.0,0.0,0.0,0.0,0.0,0.0,0.0,0.0,0.0,0.0,0.0,0.0,0.0,0.0,0.0,0.0,0.0,0.0,0.0,0.0,0.0,0.0,0.0,0.0,0.0,0.0,0.0,0.0,0.0,0.0,0.0,0.0,0.0,0.0,0.0,0.0,0.0,0.0,0.0,0.0,0.0,0.0,0.0,0.0,0.0,0.0,0.0,0.0,0.0,0.0,0.0,0.0,0.0,0.0,0.0,0.0,0.0,0.0,0.0,0.0,0.0,0.0,0.0,0.0,0.0,0.0,0.0,0.0,0.0,0.0,0.0,0.0,0.0,0.0,0.0,0.0,0.0,0.0,0.0,0.0,-0.1073,-0.1584,-0.1609,-0.2613,-0.2155,0.0,0.0,0.0,0.0,0.0,0.0,0.0,0.0,0.0,0.0,0.0,0.0,0.0,0.0,0.0,0.0,0.0,0.0,0.0,0.0,0.0,0.0,0.0,0.0,0.0,0.0,0.0,0.0,0.0,0.0,0.0,0.0,0.0,0.0,0.0,0.0,0.0,0.0,0.0,0.0,0.0,0.0,0.0,0.0,0.0,0.0,0.0,0.0,0.0,0.0,0.0,0.0,0.0,0.0,0.0,0.0,0.0,0.0,0.0,0.0,0.0,0.0,0.0,0.0,0.0,0.0,0.0,0.0,0.0,0.0,0.0,0.0,0.0,0.0,0.0,0.0,0.0,0.0,0.0,0.0,0.0,0.0,0.0,0.0,0.0,0.0,0.0,0.0,0.0,0.0,0.0,0.0,0.0,0.0,0.0,0.0,0.0,0.0,0.0,0.0,0.0,0.0,0.0,0.0,0.0,0.0,0.0,0.0,0.0,0.0,-0.0378,-0.0917,-0.1572,-0.2,-0.1524,0.0,0.0,0.0,0.0,0.0,0.0,0.0,0.0,0.0,0.0,0.0,0.0,0.0,0.0,0.0,0.0,0.0,0.0,0.0,0.0,0.0,0.0,0.0,0.0,0.0,0.0,0.0,0.0,0.0,0.0,0.0,0.0,0.0,0.0,0.0,0.0,0.0,0.0,0.0,0.0,0.0,0.0,0.0,0.0,0.0,0.0,0.0,0.0,0.0,0.0,0.0,0.0,0.0,0.0,0.0,0.0,0.0,0.0,0.0,0.0,0.0,0.0,0.0,0.0,0.0,0.0,0.0,0.0,0.0,0.0,0.0,0.0,0.0,0.0,0.0,0.0,0.0,0.0,0.0,0.0,0.0,0.0,0.0,0.0,0.0,0.0,0.0,0.0,0.0,0.0,0.0,0.0,0.0,0.0,0.0,0.0,0.0,0.0,0.0,0.0,0.0,0.0,0.0,0.0,0.0,0.0,0.0,0.0,0.0,0.0,0.0,-0.0354,0.0,-0.1425,-0.1103,0.0,0.0,0.0,0.0,0.0,0.0,0.0,0.0,0.0,0.0,0.0,0.0,0.0,0.0,0.0,0.0,0.0,0.0,0.0,0.0,0.0,0.0,0.0,0.0,0.0,0.0,0.0,0.0,0.0,0.0,0.0,0.0,0.0,0.0,0.0,0.0,0.0,0.0,0.0,0.0,0.0,0.0,0.0,0.0,0.0,0.0,0.0,0.0,0.0,0.0,0.0,0.0,0.0,0.0,0.0,0.0,0.0,0.0,0.0,0.0,0.0,0.0,0.0,0.0,0.0,0.0,0.0,0.0,0.0,0.0,0.0,0.0,0.0,0.0,0.0,0.0,0.0,0.0,0.0,0.0,0.0,0.0,0.0,0.0,0.0,0.0,0.0,0.0,0.0,0.0,0.0,0.0,0.0,0.0,0.0,0.0,0.0,0.0,0.0,0.0,0.0,0.0,0.0,0.0,0.0,0.0,0.0,0.0,0.0,0.0,0.0,-0.0061,-0.0044,-0.1011,-0.1069,0.0,0.0,0.0,0.0,0.0,0.0,0.0,0.0,0.0,0.0,0.0,0.0,0.0,0.0,0.0,0.0,0.0,0.0,0.0,0.0,0.0,0.0,0.0,0.0,0.0,0.0,0.0,0.0,0.0,0.0,0.0,0.0,0.0,0.0,0.0,0.0,0.0,0.0,0.0,0.0,0.0,0.0,0.0,0.0,0.0,0.0,0.0,0.0,0.0,0.0,0.0,0.0,0.0,0.0,0.0,0.0,0.0,0.0,0.0,0.0,0.0,0.0,0.0,0.0,0.0,0.0,0.0,0.0,0.0,0.0,0.0,0.0,0.0,0.0,0.0,0.0,0.0,0.0,0.0,0.0,0.0,0.0,0.0,0.0,0.0,0.0,0.0,0.0,0.0,0.0,0.0,0.0,0.0,0.0,0.0,0.0,0.0,0.0,0.0,0.0,0.0,0.0,0.0,0.0,0.0,0.0,0.0,0.0,0.0,-0.1024,-0.0745,-0.0429,-0.0041,-0.0323,-0.0331,0.0,0.0,0.0,0.0,0.0,0.0,0.0,0.0,0.0,0.0,0.0,0.0,0.0,0.0,0.0,0.0,0.0,0.0,0.0,0.0,0.0,0.0,0.0,0.0,0.0,0.0,0.0,0.0,0.0,0.0,0.0,0.0,0.0,0.0,0.0,0.0,0.0,0.0,0.0,0.0,0.0,0.0,0.0,0.0,0.0,0.0,0.0,0.0,0.0,0.0,0.0,0.0,0.0,0.0,0.0,0.0,0.0,0.0,0.0,0.0,0.0,0.0,0.0,0.0,0.0,0.0,0.0,0.0,0.0,0.0,0.0,0.0,0.0,0.0,0.0,0.0,0.0,0.0,0.0,0.0,0.0,0.0,0.0,0.0,0.0,0.0,0.0,0.0,0.0,0.0,0.0,0.0,0.0,0.0,0.0,0.0,0.0,0.0,0.0,0.0,0.0,0.0,0.0,0.0,0.0,0.0,0.0,0.0,0.0,-0.1723,-0.1162,-0.0763,-0.0461,-0.0156,0.0,0.0,0.0,0.0,0.0,0.0,0.0,0.0,0.0,0.0,0.0,0.0,0.0,0.0,0.0,0.0,0.0,0.0,0.0,0.0,0.0,0.0,0.0,0.0,0.0,0.0,0.0,0.0,0.0,0.0,0.0,0.0,0.0,0.0,0.0,0.0,0.0,0.0,0.0,0.0,0.0,0.0,0.0,0.0,0.0,0.0,0.0,0.0,0.0,0.0,0.0,0.0,0.0,0.0,0.0,0.0,0.0,0.0,0.0,0.0,0.0,0.0,0.0,0.0,0.0,0.0,0.0,0.0,0.0,0.0,0.0,0.0,0.0,0.0,0.0,0.0,0.0,0.0,0.0,0.0,0.0,0.0,0.0,0.0,0.0,0.0,0.0,0.0,0.0,0.0,0.0,0.0,0.0,0.0,0.0,0.0,0.0,0.0,0.0,0.0,0.0,0.0,0.0,0.0,0.0,0.0,0.0,0.0,0.0,0.0,-0.2047,-0.1289,-0.0993,-0.1166,-0.0467,-0.0052,0.0,0.0,0.0,0.0,0.0,0.0,0.0,0.0,0.0,0.0,0.0,0.0,0.0,0.0,0.0,0.0,0.0,0.0,0.0,0.0,0.0,0.0,0.0,0.0,0.0,0.0,0.0,0.0,0.0,0.0,0.0,0.0,0.0,0.0,0.0,0.0,0.0,0.0,0.0,0.0,0.0,0.0,0.0,0.0,0.0,0.0,0.0,0.0,0.0,0.0,0.0,0.0,0.0,0.0,0.0,0.0,0.0,0.0,0.0,0.0,0.0,0.0,0.0,0.0,0.0,0.0,0.0,0.0,0.0,0.0,0.0,0.0,0.0,0.0,0.0,0.0,0.0,0.0,0.0,0.0,0.0,0.0,0.0,0.0,0.0,0.0,0.0,0.0,0.0,0.0,0.0,0.0,0.0,0.0,0.0,0.0,0.0,0.0,0.0,0.0,0.0,0.0,0.0,0.0,0.0,0.0,0.0,0.0,0.0,-0.1415,-0.1082,-0.0973,-0.1116,-0.0965,-0.0617,0.0,0.0,0.0,0.0,0.0,0.0,0.0,0.0,0.0,0.0,0.0,0.0,0.0,0.0,0.0,0.0,0.0,0.0,0.0,0.0,0.0,0.0,0.0,0.0,0.0,0.0,0.0,0.0,0.0,0.0,0.0,0.0,0.0,0.0,0.0,0.0,0.0,0.0,0.0,0.0,0.0,0.0,0.0,0.0,0.0,0.0,0.0,0.0,0.0,0.0,0.0,0.0,0.0,0.0,0.0,0.0,0.0,0.0,0.0,0.0,0.0,0.0,0.0,0.0,0.0,0.0,0.0,0.0,0.0,0.0,0.0,0.0,0.0,0.0,0.0,0.0,0.0,0.0,0.0,0.0,0.0,0.0,0.0,0.0,0.0,0.0,0.0,0.0,0.0,0.0,0.0,0.0,0.0,0.0,0.0,0.0,0.0,0.0,0.0,0.0,0.0,0.0,0.0,0.0,0.0,0.0,0.0,0.0,-0.118,-0.1121,-0.0973,-0.0951,-0.1064,-0.1132,-0.0895,0.0,0.0,0.0,0.0,0.0,0.0,0.0,0.0,0.0,0.0,0.0,0.0,0.0,0.0,0.0,0.0,0.0,0.0,0.0,0.0,0.0,0.0,0.0,0.0,0.0,0.0,0.0,0.0,0.0,0.0,0.0,0.0,0.0,0.0,0.0,0.0,0.0,0.0,0.0,0.0,0.0,0.0,0.0,0.0,0.0,0.0,0.0,0.0,0.0,0.0,0.0,0.0,0.0,0.0,0.0,0.0,0.0,0.0,0.0,0.0,0.0,0.0,0.0,0.0,0.0,0.0,0.0,0.0,0.0,0.0,0.0,0.0,0.0,0.0,0.0,0.0,0.0,0.0,0.0,0.0,0.0,0.0,0.0,0.0,0.0,0.0,0.0,0.0,0.0,0.0,0.0,0.0,0.0,0.0,0.0,0.0,0.0,0.0,0.0,0.0,0.0,0.0,0.0,0.0,0.0,0.0,0.0,0.0,-0.111,-0.1007,-0.094,-0.0916,-0.0985,-0.1053,-0.1026,0.0,0.0,0.0,0.0,0.0,0.0,0.0,0.0,0.0,0.0,0.0,0.0,0.0,0.0,0.0,0.0,0.0,0.0,0.0,0.0,0.0,0.0,0.0,0.0,0.0,0.0,0.0,0.0,0.0,0.0,0.0,0.0,0.0,0.0,0.0,0.0,0.0,0.0,0.0,0.0,0.0,0.0,0.0,0.0,0.0,0.0,0.0,0.0,0.0,0.0,0.0,0.0,0.0,0.0,0.0,0.0,0.0,0.0,0.0,0.0,0.0,0.0,0.0,0.0,0.0,0.0,0.0,0.0,0.0,0.0,0.0,0.0,0.0,0.0,0.0,0.0,0.0,0.0,0.0,0.0,0.0,0.0,0.0,0.0,0.0,0.0,0.0,0.0,0.0,0.0,0.0,0.0,0.0,0.0,0.0,0.0,0.0,0.0,0.0,0.0,0.0,0.0,0.0,0.0,0.0,0.0,0.0,0.0,-0.0973,-0.1007,-0.0927,-0.091,-0.0919,-0.0989,-0.1046,0.0,0.0,0.0,0.0,0.0,0.0,0.0,0.0,0.0,0.0,0.0,0.0,0.0,0.0,0.0,0.0,0.0,0.0,0.0,0.0,0.0,0.0,0.0,0.0,0.0,0.0,0.0,0.0,0.0,0.0,0.0,0.0,0.0,0.0,0.0,0.0,0.0,0.0,0.0,0.0,0.0,0.0,0.0,0.0,0.0,0.0,0.0,0.0,0.0,0.0,0.0,0.0,0.0,0.0,0.0,0.0,0.0,0.0,0.0,0.0,0.0,0.0,0.0,0.0,0.0,0.0,0.0,0.0,0.0,0.0,0.0,0.0,0.0,0.0,0.0,0.0,0.0,0.0,0.0,0.0,0.0,0.0,0.0,0.0,0.0,0.0,0.0,0.0,0.0,0.0,0.0,0.0,0.0,0.0,0.0,0.0,0.0,0.0,0.0,0.0,0.0,0.0,0.0,0.0,0.0,0.0,0.0,0.0,-0.0919,-0.0947,-0.0919,-0.0888,-0.0899,-0.0938,-0.1002,0.0,0.0,0.0,0.0,0.0,0.0,0.0,0.0,0.0,0.0,0.0,0.0,0.0,0.0,0.0,0.0,0.0,0.0,0.0,0.0,0.0,0.0,0.0,0.0,0.0,0.0,0.0,0.0,0.0,0.0,0.0,0.0,0.0,0.0,0.0,0.0,0.0,0.0,0.0,0.0,0.0,0.0,0.0,0.0,0.0,0.0,0.0,0.0,0.0,0.0,0.0,0.0,0.0,0.0,0.0,0.0,0.0,0.0,0.0,0.0,0.0,0.0,0.0,0.0,0.0,0.0,0.0,0.0,0.0,0.0,0.0,0.0,0.0,0.0,0.0,0.0,0.0,0.0,0.0,0.0,0.0,0.0,0.0,0.0,0.0,0.0,0.0,0.0,0.0,0.0,0.0,0.0,0.0,0.0,0.0,0.0,0.0,0.0,0.0,0.0,0.0,0.0,0.0,0.0,0.0,0.0,0.0,-0.0701,-0.0888,-0.0888,-0.0888,-0.0888,-0.0888,-0.0888,-0.0916,-0.0965,0.0,0.0,0.0,0.0,0.0,0.0,0.0,0.0,0.0,0.0,0.0,0.0,0.0,0.0,0.0,0.0,0.0,0.0,0.0,0.0,0.0,0.0,0.0,0.0,0.0,0.0,0.0,0.0,0.0,0.0,0.0,0.0,0.0,0.0,0.0,0.0,0.0,0.0,0.0,0.0,0.0,0.0,0.0,0.0,0.0,0.0,0.0,0.0,0.0,0.0,0.0,0.0,0.0,0.0,0.0,0.0,0.0,0.0,0.0,0.0,0.0,0.0,0.0,0.0,0.0,0.0,0.0,0.0,0.0,0.0,0.0,0.0,0.0,0.0,0.0,0.0,0.0,0.0,0.0,0.0,0.0,0.0,0.0,0.0,0.0,0.0,0.0,0.0,0.0,0.0,0.0,0.0,0.0,0.0,0.0,0.0,0.0,0.0,0.0,0.0,0.0,0.0,0.0,0.0,0.0,-0.0058,-0.061,-0.0888,-0.0888,-0.0888,-0.0888,-0.0888,-0.0888,-0.091,-0.0895,0.0,0.0,0.0,0.0,0.0,0.0,0.0,0.0,0.0,0.0,0.0,0.0,0.0,0.0,0.0,0.0,0.0,0.0,0.0,0.0,0.0,0.0,0.0,0.0,0.0,0.0,0.0,0.0,0.0,0.0,0.0,0.0,0.0,0.0,0.0,0.0,0.0,0.0,0.0,0.0,0.0,0.0,0.0,0.0,0.0,0.0,0.0,0.0,0.0,0.0,0.0,0.0,0.0,0.0,0.0,0.0,0.0,0.0,0.0,0.0,0.0,0.0,0.0,0.0,0.0,0.0,0.0,0.0,0.0,0.0,0.0,0.0,0.0,0.0,0.0,0.0,0.0,0.0,0.0,0.0,0.0,0.0,0.0,0.0,0.0,0.0,0.0,0.0,0.0,0.0,0.0,0.0,0.0,0.0,0.0,0.0,0.0,0.0,0.0,0.0,0.0,0.0,0.0,0.0,0.0,0.0,-0.0425,-0.0721,-0.0881,-0.0888,-0.0888,-0.0884,-0.0734,-0.071,0.0,0.0,0.0,0.0,0.0,0.0,0.0,0.0,0.0,0.0,0.0,0.0,0.0,0.0,0.0,0.0,0.0,0.0,0.0,0.0,0.0,0.0,0.0,0.0,0.0,0.0,0.0,0.0,0.0,0.0,0.0,0.0,0.0,0.0,0.0,0.0,0.0,0.0,0.0,0.0,0.0,0.0,0.0,0.0,0.0,0.0,0.0,0.0,0.0,0.0,0.0,0.0,0.0,0.0,0.0,0.0,0.0,0.0,0.0,0.0,0.0,0.0,0.0,0.0,0.0,0.0,0.0,0.0,0.0,0.0,0.0,0.0,0.0,0.0,0.0,0.0,0.0,0.0,0.0,0.0,0.0,0.0,0.0,0.0,0.0,0.0,0.0,0.0,0.0,0.0,0.0,0.0,0.0,0.0,0.0,0.0,0.0,0.0,0.0,0.0,0.0,0.0,0.0,0.0,0.0,0.0,0.0,-0.0246,-0.0532,-0.086,-0.0864,-0.0877,-0.0881,-0.0585,-0.0554,0.0,0.0,0.0,0.0,0.0,0.0,0.0,0.0,0.0,0.0,0.0,0.0,0.0,0.0,0.0,0.0,0.0,0.0,0.0,0.0,0.0,0.0,0.0,0.0,0.0,0.0,0.0,0.0,0.0,0.0,0.0,0.0,0.0,0.0,0.0,0.0,0.0,0.0,0.0,0.0,0.0,-0.021,0.0,0.0,0.0,0.0,0.0,0.0,0.0,0.0,0.0,0.0,0.0,0.0,0.0,0.0,0.0,0.0,0.0,0.0,0.0,0.0,0.0,0.0,0.0,0.0,0.0,0.0,0.0,0.0,0.0,0.0,0.0,0.0,0.0,0.0,0.0,0.0,0.0,0.0,0.0,0.0,0.0,0.0,0.0,0.0,0.0,0.0,0.0,0.0,0.0,0.0,0.0,0.0,0.0,0.0,0.0,0.0,0.0,0.0,0.0,0.0,0.0,0.0,0.0,0.0,0.0,-0.0207,-0.0455,-0.0714,-0.0727,-0.0773,-0.0883,-0.0563,-0.0562,0.0,0.0,0.0,0.0,0.0,0.0,0.0,0.0,0.0,0.0,0.0,0.0,0.0,0.0,0.0,0.0,0.0,0.0,0.0,0.0,0.0,0.0,0.0,0.0,0.0,0.0,0.0,0.0,0.0,0.0,0.0,0.0,0.0,0.0,0.0,0.0,0.0,0.0,0.0,0.0,0.0,-0.0933,-0.0121,0.0,-0.1053,0.0,0.0,0.0,0.0,0.0,0.0,0.0,0.0,0.0,0.0,0.0,0.0,0.0,0.0,0.0,0.0,0.0,0.0,0.0,0.0,0.0,0.0,0.0,0.0,0.0,0.0,0.0,0.0,0.0,0.0,0.0,0.0,0.0,0.0,0.0,0.0,0.0,0.0,0.0,0.0,0.0,0.0,0.0,0.0,0.0,0.0,0.0,0.0,0.0,0.0,0.0,0.0,0.0,0.0,0.0,0.0,0.0,0.0,0.0,0.0,-0.0031,-0.0117,-0.0124,-0.0253,-0.0518,-0.0525,-0.0569,-0.0682,-0.0502,-0.0392,0.0,0.0,0.0,0.0,0.0,0.0,0.0,0.0,0.0,0.0,0.0,0.0,0.0,0.0,0.0,0.0,0.0,0.0,0.0,0.0,0.0,0.0,0.0,0.0,0.0,0.0,0.0,0.0,0.0,0.0,0.0,0.0,0.0,0.0,0.0,0.0,0.0,0.0,0.0,0.0,0.0,0.0,-0.1587,-0.0663,0.0,0.0,0.0,0.0,0.0,0.0,0.0,0.0,0.0,0.0,0.0,0.0,0.0,0.0,0.0,0.0,0.0,0.0,0.0,0.0,0.0,0.0,0.0,0.0,0.0,0.0,0.0,0.0,0.0,0.0,0.0,0.0,0.0,0.0,0.0,0.0,0.0,0.0,0.0,0.0,0.0,0.0,0.0,0.0,0.0,0.0,0.0,0.0,0.0,0.0,0.0,0.0,0.0,0.0,0.0,0.0,0.0,0.0,0.0,0.0,0.0,0.0,-0.0152,-0.0076,-0.0134,-0.0342,-0.0367,-0.0401,-0.0421,-0.0394,0.0,0.0,0.0,0.0,0.0,0.0,0.0,0.0,0.0,0.0,0.0,0.0,0.0,0.0,0.0,0.0,0.0,0.0,0.0,0.0,0.0,0.0,0.0,0.0,0.0,0.0,0.0,0.0,0.0,0.0,0.0,0.0,0.0,0.0,0.0,0.0,0.0,0.0,0.0,0.0,0.0,0.0,-0.2742,-0.2646,-0.1541,-0.0758,0.0,0.0,-0.0812,-0.0763,-0.0751,-0.057,0.0,0.0,0.0,0.0,0.0,0.0,0.0,0.0,0.0,0.0,0.0,0.0,0.0,0.0,0.0,0.0,0.0,0.0,0.0,0.0,0.0,0.0,0.0,0.0,0.0,0.0,0.0,0.0,0.0,0.0,0.0,0.0,0.0,0.0,0.0,0.0,0.0,0.0,0.0,0.0,0.0,0.0,0.0,0.0,0.0,0.0,0.0,0.0,0.0,0.0,0.0,0.0,0.0,0.0,0.0,-0.0022,-0.0065,-0.0119,-0.02,-0.0278,-0.0278,-0.0222,-0.0272,-0.0213,0.0,0.0,0.0,0.0,0.0,0.0,0.0,0.0,0.0,0.0,0.0,0.0,0.0,0.0,0.0,0.0,0.0,0.0,0.0,0.0,0.0,0.0,0.0,0.0,0.0,0.0,0.0,0.0,0.0,0.0,0.0,0.0,0.0,0.0,0.0,0.0,0.0,0.0,0.0,0.0,0.0,-0.283,-0.2471,-0.2578,-0.2799,0.0,0.0,-0.3015,-0.2827,-0.2784,-0.2173,-0.0308,0.0,0.0,0.0,0.0,0.0,0.0,0.0,0.0,0.0,0.0,0.0,0.0,0.0,0.0,0.0,0.0,0.0,0.0,0.0,0.0,0.0,0.0,0.0,0.0,0.0,0.0,0.0,0.0,0.0,0.0,0.0,0.0,0.0,0.0,0.0,0.0,0.0,0.0,0.0,0.0,0.0,0.0,0.0,0.0,0.0,0.0,0.0,0.0,0.0,0.0,0.0,0.0,0.0,0.0,0.0,-0.003,-0.0044,-0.0067,-0.0111,-0.0111,-0.0067,-0.01,-0.0079,0.0,0.0,0.0,0.0,0.0,0.0,0.0,0.0,0.0,0.0,0.0,0.0,0.0,0.0,0.0,0.0,0.0,0.0,0.0,0.0,0.0,0.0,0.0,0.0,0.0,0.0,0.0,0.0,0.0,0.0,0.0,0.0,0.0,0.0,0.0,0.0,0.0,0.0,0.0,0.0,0.0,-0.2883,-0.2568,-0.2573,0.0,0.0,-0.3136,-0.3091,-0.3013,-0.2991,-0.2767,-0.2081,-0.2146,0.0,0.0,0.0,0.0,0.0,0.0,0.0,0.0,0.0,0.0,0.0,0.0,0.0,0.0,0.0,0.0,0.0,0.0,0.0,0.0,0.0,0.0,0.0,0.0,0.0,0.0,0.0,0.0,0.0,0.0,0.0,0.0,0.0,0.0,0.0,0.0,0.0,0.0,0.0,0.0,0.0,0.0,0.0,0.0,0.0,0.0,0.0,0.0,0.0,0.0,0.0,0.0,0.0,0.0,0.0,0.0,0.0,0.0,0.0,0.0,0.0,0.0,0.0,0.0,0.0,0.0,0.0,0.0,0.0,0.0,0.0,0.0,0.0,0.0,0.0,0.0,0.0,0.0,0.0,0.0,0.0,0.0,0.0,0.0,0.0,0.0,0.0,0.0,0.0,0.0,0.0,0.0,0.0,0.0,0.0,0.0,0.0,0.0,0.0,0.0,0.0,0.0,0.0,-0.2969,-0.2752,-0.2578,-0.2559,-0.2774,-0.2863,-0.2939,-0.2991,-0.3022,-0.3109,-0.324,0.0,0.0,0.0,0.0,0.0,0.0,0.0,0.0,0.0,0.0,0.0,0.0,0.0,0.0,0.0,0.0,0.0,0.0,0.0,0.0,0.0,0.0,0.0,0.0,0.0,0.0,0.0,0.0,0.0,0.0,0.0,0.0,0.0,0.0,0.0,0.0,0.0,0.0,0.0,0.0,0.0,0.0,0.0,0.0,0.0,0.0,0.0,0.0,0.0,0.0,0.0,0.0,0.0,0.0,0.0,0.0,0.0,0.0,0.0,0.0,0.0,0.0,0.0,0.0,0.0,0.0,0.0,0.0,0.0,0.0,0.0,0.0,0.0,0.0,0.0,0.0,0.0,0.0,0.0,0.0,0.0,0.0,0.0,0.0,0.0,0.0,0.0,0.0,0.0,0.0,0.0,0.0,0.0,0.0,0.0,0.0,0.0,0.0,0.0,0.0,0.0,0.0,0.0,-0.3112,-0.313,-0.3006,-0.2747,-0.2563,-0.2437,-0.2583,-0.277,-0.2976,-0.3103,-0.3255,0.0,0.0,0.0,0.0,0.0,0.0,0.0,0.0,0.0,0.0,0.0,0.0,0.0,0.0,0.0,0.0,0.0,0.0,0.0,0.0,0.0,0.0,0.0,0.0,0.0,0.0,0.0,0.0163,0.0098,0.0,0.0,0.0,0.0,0.0,0.0,0.0,0.0,0.0,0.0,0.0,0.2728,0.2742,0.0,0.0,0.0,0.0,0.0,0.0,0.0,0.0,0.0,0.0,0.0,0.0,0.0,0.0,0.0,0.0,0.0,0.0,0.0,0.0,0.0,0.0,0.0,0.0,0.0,0.0,0.0,0.0,0.0,0.0,0.0,0.0,0.0,0.0,0.0,0.0,0.0,0.0,0.0,0.0,0.0,0.0,0.0,0.0,0.0,0.0,0.0,0.0,0.0,0.0,0.0,0.0,0.0,0.0,0.0,0.0,0.0,0.0,0.0,0.0,-0.2976,-0.2823,-0.2842,-0.2861,-0.2799,-0.2733,-0.2651,0.0,0.0,0.0,0.0,0.0,0.0,0.0,0.0,0.0,0.0,0.0,0.0,0.0,0.0,-0.2531,-0.2582,-0.2671,-0.2758,-0.2895,0.0,0.0,0.0,0.0,0.0,0.0,0.0,0.0,0.0,0.0,0.0,0.0,0.0,0.0,0.0,0.0,0.2383,0.0,0.0,0.0,0.0,0.0,0.0,0.0,0.0,0.2256,0.2262,0.2182,0.2182,0.2143,0.0,0.2063,0.2655,0.0,0.0,0.0,0.0,0.0,0.0,0.0,0.0,0.0033,0.0033,0.0,0.0,0.0,0.0,0.0,0.0,0.0,0.0,0.0,0.0,0.0,0.0,0.0,0.0,0.0,0.0,0.0,0.0,0.0,0.0,0.0,0.0,0.0,0.0,0.0,0.0,0.0,0.0,0.0,0.0,0.0,0.0,0.0,0.0,0.0,0.0,0.0,0.0,0.0,0.0,0.0,0.0,0.0,0.0,-0.087,-0.193,-0.2689,-0.2607,-0.2583,-0.2593,-0.2588,0.0,0.0,0.0,0.0,0.0,0.0,0.0,-0.3255,-0.3384,-0.3296,-0.3241,-0.3351,-0.3533,-0.3665,-0.3662,0.0,0.0,-0.3847,-0.4001,-0.4141,-0.4302,-0.4355,-0.4387,-0.4454,-0.4482,-0.4491,0.0,0.0,0.0,0.0,0.0,0.0,0.0,0.0,0.1053,0.0951,0.0,0.3525,0.0,0.0,0.0,0.0,0.0,0.0,0.0,0.0,0.1495,0.119,0.1214,0.1226,0.1105,0.0922,0.093,0.1247,0.1874,0.3719,0.0,0.0,0.0,0.0,0.0,0.0,0.0089,0.01,0.0033,0.0,0.0,0.0,0.0,0.0,0.0,0.0,0.0,0.0,0.0,0.0,0.0,0.0,0.0,0.0,0.0,0.0,0.0,0.0,0.0,0.0,0.0,0.0,0.0,0.0,0.0,0.0,0.0,0.0,0.0,0.0,0.0,0.0,0.0,0.0,0.0,0.0,0.0,0.0,0.0,0.0,0.0,0.0,-0.2396,-0.2394,-0.2413,-0.2413,0.0,0.0,0.0,0.0,-0.3469,-0.5614,-0.4283,-0.2991,-0.2991,-0.3112,-0.3246,-0.3368,0.0,0.0,-0.3287,-0.3359,-0.3442,-0.3574,-0.3653,-0.371,-0.3781,-0.3957,-0.4114,-0.4171,-0.4254,-0.4322,-0.4373,-0.4442,-0.4491,0.098,0.0,0.0,0.0,0.0,0.1021,0.1101,0.1187,0.1208,0.1119,0.1056,0.2519,0.0,0.0,0.0,0.0,0.0,0.0,0.177,0.1458,0.133,0.1224,0.1136,0.1136,0.1101,0.1038,0.1034,0.1099,0.1277,0.2248,0.2685,0.2586,0.0,0.0,0.0,0.0,0.0178,0.0167,0.0056,0.0,0.0,0.0,0.0,0.0,0.0,0.0,0.0,0.0,0.0,0.0,0.0,0.0,0.0,0.0,0.0,0.0,0.0,0.0,0.0,0.0,0.0,0.0,0.0,0.0,0.0,0.0,0.0,0.0,0.0,0.0,0.0,0.0,0.0,0.0,0.0,0.0,0.0,0.0,0.0,0.0,0.0,0.0,-0.2437,-0.2413,-0.2413,0.0,0.0,-0.2808,-0.3954,-0.427,-0.4679,-0.5516,0.0,0.0,0.0,-0.3037,-0.3121,-0.3292,-0.318,-0.3076,-0.3154,-0.33,-0.3442,-0.359,-0.3598,-0.3654,-0.3732,-0.3928,-0.4101,-0.4135,-0.4179,-0.4249,-0.4316,-0.4368,-0.4454,0.1376,0.1171,0.1144,0.121,0.1297,0.1398,0.1502,0.1584,0.1547,0.1455,0.1345,0.1861,0.1828,0.1413,0.1697,0.0,0.0,0.0,0.1669,0.1276,0.133,0.1306,0.1234,0.1214,0.1206,0.1195,0.1177,0.1131,0.1044,0.1407,0.1901,0.2489,0.0,0.0,0.0445,0.0312,0.0211,0.0156,0.0089,0.0033,0.0,0.0,0.0,0.0,0.0,0.0,0.0,0.0,0.0,0.0,0.0,0.0,0.0,0.0,0.0,0.0,0.0,0.0,0.0,0.0,0.0,0.0,0.0,0.0,0.0,0.0,0.0,0.0,0.0,0.0,0.0,0.0,0.0,0.0,0.0,0.0,0.0,0.0,0.0,-0.225,-0.2353,-0.2363,-0.2372,-0.2942,-0.3347,-0.3347,-0.3347,-0.3707,-0.4671,0.0,-0.5039,-0.52,-0.4396,-0.3857,-0.4155,-0.4194,-0.3984,-0.3271,-0.3097,-0.3022,-0.3052,-0.3246,-0.3418,-0.3505,-0.3528,-0.356,-0.3678,-0.3869,-0.4037,-0.4095,-0.4154,-0.4219,-0.4293,-0.4363,-0.4409,0.152,0.1723,0.1741,0.1827,0.1926,0.204,0.2123,0.217,0.1995,0.1852,0.1784,0.1542,0.141,0.1397,0.1216,0.0,0.0,0.1307,0.1346,0.1409,0.141,0.141,0.141,0.1408,0.1374,0.1303,0.1306,0.1239,0.1121,0.1135,0.1093,0.1111,0.1401,0.1216,0.0555,0.0387,0.0271,0.0122,0.0122,0.0089,0.0,0.0,0.0,0.0,0.0,0.0,0.0,0.0,0.0,0.0,0.0,0.0,0.0,0.0,0.0,0.0,0.0,0.0,0.0,0.0,0.0,0.0,0.0,0.0,0.0,0.0,0.0,0.0,0.0,0.0,0.0,-0.0058,0.0,0.0,0.0,-0.0126,-0.0129,-0.1411,-0.2324,-0.2458,0.0,0.0,0.0,0.0,-0.4783,-0.4788,-0.4788,-0.4788,-0.4788,-0.4812,-0.4832,-0.4863,-0.502,-0.5346,-0.5709,-0.5832,-0.5282,-0.3737,-0.3232,-0.3272,-0.3073,-0.3214,-0.3376,-0.3401,-0.3386,-0.3465,-0.3678,-0.3825,-0.3942,-0.4065,-0.4147,-0.4219,-0.4286,-0.4345,-0.4411,0.1734,0.2006,0.2166,0.2165,0.2069,0.2097,0.2124,0.217,0.2052,0.1899,0.1804,0.1736,0.1585,0.1408,0.1351,0.1362,0.1369,0.137,0.1384,0.1409,0.141,0.141,0.141,0.141,0.1397,0.1369,0.1367,0.135,0.1249,0.1247,0.1195,0.1104,0.1183,0.1053,0.0735,0.0653,0.0517,0.0323,0.0334,0.0278,0.0156,0.0044,0.0,0.0,0.0,0.0,0.0,0.0,0.0,0.0,0.0,0.0,0.0,0.0,0.0,0.0,0.0,0.0,0.0,0.0,0.0,0.0,0.0,0.0,0.0,0.0,0.0,0.0,0.0,0.0,0.0,-0.0554,0.0,0.0,-0.1224,-0.1224,-0.1236,-0.1688,-0.2486,-0.3827,-0.3969,-0.3978,-0.3978,-0.4311,-0.464,-0.4768,-0.4788,-0.4788,-0.4808,-0.4946,-0.503,-0.5074,-0.5363,-0.5715,-0.5949,-0.6009,-0.5837,-0.5379,-0.5271,-0.4776,-0.3255,-0.3212,-0.3386,-0.3386,-0.3386,-0.3475,-0.3654,-0.3803,-0.3942,-0.4058,-0.4105,-0.4158,-0.4272,-0.432,-0.435,0.1809,0.2115,0.231,0.2389,0.2375,0.2373,0.2372,0.2422,0.2272,0.2123,0.1986,0.1982,0.1887,0.1715,0.1713,0.1659,0.1558,0.1579,0.1529,0.1435,0.1433,0.1433,0.141,0.141,0.141,0.141,0.141,0.1377,0.1336,0.1353,0.1317,0.1231,0.1231,0.1172,0.1023,0.0847,0.0675,0.0536,0.044,0.0345,0.02,0.01,0.0033,0.0033,0.0011,0.0,0.0,0.0,0.0,0.0,0.0,0.0,0.0,0.0,0.0,0.0,0.0,0.0,0.0,0.0,0.0,0.0,0.0,0.0,0.0,0.0,0.0,0.0,0.0,0.0,-0.0499,-0.0943,-0.1297,-0.1561,-0.1586,-0.1586,-0.1586,-0.1753,-0.2461,-0.4039,-0.4232,-0.4228,-0.4232,-0.4317,-0.4435,-0.4644,-0.4748,-0.4788,-0.4808,-0.4981,-0.518,-0.5472,-0.5734,-0.5905,-0.6003,-0.6009,-0.6009,-0.6009,-0.6009,-0.5614,-0.4665,-0.4746,-0.4646,-0.367,-0.3386,-0.3467,-0.367,-0.3817,-0.3949,-0.4058,-0.4092,-0.4133,-0.4224,-0.4273,-0.4326,0.1809,0.2115,0.231,0.2509,0.2679,0.2679,0.2679,0.2669,0.2549,0.24,0.2209,0.2195,0.2186,0.2178,0.2139,0.2,0.1833,0.1812,0.1698,0.1549,0.1508,0.1455,0.141,0.141,0.141,0.141,0.141,0.141,0.141,0.141,0.141,0.141,0.141,0.1381,0.1289,0.1006,0.0812,0.0713,0.0534,0.0367,0.0233,0.0145,0.01,0.01,0.0056,0.0024,0.0,0.0,0.0,0.0,0.0,0.0,0.0,0.0,0.0,0.0,0.0,0.0,0.0,0.0,0.0,0.0,0.0,0.0,0.0,0.0,0.0,0.0,-0.0085,-0.0466,-0.1177,-0.1243,-0.134,-0.1572,-0.1586,-0.1642,-0.1795,-0.1912,-0.2446,-0.368,-0.3803,-0.3828,-0.3803,-0.3994,-0.4183,-0.4451,-0.4644,-0.4748,-0.4803,-0.4952,-0.5276,-0.5863,-0.5979,-0.5991,-0.6003,-0.6009,-0.6009,-0.6009,-0.6009,-0.6075,-0.6182,-0.6524,-0.6113,-0.4002,-0.3386,-0.3465,-0.3662,-0.3795,-0.3928,-0.4044,-0.4072,-0.4114,-0.4174,-0.4229,-0.429,0.1776,0.2115,0.231,0.251,0.2679,0.2679,0.2679,0.2669,0.2548,0.2402,0.219,0.2261,0.2383,0.2572,0.2226,0.2081,0.2023,0.188,0.1767,0.1742,0.157,0.1501,0.1478,0.1433,0.141,0.141,0.141,0.141,0.141,0.141,0.141,0.141,0.141,0.14,0.0,0.0,0.0,0.0,0.0706,0.0558,0.0356,0.0189,0.0122,0.0178,0.0167,0.0,0.0,0.0,0.0,0.0,0.0,0.0,0.0,0.0,0.0,0.0,0.0,0.0,0.0,0.0,0.0,0.0,0.0,0.0,0.0,0.0,0.0,0.0,-0.0587,-0.1119,-0.1482,-0.1526,-0.1551,-0.1586,-0.1586,-0.1938,-0.2762,-0.2908,-0.3081,-0.3271,-0.3333,-0.333,-0.3375,-0.3499,-0.3852,-0.439,-0.4531,-0.462,-0.4788,-0.4961,-0.5228,-0.5552,-0.5808,-0.6003,-0.6009,-0.6009,-0.6009,-0.6009,-0.6009,-0.6081,-0.6278,-0.6642,-0.6098,-0.385,-0.3386,-0.3449,-0.3575,-0.3727,-0.3833,-0.3935,-0.4022,-0.4094,-0.4107,-0.4126,-0.4177,0.2013,0.0,0.2377,0.2543,0.0,0.2679,0.2679,0.2673,0.2632,0.2555,0.243,0.2475,0.2583,0.2671,0.249,0.2355,0.2313,0.2205,0.2039,0.1854,0.1738,0.1653,0.1547,0.1501,0.1478,0.1501,0.1501,0.1501,0.1501,0.1501,0.1501,0.1501,0.1501,0.1501,0.1498,0.1415,0.1189,0.0901,0.0777,0.0591,0.0413,0.0267,0.0211,0.0245,0.0,0.0,0.0,0.0,0.0,0.0,0.0,0.0,0.0,0.0,0.0,0.0,0.0,0.0,0.0,0.0,0.0,0.0,-0.0115,-0.0138,-0.0013,0.0,-0.0132,-0.0421,-0.0885,-0.1229,-0.1375,-0.1408,-0.1405,-0.1424,-0.1866,-0.247,-0.3078,-0.3205,-0.3205,-0.3205,-0.3205,-0.3205,-0.3205,-0.3379,-0.3664,-0.4134,-0.4293,-0.4419,-0.462,-0.4818,-0.5039,-0.5267,-0.571,-0.6003,-0.6009,-0.6009,-0.6003,-0.6009,-0.6009,-0.6093,-0.6266,-0.6649,-0.6131,-0.3976,-0.3386,-0.3426,-0.3482,-0.3564,-0.3644,-0.3773,-0.3913,-0.4,-0.4,-0.4042,-0.4134,0.2246,0.2475,0.2509,0.2578,0.2679,0.2679,0.2679,0.2679,0.0,0.0,0.0,0.2679,0.2679,0.2679,0.2679,0.2644,0.2522,0.2469,0.2281,0.1969,0.1917,0.181,0.1661,0.1637,0.1615,0.1635,0.1634,0.1635,0.1635,0.1634,0.1615,0.1615,0.1615,0.1591,0.1583,0.1477,0.1252,0.0964,0.0788,0.0615,0.0446,0.0356,0.0312,0.0345,0.0379,0.0345,0.0233,0.0111,0.0017,0.0,0.0,0.0,0.0,0.0,0.0,0.0,0.0,0.0,0.0,0.0,0.0,0.0,-0.0256,-0.0325,-0.0131,-0.0121,-0.033,-0.086,-0.0993,-0.109,-0.1134,-0.1136,-0.1194,-0.1306,-0.2167,-0.2848,-0.3144,-0.3205,-0.3205,-0.3205,-0.3205,-0.3205,-0.3205,-0.3336,-0.3524,-0.3744,-0.3911,-0.4203,-0.4451,-0.464,-0.4818,-0.5054,-0.5504,-0.5905,-0.5918,-0.59,-0.5925,-0.5931,-0.5991,-0.6063,-0.6242,-0.6574,-0.6037,-0.4594,-0.379,-0.3435,-0.3386,-0.3403,-0.3482,-0.3662,-0.3795,-0.3905,-0.392,-0.3993,-0.4086,0.2409,0.2679,0.2679,0.2679,0.2679,0.2679,0.2679,0.2679,0.2679,0.2679,0.2679,0.2679,0.2679,0.2679,0.2679,0.2669,0.2664,0.2384,0.224,0.0,0.1957,0.1827,0.185,0.1736,0.1716,0.1782,0.1781,0.176,0.176,0.1716,0.1692,0.1673,0.1635,0.1591,0.1582,0.1479,0.1314,0.1159,0.0853,0.0659,0.0569,0.0446,0.0413,0.0468,0.0424,0.0401,0.0379,0.0245,0.0117,0.0,0.0,0.0,0.0,0.0,0.0,0.0,0.0,0.0,0.0,0.0,0.0,0.0,-0.0256,-0.0448,-0.0596,-0.0605,-0.0686,-0.0877,-0.0921,-0.093,-0.0943,-0.0953,-0.1148,-0.1655,-0.2194,-0.2705,-0.3138,-0.3205,-0.3205,-0.3205,-0.3205,-0.3205,-0.3205,-0.3233,-0.329,-0.3333,-0.3584,-0.3835,-0.4333,-0.4507,-0.462,-0.4843,-0.5253,-0.5544,-0.5534,-0.5576,-0.5633,-0.58,-0.59,-0.6009,-0.6063,-0.6372,-0.6453,-0.6369,-0.4822,-0.3676,-0.3432,-0.3386,-0.3483,-0.3669,-0.3912,-0.4114,-0.4025,-0.3927,-0.3986,0.2901,0.274,0.2771,0.2756,0.2679,0.2679,0.2679,0.2679,0.2679,0.2679,0.2679,0.2679,0.2679,0.2679,0.2679,0.2679,0.2669,0.2452,0.2337,0.2292,0.2202,0.209,0.2048,0.1935,0.198,0.218,0.2245,0.2215,0.209,0.1977,0.1889,0.1872,0.1762,0.1719,0.1714,0.1654,0.155,0.1406,0.0981,0.0705,0.0615,0.0569,0.0569,0.0547,0.0525,0.0479,0.0401,0.0267,0.0167,0.0111,0.0022,0.0,0.0,0.0,0.0,0.0,0.0074,0.0111,0.0111,0.0033,0.0,0.0,-0.0245,-0.049,-0.0683,-0.0705,-0.075,-0.0877,-0.0888,-0.0888,-0.0888,-0.0888,-0.1136,-0.1744,-0.2228,-0.2688,-0.3095,-0.3205,-0.3205,-0.3205,-0.3205,-0.3205,-0.3205,-0.3205,-0.3205,-0.3229,-0.3475,-0.3873,-0.4277,-0.4435,-0.4527,-0.4635,-0.4834,-0.4927,-0.4966,-0.5064,-0.52,-0.5377,-0.5741,-0.5967,-0.6009,-0.6189,-0.6348,-0.6521,-0.5758,-0.483,-0.382,-0.3393,-0.3483,-0.3795,-0.5164,-0.5471,-0.448,-0.3905,-0.3949,0.3392,0.2934,0.2936,0.2855,0.2683,0.2679,0.2679,0.2679,0.2679,0.2679,0.2679,0.2679,0.2679,0.2679,0.2679,0.2714,0.269,0.2546,0.2452,0.241,0.2367,0.2338,0.2298,0.2202,0.2291,0.2534,0.2726,0.2659,0.2398,0.2219,0.2106,0.1986,0.1896,0.1848,0.1826,0.179,0.1703,0.1548,0.1207,0.093,0.0722,0.0719,0.0694,0.0648,0.0626,0.0558,0.0457,0.0334,0.0278,0.0233,0.0122,0.0044,0.0033,0.0,0.0,0.0,0.0133,0.0178,0.0156,0.0044,0.0,0.0,-0.0211,-0.0446,-0.0604,-0.0659,-0.0716,-0.083,-0.083,-0.0899,-0.1094,-0.1116,-0.1285,-0.1769,-0.2224,-0.2686,-0.312,-0.3205,-0.3205,-0.3205,-0.3205,-0.3205,-0.3205,-0.3205,-0.3205,-0.3248,-0.3517,-0.379,-0.4022,-0.4297,-0.4482,-0.4482,-0.4482,-0.4522,-0.4507,-0.4635,-0.4818,-0.501,-0.5504,-0.5808,-0.5924,-0.5973,-0.6099,-0.6301,-0.663,-0.6108,-0.4585,-0.369,-0.3847,-0.4513,-0.6233,-0.6795,-0.4457,-0.3935,-0.3935,0.3712,0.348,0.3223,0.2952,0.2691,0.2681,0.2679,0.2679,0.2679,0.2679,0.2679,0.2679,0.2679,0.2679,0.2679,0.2747,0.2759,0.2467,0.2438,0.2612,0.2412,0.2395,0.2541,0.2616,0.2656,0.2721,0.2985,0.2926,0.2582,0.2376,0.2202,0.203,0.1986,0.1964,0.1903,0.1772,0.1621,0.1426,0.1607,0.1502,0.1066,0.0881,0.0796,0.0784,0.0727,0.0648,0.0569,0.058,0.0502,0.0379,0.0256,0.0145,0.0089,0.0044,0.0,0.0,0.0133,0.0156,0.0,0.0,0.0,0.0,-0.0133,-0.0267,-0.0413,-0.0479,-0.058,-0.0694,-0.0738,-0.0999,-0.1598,-0.1691,-0.1698,-0.1768,-0.218,-0.2686,-0.3055,-0.3205,-0.3205,-0.3205,-0.3165,-0.3208,-0.3165,-0.3165,-0.3184,-0.3205,-0.3287,-0.3418,-0.365,-0.4093,-0.4442,-0.4466,-0.4486,-0.4482,-0.4507,-0.4502,-0.4631,-0.4843,-0.5214,-0.5539,-0.5726,-0.59,-0.6075,-0.6301,-0.6632,-0.6613,-0.6106,-0.5096,-0.4368,-0.5814,-0.6814,-0.6907,-0.4674,-0.4152,-0.4264,0.4012,0.3767,0.3442,0.3143,0.282,0.2754,0.2679,0.2679,0.2679,0.2679,0.2679,0.2679,0.2679,0.2679,0.2679,0.2747,0.2792,0.2574,0.2586,0.2748,0.2632,0.2664,0.278,0.2926,0.2985,0.3009,0.3138,0.3077,0.2834,0.2632,0.2461,0.2298,0.2228,0.211,0.2009,0.1853,0.1694,0.1579,0.1568,0.1457,0.1211,0.0972,0.083,0.0796,0.0773,0.0727,0.0683,0.0727,0.0694,0.0536,0.0468,0.039,0.029,0.0089,0.0,0.0,0.0056,0.0056,0.0,0.0,0.0,0.0,-0.0056,-0.01,-0.0167,-0.0323,-0.0514,-0.067,-0.0705,-0.1012,-0.1663,-0.1804,-0.1804,-0.1826,-0.1984,-0.2269,-0.2732,-0.2907,-0.2966,-0.2948,-0.2948,-0.2966,-0.2964,-0.2969,-0.3034,-0.3162,-0.3205,-0.3272,-0.3485,-0.3866,-0.4154,-0.4317,-0.4414,-0.4486,-0.4482,-0.4482,-0.4547,-0.4635,-0.4858,-0.5151,-0.5382,-0.5765,-0.6057,-0.6266,-0.6608,-0.6851,-0.6835,-0.6402,-0.5944,-0.7009,-0.7244,-0.715,-0.6379,-0.628,-0.6273,0.4186,0.3988,0.3626,0.3299,0.2937,0.2826,0.2717,0.2716,0.2679,0.2679,0.2679,0.2679,0.2679,0.2679,0.2679,0.2747,0.2804,0.2691,0.2727,0.2843,0.2845,0.2859,0.2975,0.312,0.3205,0.3205,0.3205,0.312,0.2979,0.2808,0.2683,0.2555,0.2444,0.2311,0.2149,0.1932,0.1774,0.167,0.1488,0.1348,0.1251,0.1069,0.0908,0.0842,0.083,0.0807,0.0751,0.0853,0.083,0.0694,0.067,0.0615,0.0479,0.0189,0.0,0.0,0.0,0.0,0.0,0.0,0.0,0.0,0.0,0.0,0.0,-0.0222,-0.0424,-0.0589,-0.0741,-0.1089,-0.1559,-0.1672,-0.1696,-0.1692,-0.1694,-0.1852,-0.216,-0.2403,-0.2591,-0.277,-0.2834,-0.2813,-0.2813,-0.2813,-0.2902,-0.3055,-0.3165,-0.3229,-0.3379,-0.3584,-0.3769,-0.3997,-0.4273,-0.4482,-0.4482,-0.4482,-0.4482,-0.4527,-0.4675,-0.4818,-0.4995,-0.5504,-0.5912,-0.6051,-0.6482,-0.6744,-0.6767,-0.6749,-0.6802,-0.6934,-0.7164,-0.7507,-0.7485,-0.7788,-0.7817,0.432,0.4206,0.3707,0.3339,0.3081,0.2931,0.2813,0.2679,0.2679,0.2679,0.2714,0.2714,0.2714,0.2712,0.2714,0.2777,0.2859,0.2788,0.2851,0.3047,0.2975,0.2975,0.3092,0.3159,0.3205,0.3205,0.3205,0.3101,0.2926,0.2834,0.2764,0.27,0.2623,0.2495,0.2282,0.2043,0.1805,0.1639,0.1476,0.1341,0.1218,0.1147,0.1028,0.0931,0.0889,0.0888,0.0877,0.0888,0.0888,0.0888,0.0877,0.0819,0.067,0.0233,0.0,0.0,0.0,0.0,0.0,0.0,0.0,0.0,0.0,0.0,0.0,-0.0135,-0.0258,-0.0392,-0.0774,-0.1142,-0.1396,-0.1453,-0.1453,-0.1453,-0.1431,-0.1478,-0.1477,-0.1782,-0.2132,-0.2618,-0.2726,-0.2748,-0.2791,-0.2813,-0.2813,-0.288,-0.3034,-0.3187,-0.3187,-0.3226,-0.3333,-0.3605,-0.4031,-0.4491,-0.4482,-0.4482,-0.4482,-0.4507,-0.4551,-0.4591,-0.4882,-0.518,-0.5482,-0.5806,-0.6087,-0.6337,-0.6552,-0.6723,-0.6838,-0.6977,-0.7187,-0.7484,-0.7819,-0.7885,-0.7899,0.423,0.4134,0.3713,0.3394,0.323,0.2987,0.2823,0.2684,0.2679,0.2747,0.278,0.2808,0.2874,0.2942,0.2942,0.2939,0.2909,0.3002,0.3121,0.3169,0.3285,0.3302,0.3168,0.3184,0.3205,0.3205,0.3205,0.3165,0.3101,0.3055,0.3031,0.3009,0.2896,0.2767,0.256,0.2219,0.1973,0.1846,0.1562,0.1454,0.1539,0.1314,0.1188,0.1258,0.1038,0.0888,0.0888,0.0888,0.0888,0.0888,0.0888,0.0842,0.0694,0.0345,0.0133,0.0122,0.0133,0.0133,0.0122,0.0111,0.008,0.0,0.0,0.0,0.0,-0.0055,-0.0092,-0.0227,-0.0571,-0.0962,-0.1299,-0.141,-0.141,-0.141,-0.141,-0.141,-0.1453,-0.1628,-0.1958,-0.2269,-0.2337,-0.2405,-0.2577,-0.2705,-0.2789,-0.2813,-0.2878,-0.2945,-0.2945,-0.2966,-0.3055,-0.3312,-0.3744,-0.413,-0.4113,-0.4354,-0.4491,-0.4482,-0.4502,-0.4527,-0.471,-0.475,-0.4996,-0.5363,-0.5659,-0.5997,-0.6248,-0.6649,-0.6794,-0.6951,-0.7155,-0.7453,-0.7834,-0.7856,-0.787,0.4232,0.413,0.3812,0.363,0.3462,0.3155,0.2966,0.2856,0.28,0.2843,0.2915,0.2907,0.3039,0.3239,0.3272,0.33,0.3243,0.3322,0.3397,0.3435,0.356,0.3482,0.3345,0.3248,0.3205,0.3205,0.3205,0.3205,0.3205,0.3205,0.3205,0.3184,0.3089,0.2961,0.2783,0.2402,0.2118,0.1986,0.1638,0.1575,0.1746,0.1465,0.1351,0.1455,0.1149,0.093,0.0888,0.0888,0.0888,0.0888,0.0888,0.0819,0.0626,0.039,0.0245,0.0214,0.0244,0.0244,0.0214,0.0254,0.0187,0.0,0.0,0.0,0.0,0.0,0.0,0.0,-0.036,-0.0786,-0.1055,-0.1165,-0.1233,-0.1343,-0.141,-0.141,-0.141,-0.1542,-0.1719,-0.183,-0.1878,-0.201,-0.2248,-0.2531,-0.2707,-0.2791,-0.2767,-0.2764,-0.2789,-0.2813,-0.2856,-0.3034,-0.3302,-0.3489,-0.3531,-0.3737,-0.4244,-0.4346,-0.4482,-0.4482,-0.4482,-0.4482,-0.4606,-0.4952,-0.5305,-0.5665,-0.6045,-0.6475,-0.6721,-0.6878,-0.7091,-0.7345,-0.7605,-0.7783,-0.7827,0.432,0.4274,0.4148,0.3991,0.3812,0.3484,0.3296,0.3164,0.2968,0.3006,0.3177,0.3045,0.3241,0.3536,0.3667,0.3763,0.3822,0.366,0.3667,0.3825,0.3727,0.3636,0.3557,0.3351,0.3229,0.3208,0.3205,0.3205,0.3205,0.3205,0.3205,0.3184,0.3138,0.3052,0.2905,0.2534,0.2265,0.2112,0.1796,0.1681,0.1839,0.164,0.1548,0.1602,0.1232,0.0993,0.0929,0.0907,0.0888,0.0888,0.0888,0.0762,0.058,0.0446,0.0323,0.0243,0.032,0.0323,0.0243,0.0302,0.0249,0.0,0.0,0.0,0.0,0.0,0.0,0.0,-0.0225,-0.0473,-0.0653,-0.0698,-0.0876,-0.1278,-0.1345,-0.1364,-0.141,-0.141,-0.141,-0.1455,-0.1477,-0.1542,-0.1804,-0.218,-0.2492,-0.2642,-0.2678,-0.2678,-0.2726,-0.277,-0.2813,-0.2834,-0.2961,-0.3068,-0.3049,-0.3077,-0.3696,-0.4186,-0.4378,-0.4482,-0.4482,-0.4482,-0.4575,-0.4882,-0.5272,-0.5614,-0.5869,-0.6266,-0.6625,-0.6811,-0.7019,-0.7203,-0.7345,-0.7544,-0.7753,0.432,0.4276,0.415,0.4007,0.3875,0.3546,0.3343,0.3252,0.3148,0.3274,0.3469,0.3602,0.3791,0.3986,0.4048,0.4145,0.4299,0.4164,0.4059,0.4016,0.4088,0.3946,0.364,0.3515,0.3381,0.3232,0.3205,0.3205,0.3205,0.3205,0.3205,0.3184,0.3184,0.3162,0.3083,0.281,0.2611,0.2552,0.2281,0.2254,0.2462,0.2189,0.2119,0.2183,0.1558,0.1222,0.1403,0.1105,0.0904,0.0896,0.0888,0.0853,0.0766,0.0591,0.0379,0.0267,0.0409,0.0484,0.0364,0.0335,0.032,0.0283,0.027,0.027,0.027,0.027,0.018,0.0,0.0,-0.0157,-0.0202,-0.0225,-0.045,-0.0877,-0.1098,-0.1252,-0.1387,-0.141,-0.141,-0.141,-0.141,-0.152,-0.1716,-0.1982,-0.2094,-0.2274,-0.2331,-0.2418,-0.2555,-0.2705,-0.2813,-0.2813,-0.2813,-0.2818,-0.2872,-0.3075,-0.3588,-0.404,-0.4273,-0.4431,-0.4446,-0.4507,-0.4595,-0.4843,-0.5233,-0.552,-0.5771,-0.6039,-0.6395,-0.671,-0.6927,-0.7042,-0.7123,-0.7298,-0.7529,0.432,0.4276,0.4234,0.413,0.4009,0.3719,0.3588,0.3559,0.3519,0.3639,0.3838,0.4058,0.4283,0.4436,0.4503,0.4596,0.4663,0.464,0.4523,0.4366,0.435,0.4168,0.3746,0.3524,0.3381,0.3239,0.3205,0.3205,0.3205,0.3205,0.3205,0.3205,0.3205,0.3205,0.3184,0.293,0.2816,0.2777,0.2517,0.2531,0.2662,0.2464,0.2415,0.251,0.196,0.1699,0.1741,0.1441,0.1222,0.1063,0.0967,0.1004,0.1169,0.1006,0.075,0.0614,0.0663,0.0741,0.0634,0.0467,0.0356,0.0396,0.0405,0.0405,0.0405,0.0405,0.027,0.0,0.0,0.0,0.0,0.0,0.0,-0.0404,-0.0764,-0.1052,-0.1321,-0.141,-0.141,-0.141,-0.141,-0.1498,-0.1607,-0.1651,-0.1696,-0.1832,-0.2006,-0.211,-0.2311,-0.2529,-0.2659,-0.2767,-0.2813,-0.2826,-0.2826,-0.3133,-0.3523,-0.3876,-0.4148,-0.4271,-0.435,-0.4466,-0.4571,-0.4917,-0.5291,-0.5449,-0.567,-0.59,-0.6201,-0.6499,-0.6834,-0.6884,-0.696,-0.7123,-0.7345,0.432,0.432,0.432,0.427,0.4281,0.4075,0.4006,0.4016,0.4003,0.4076,0.4217,0.4382,0.4608,0.4858,0.496,0.4995,0.4988,0.496,0.4915,0.4772,0.459,0.4287,0.396,0.3502,0.3245,0.3211,0.3226,0.3205,0.3229,0.3205,0.3205,0.3205,0.3205,0.3205,0.3169,0.2939,0.2865,0.2844,0.2607,0.2631,0.2837,0.2558,0.2508,0.274,0.2482,0.2205,0.1989,0.1916,0.173,0.1341,0.1069,0.1197,0.1618,0.156,0.1314,0.1129,0.1129,0.1146,0.105,0.0748,0.0464,0.0425,0.0405,0.0405,0.0405,0.0383,0.0315,0.009,0.0,0.0,0.0,0.0,0.0,-0.009,-0.0607,-0.101,-0.1343,-0.141,-0.141,-0.141,-0.141,-0.141,-0.1455,-0.1433,-0.1433,-0.1521,-0.1765,-0.1896,-0.198,-0.2241,-0.257,-0.2661,-0.2626,-0.2917,-0.2966,-0.354,-0.3892,-0.4043,-0.4269,-0.4397,-0.4361,-0.4415,-0.4531,-0.4873,-0.5156,-0.533,-0.5576,-0.5808,-0.6165,-0.6597,-0.6757,-0.674,-0.6847,-0.7013,-0.7139,0.432,0.432,0.432,0.4366,0.443,0.4343,0.4311,0.4293,0.4421,0.4422,0.4451,0.4707,0.4899,0.5055,0.5147,0.5147,0.5112,0.5055,0.4988,0.4944,0.4865,0.4479,0.4053,0.3539,0.3272,0.326,0.3266,0.3254,0.3278,0.3229,0.3205,0.3205,0.3205,0.3205,0.3184,0.3105,0.3132,0.317,0.3108,0.3061,0.3108,0.3066,0.3078,0.3125,0.3003,0.2798,0.2522,0.2226,0.1824,0.1368,0.1229,0.1368,0.1733,0.1714,0.1648,0.1604,0.1582,0.1604,0.1517,0.1162,0.0784,0.045,0.0427,0.0405,0.0405,0.0405,0.036,0.0293,0.0293,0.027,0.027,0.027,0.0067,-0.0472,-0.0853,-0.121,-0.1367,-0.141,-0.141,-0.141,-0.141,-0.141,-0.141,-0.141,-0.141,-0.1433,-0.1589,-0.1746,-0.1806,-0.1896,-0.2208,-0.2265,-0.2356,-0.2829,-0.3281,-0.3873,-0.4244,-0.4314,-0.4516,-0.4722,-0.4555,-0.4412,-0.4489,-0.4655,-0.4853,-0.503,-0.5415,-0.5752,-0.6201,-0.6586,-0.6815,-0.6873,-0.6825,-0.6903,-0.6954,0.432,0.432,0.432,0.4405,0.4567,0.4631,0.4623,0.4668,0.4852,0.4837,0.4734,0.496,0.5154,0.5189,0.5211,0.5239,0.5239,0.5154,0.5122,0.5032,0.4729,0.4417,0.4026,0.3556,0.3305,0.3296,0.3302,0.329,0.33,0.3272,0.3242,0.3242,0.3242,0.3242,0.3242,0.3242,0.3248,0.3294,0.3294,0.3287,0.3296,0.3302,0.329,0.3275,0.3229,0.3098,0.2851,0.2459,0.2006,0.1618,0.1514,0.1609,0.1777,0.1804,0.1804,0.1804,0.1804,0.1804,0.1736,0.1428,0.1095,0.0763,0.0606,0.0472,0.0428,0.0405,0.0405,0.0383,0.0405,0.0405,0.0383,0.0293,0.0022,-0.0337,-0.0808,-0.1167,-0.1368,-0.141,-0.141,-0.141,-0.141,-0.141,-0.141,-0.141,-0.141,-0.1433,-0.1523,-0.1589,-0.1631,-0.1712,-0.1846,-0.2029,-0.2144,-0.2566,-0.3116,-0.3724,-0.4205,-0.4336,-0.4696,-0.4918,-0.5023,-0.4736,-0.4604,-0.4707,-0.4686,-0.4858,-0.5362,-0.5753,-0.5954,-0.6331,-0.6724,-0.7387,-0.7629,-0.6787,-0.6816,0.432,0.4322,0.4316,0.4447,0.4705,0.4959,0.5073,0.5091,0.5323,0.5271,0.5009,0.5186,0.5281,0.5312,0.5277,0.5312,0.5277,0.5281,0.5246,0.5015,0.4617,0.4219,0.4116,0.3583,0.3346,0.3342,0.3317,0.3302,0.3315,0.3323,0.3335,0.3359,0.3359,0.3359,0.3363,0.3338,0.3327,0.3315,0.3327,0.3323,0.3342,0.3342,0.3327,0.3318,0.3272,0.3178,0.2977,0.2676,0.2306,0.1927,0.1826,0.1787,0.1804,0.1804,0.1804,0.1804,0.1804,0.1804,0.1782,0.1563,0.1363,0.1184,0.0919,0.0629,0.0472,0.0405,0.0405,0.0405,0.0405,0.0394,0.0395,0.0217,0.0123,-0.0025,-0.0341,-0.0738,-0.1101,-0.1284,-0.1322,-0.132,-0.1321,-0.1343,-0.1364,-0.1388,-0.141,-0.141,-0.1504,-0.1597,-0.1693,-0.1848,-0.196,-0.207,-0.2167,-0.2288,-0.2876,-0.3521,-0.3953,-0.428,-0.4765,-0.5131,-0.5627,-0.5455,-0.506,-0.498,-0.5393,-0.5529,-0.5584,-0.584,-0.6084,-0.6705,-0.7528,-0.8519,-0.9162,-0.7388,-0.6715,0.4366,0.4456,0.4535,0.4707,0.5014,0.5364,0.5547,0.5624,0.5719,0.5484,0.5116,0.5221,0.5319,0.5312,0.5312,0.5312,0.5312,0.5312,0.5277,0.5125,0.4613,0.4349,0.4157,0.37,0.3437,0.3439,0.3411,0.339,0.3393,0.3408,0.3468,0.3577,0.357,0.3546,0.3573,0.3517,0.3436,0.3393,0.339,0.3411,0.3429,0.3405,0.3408,0.3421,0.3327,0.3278,0.319,0.2998,0.2762,0.2483,0.2112,0.187,0.1804,0.1804,0.1804,0.1804,0.1804,0.1804,0.1782,0.1738,0.1696,0.1582,0.1229,0.083,0.0449,0.0404,0.0405,0.0405,0.0407,0.0421,0.0442,0.0433,0.0366,0.0302,0.0243,0.0153,0.0,-0.0495,-0.0822,-0.0851,-0.0876,-0.0948,-0.1155,-0.1392,-0.1409,-0.14,-0.1484,-0.1619,-0.179,-0.1936,-0.2017,-0.2114,-0.2147,-0.2247,-0.2545,-0.3171,-0.3663,-0.4121,-0.4608,-0.4988,-0.5515,-0.5875,-0.5385,-0.5699,-0.6381,-0.6333,-0.6042,-0.6657,-0.7036,-0.7702,-0.8243,-0.891,-0.8985,-0.7539,-0.7144,0.4405,0.4539,0.4705,0.5012,0.541,0.5833,0.5993,0.6049,0.6159,0.5767,0.5291,0.5372,0.5404,0.5319,0.5312,0.5312,0.5312,0.5312,0.5277,0.5146,0.4784,0.4595,0.4422,0.4001,0.3664,0.3578,0.3541,0.3538,0.3535,0.3594,0.3699,0.379,0.3782,0.3782,0.3782,0.3731,0.3622,0.3531,0.3535,0.3538,0.3535,0.351,0.3475,0.346,0.3366,0.3317,0.3366,0.3196,0.3007,0.2745,0.2415,0.2068,0.185,0.1804,0.1804,0.1804,0.1804,0.1804,0.1804,0.1804,0.1782,0.1804,0.1451,0.1117,0.0784,0.0628,0.0472,0.0428,0.0416,0.0433,0.0488,0.0469,0.0505,0.0505,0.0505,0.0505,0.0395,-0.003,-0.0388,-0.036,-0.0366,-0.0673,-0.0968,-0.1278,-0.1637,-0.1695,-0.1423,-0.1547,-0.1896,-0.2052,-0.2075,-0.2114,-0.2114,-0.2181,-0.2379,-0.2808,-0.3335,-0.3826,-0.435,-0.4608,-0.4944,-0.5321,-0.5569,-0.5918,-0.6227,-0.6627,-0.6564,-0.7239,-0.7691,-0.8021,-0.8426,-0.8968,-0.9091,-0.8506,-0.8483,0.4493,0.4705,0.5012,0.5361,0.5801,0.6173,0.6345,0.6405,0.6524,0.6226,0.5658,0.5721,0.5551,0.5359,0.5312,0.5312,0.5312,0.5312,0.5309,0.5255,0.497,0.4828,0.467,0.4309,0.3967,0.3734,0.372,0.3706,0.3762,0.3866,0.399,0.401,0.4035,0.4052,0.401,0.3969,0.3886,0.3782,0.3744,0.3685,0.364,0.3594,0.358,0.3481,0.3411,0.339,0.3439,0.3333,0.3162,0.2988,0.2853,0.2481,0.2088,0.1803,0.1804,0.1804,0.1804,0.1804,0.1804,0.1804,0.1804,0.1804,0.1607,0.1408,0.1183,0.0918,0.0651,0.0488,0.0436,0.0439,0.0492,0.0505,0.0505,0.0505,0.0505,0.0505,0.0437,0.0235,0.0098,0.0,0.0,-0.0344,-0.0829,-0.1236,-0.1643,-0.1898,-0.1569,-0.1499,-0.1837,-0.2114,-0.2114,-0.2114,-0.2114,-0.2114,-0.2247,-0.2545,-0.3074,-0.3401,-0.3956,-0.4285,-0.4482,-0.4762,-0.5106,-0.5428,-0.5765,-0.6183,-0.6643,-0.709,-0.753,-0.8033,-0.8352,-0.8656,-0.9042,-0.9458,-0.952,0.5029,0.5198,0.5458,0.5801,0.6139,0.6474,0.67,0.6761,0.666,0.6663,0.6623,0.6106,0.5685,0.539,0.5312,0.5312,0.5312,0.5312,0.5312,0.5269,0.5063,0.499,0.4937,0.4631,0.4399,0.4245,0.4115,0.4014,0.4055,0.4191,0.4252,0.4354,0.4342,0.4342,0.4333,0.4289,0.4146,0.4055,0.3977,0.3877,0.3727,0.3664,0.3601,0.3506,0.346,0.346,0.3485,0.3464,0.3375,0.3235,0.3211,0.2974,0.2587,0.2128,0.1933,0.1848,0.1848,0.1826,0.1804,0.1804,0.1804,0.1781,0.1738,0.1716,0.156,0.1301,0.0914,0.0644,0.0534,0.0546,0.05,0.0505,0.0505,0.0505,0.0505,0.0505,0.0505,0.0437,0.0269,0.0,0.0,0.0,-0.0403,-0.0773,-0.1008,-0.1209,-0.1094,-0.1198,-0.1563,-0.1879,-0.2114,-0.2114,-0.2114,-0.2114,-0.2147,-0.2447,-0.281,-0.2973,-0.3434,-0.3928,-0.4123,-0.4283,-0.457,-0.4922,-0.5337,-0.5784,-0.6299,-0.6807,-0.7407,-0.7918,-0.8124,-0.8301,-0.8606,-0.8993,-0.9345,0.5833,0.583,0.6013,0.6273,0.6571,0.6862,0.6995,0.7021,0.6935,0.6938,0.6827,0.6451,0.586,0.5447,0.5312,0.5312,0.5312,0.5312,0.5312,0.5297,0.5229,0.5275,0.5346,0.5073,0.5195,0.515,0.4882,0.4422,0.4281,0.4354,0.4455,0.4528,0.4552,0.4573,0.4524,0.443,0.435,0.4264,0.419,0.4067,0.3835,0.371,0.3545,0.3527,0.3509,0.3509,0.3509,0.3509,0.346,0.3366,0.3387,0.3232,0.3016,0.2805,0.2524,0.2245,0.205,0.1894,0.1826,0.1804,0.1804,0.1804,0.1804,0.1804,0.1716,0.1466,0.121,0.109,0.102,0.1007,0.084,0.0639,0.0505,0.0505,0.0505,0.0505,0.0505,0.0505,0.037,0.0235,0.0269,0.0269,0.0235,-0.0067,-0.0303,-0.0437,-0.0538,-0.084,-0.1243,-0.1645,-0.1947,-0.1982,-0.1948,-0.1948,-0.1981,-0.2181,-0.2412,-0.261,-0.2874,-0.337,-0.3798,-0.3991,-0.4183,-0.4473,-0.4922,-0.5309,-0.5874,-0.639,-0.7081,-0.7739,-0.7976,-0.8187,-0.8278,-0.8532,-0.8883,0.6589,0.6425,0.6523,0.6741,0.6953,0.7129,0.7216,0.7255,0.7202,0.7105,0.6961,0.6582,0.5988,0.547,0.5312,0.5312,0.5312,0.5312,0.5312,0.5344,0.5393,0.555,0.5685,0.5716,0.57,0.591,0.5604,0.5068,0.4688,0.4583,0.4584,0.4653,0.4702,0.4697,0.4624,0.4595,0.4471,0.4419,0.4374,0.426,0.4009,0.3734,0.353,0.3509,0.3509,0.3509,0.3509,0.3509,0.3485,0.3436,0.3436,0.3436,0.3366,0.3439,0.3248,0.2772,0.2427,0.214,0.194,0.1872,0.1894,0.1894,0.1872,0.1906,0.1994,0.1919,0.1753,0.1801,0.1809,0.1609,0.1242,0.0772,0.0538,0.0505,0.0505,0.0505,0.0505,0.0505,0.0505,0.0437,0.0505,0.0471,0.0404,0.037,0.0067,-0.0067,-0.0168,-0.0336,-0.0772,-0.1377,-0.168,-0.1748,-0.1748,-0.1748,-0.1781,-0.1847,-0.2011,-0.2075,-0.2409,-0.2841,-0.3303,-0.373,-0.3861,-0.3956,-0.4253,-0.4669,-0.5302,-0.5936,-0.6513,-0.7116,-0.771,-0.8096,-0.8221,-0.8306,-0.855,0.6901,0.6826,0.6868,0.6999,0.7171,0.7174,0.73,0.7332,0.7251,0.7115,0.6984,0.6436,0.5897,0.5426,0.5312,0.5312,0.5312,0.5312,0.5312,0.5312,0.5439,0.562,0.5849,0.5819,0.603,0.6295,0.6068,0.5668,0.5294,0.4971,0.4762,0.4782,0.4757,0.4777,0.4744,0.4724,0.4753,0.4713,0.4666,0.4489,0.419,0.3852,0.365,0.3548,0.3527,0.3527,0.3503,0.3506,0.3485,0.3485,0.3485,0.3506,0.3485,0.3485,0.3485,0.3269,0.2966,0.2514,0.2218,0.2098,0.2032,0.2047,0.2112,0.2259,0.237,0.2438,0.24,0.2562,0.2512,0.2178,0.1576,0.0939,0.0605,0.0571,0.0639,0.0605,0.0538,0.0505,0.0505,0.0505,0.0505,0.0505,0.0471,0.0471,0.0437,0.0336,0.0202,0.0,-0.0235,-0.0806,-0.1074,-0.1041,-0.1075,-0.1075,-0.1276,-0.1376,-0.1677,-0.1676,-0.1977,-0.2346,-0.2742,-0.3171,-0.3239,-0.337,-0.3667,-0.4061,-0.4701,-0.5302,-0.5905,-0.6578,-0.7324,-0.7802,-0.8163,-0.8244,-0.8324,0.7374,0.7335,0.7241,0.7283,0.7367,0.7363,0.7409,0.745,0.7405,0.7325,0.7086,0.649,0.5867,0.5396,0.5347,0.5347,0.5312,0.5312,0.5312,0.5344,0.5495,0.571,0.6056,0.6185,0.6407,0.6624,0.6525,0.6298,0.5922,0.5447,0.5064,0.4833,0.4802,0.4793,0.487,0.4802,0.4788,0.4773,0.4757,0.4593,0.4309,0.4046,0.3797,0.3629,0.3601,0.3577,0.3538,0.3499,0.3506,0.3509,0.3509,0.3509,0.3509,0.3569,0.3725,0.4512,0.4345,0.3689,0.2702,0.2464,0.2323,0.2275,0.2434,0.2726,0.274,0.2679,0.2679,0.2679,0.2679,0.2412,0.1978,0.1441,0.1241,0.1141,0.1107,0.094,0.0807,0.0538,0.0505,0.0505,0.0505,0.0505,0.0505,0.0505,0.0505,0.0437,0.0336,0.0202,0.0134,-0.0034,-0.0168,-0.0134,-0.0168,-0.0202,-0.047,-0.0704,-0.1307,-0.1473,-0.1641,-0.1976,-0.2246,-0.2479,-0.2678,-0.2779,-0.2942,-0.3467,-0.4088,-0.4797,-0.5467,-0.6233,-0.6996,-0.7505,-0.7986,-0.8192,-0.8324,0.7674,0.7674,0.7572,0.7523,0.7527,0.7523,0.7527,0.7527,0.7482,0.7428,0.7132,0.6442,0.576,0.5464,0.541,0.541,0.5372,0.5382,0.5414,0.5442,0.5592,0.5901,0.6229,0.6466,0.6764,0.7196,0.6904,0.6657,0.6401,0.6036,0.5552,0.5106,0.5215,0.5161,0.512,0.5165,0.5197,0.5184,0.492,0.4744,0.462,0.4358,0.4078,0.3897,0.3765,0.3678,0.3626,0.3679,0.3672,0.3509,0.3509,0.3509,0.3513,0.3945,0.4379,0.4987,0.5036,0.4659,0.3779,0.3286,0.2807,0.268,0.2747,0.3038,0.2887,0.278,0.2679,0.2679,0.2679,0.2515,0.2281,0.2009,0.1909,0.1876,0.1876,0.161,0.1276,0.0873,0.0571,0.0505,0.0505,0.0505,0.0505,0.0505,0.0505,0.0505,0.0437,0.037,0.0336,0.0336,0.0303,0.0235,0.0235,0.0134,-0.0101,-0.0403,-0.0905,-0.1306,-0.1507,-0.1674,-0.1944,-0.2113,-0.2281,-0.2347,-0.2449,-0.2975,-0.3698,-0.4379,-0.5093,-0.5893,-0.6665,-0.7299,-0.7778,-0.8015,-0.8296,0.7674,0.7674,0.7572,0.7576,0.767,0.7527,0.7572,0.767,0.7527,0.7349,0.6981,0.6163,0.5638,0.5508,0.5526,0.5529,0.5498,0.5638,0.5669,0.5756,0.5905,0.6145,0.6425,0.6673,0.6919,0.7175,0.7077,0.6899,0.6707,0.6593,0.6211,0.5961,0.5766,0.5857,0.5831,0.5713,0.5726,0.5616,0.5265,0.5103,0.5071,0.4893,0.4561,0.4258,0.4056,0.3884,0.3731,0.3903,0.3894,0.3621,0.3629,0.3529,0.3655,0.4409,0.5013,0.5218,0.5312,0.5046,0.4667,0.4219,0.3796,0.3385,0.3232,0.3307,0.3179,0.2847,0.2714,0.2679,0.2679,0.2679,0.2613,0.2611,0.2444,0.2377,0.2278,0.2011,0.161,0.1007,0.0705,0.0538,0.0571,0.0739,0.0772,0.0806,0.0571,0.0538,0.0505,0.0404,0.0437,0.0437,0.0437,0.0437,0.0437,0.0303,0.0034,-0.0336,-0.0738,-0.1206,-0.154,-0.1573,-0.1674,-0.181,-0.1979,-0.2182,-0.2382,-0.2812,-0.3241,-0.3861,-0.4599,-0.555,-0.6329,-0.6876,-0.7392,-0.7686,-0.8091,0.7674,0.7674,0.7625,0.7666,0.7674,0.7625,0.7666,0.7674,0.7659,0.7299,0.683,0.6065,0.5721,0.5718,0.5742,0.5773,0.5808,0.589,0.599,0.6118,0.6237,0.6417,0.6643,0.6803,0.6962,0.7223,0.723,0.7159,0.7004,0.6936,0.6917,0.6684,0.6305,0.6038,0.6004,0.6083,0.6055,0.6002,0.5766,0.5625,0.5638,0.5619,0.5354,0.5065,0.4685,0.456,0.4494,0.4283,0.4148,0.4053,0.4032,0.3891,0.3818,0.4756,0.5228,0.5312,0.5312,0.5312,0.5249,0.4864,0.4385,0.4053,0.3851,0.3761,0.3539,0.3043,0.2746,0.2679,0.2712,0.2746,0.2681,0.2679,0.2646,0.2679,0.258,0.2346,0.201,0.1441,0.124,0.1208,0.1208,0.1274,0.124,0.1206,0.0872,0.0605,0.0538,0.0505,0.0505,0.0505,0.0505,0.0505,0.0505,0.0505,0.0235,-0.0134,-0.0537,-0.1005,-0.1507,-0.144,-0.1406,-0.1607,-0.1776,-0.2013,-0.2182,-0.2379,-0.2775,-0.3305,-0.4113,-0.5134,-0.5804,-0.6303,-0.6816,-0.7294,-0.7705,0.7674,0.7674,0.7674,0.7674,0.7674,0.7674,0.7719,0.775,0.7787,0.7342,0.6669,0.6264,0.6042,0.5993,0.6017,0.6083,0.618,0.6268,0.6386,0.6508,0.6604,0.6725,0.6855,0.6979,0.7099,0.7317,0.7273,0.7178,0.7155,0.7191,0.7141,0.6963,0.6698,0.6457,0.6419,0.6349,0.6342,0.6353,0.6357,0.6252,0.6223,0.6293,0.6047,0.571,0.5306,0.5131,0.5146,0.506,0.4918,0.4746,0.4605,0.4485,0.4499,0.4719,0.5218,0.5312,0.5312,0.5312,0.5217,0.5093,0.4838,0.4602,0.457,0.4344,0.3858,0.3272,0.2944,0.2878,0.2878,0.2845,0.2814,0.278,0.2714,0.2679,0.2679,0.2513,0.2379,0.2009,0.1977,0.1944,0.1944,0.1909,0.1741,0.1641,0.1078,0.0741,0.0538,0.0505,0.0505,0.0505,0.0505,0.0505,0.0505,0.0505,0.0437,0.0068,-0.0307,-0.0671,-0.1039,-0.1106,-0.1139,-0.1287,-0.1521,-0.1809,-0.1911,-0.1945,-0.221,-0.2673,-0.3619,-0.4724,-0.5299,-0.5842,-0.6149,-0.663,-0.7111,0.7674,0.7674,0.7674,0.7674,0.7712,0.7674,0.7753,0.7904,0.7941,0.7547,0.6929,0.6769,0.657,0.6397,0.6417,0.6519,0.6665,0.6775,0.6932,0.7055,0.7231,0.7163,0.7144,0.7257,0.729,0.7326,0.7303,0.726,0.723,0.7264,0.7235,0.7235,0.7103,0.7028,0.7132,0.7146,0.715,0.7166,0.7109,0.6868,0.6735,0.6862,0.6556,0.6184,0.5947,0.584,0.5726,0.6013,0.5848,0.5413,0.5341,0.522,0.5104,0.5138,0.5312,0.5312,0.5312,0.5312,0.5312,0.5284,0.5217,0.5147,0.5023,0.4829,0.428,0.3695,0.3241,0.3241,0.314,0.3144,0.3078,0.2917,0.2749,0.2679,0.2679,0.2646,0.2545,0.2479,0.2379,0.2346,0.2512,0.258,0.2344,0.2045,0.1385,0.0914,0.0607,0.0505,0.0505,0.0505,0.0505,0.0505,0.0507,0.0537,0.0503,0.0245,-0.0069,-0.0409,-0.0521,-0.0505,-0.0615,-0.0766,-0.1075,-0.1516,-0.1708,-0.1776,-0.181,-0.1944,-0.3028,-0.4078,-0.4893,-0.5439,-0.5686,-0.599,-0.6474,0.7674,0.7674,0.7674,0.7753,0.7795,0.7753,0.7795,0.7982,0.8079,0.7996,0.776,0.7443,0.7106,0.6937,0.6855,0.7015,0.7373,0.7535,0.7693,0.815,0.8145,0.8258,0.8121,0.7724,0.7635,0.7736,0.764,0.7387,0.7426,0.7392,0.7392,0.7392,0.7358,0.7319,0.7221,0.72,0.7191,0.7191,0.7159,0.7114,0.7027,0.7109,0.703,0.6641,0.6632,0.6535,0.633,0.6721,0.6572,0.6086,0.6018,0.5703,0.5435,0.534,0.5312,0.5312,0.5312,0.5312,0.5312,0.5312,0.5312,0.5312,0.5281,0.509,0.4614,0.4215,0.3861,0.357,0.3384,0.3309,0.3144,0.2893,0.2728,0.2683,0.2679,0.2679,0.2613,0.2646,0.2613,0.258,0.2679,0.2725,0.2605,0.2548,0.2036,0.1632,0.1381,0.0757,0.0608,0.0539,0.0505,0.0505,0.0514,0.0558,0.054,0.0385,0.0351,0.0158,0.0202,0.0293,0.0124,-0.008,-0.0883,-0.1477,-0.1534,-0.1607,-0.1642,-0.1842,-0.2509,-0.3366,-0.418,-0.4928,-0.5306,-0.5526,-0.5804,0.7674,0.7674,0.7674,0.7795,0.7912,0.7829,0.7983,0.8306,0.8506,0.8671,0.8706,0.8227,0.7733,0.749,0.7404,0.7493,0.7959,0.8037,0.8337,0.8834,0.8853,0.8771,0.8579,0.8335,0.8139,0.8132,0.7818,0.7544,0.749,0.7515,0.7485,0.7485,0.7524,0.7421,0.7358,0.7324,0.7324,0.7294,0.728,0.7225,0.7203,0.7235,0.7162,0.7121,0.7096,0.7071,0.7042,0.7056,0.7081,0.6743,0.6443,0.6083,0.571,0.5498,0.5439,0.5344,0.5312,0.5312,0.5312,0.5312,0.5312,0.5312,0.5312,0.5186,0.5001,0.4768,0.4377,0.4011,0.3706,0.3639,0.3555,0.3282,0.3267,0.3237,0.3281,0.3294,0.2925,0.2929,0.2679,0.2679,0.2742,0.2783,0.2925,0.2883,0.2727,0.2481,0.2193,0.1509,0.0866,0.0796,0.066,0.0521,0.0528,0.0567,0.0653,0.0644,0.0611,0.0671,0.0809,0.0942,0.0936,0.0683,-0.0352,-0.1278,-0.1118,-0.1102,-0.1417,-0.1776,-0.2275,-0.2806,-0.3499,-0.418,-0.4826,-0.5179,-0.54,0.7674,0.7715,0.7719,0.7825,0.8017,0.8148,0.8476,0.9011,0.9191,0.9443,0.9663,0.9212,0.8594,0.7973,0.7951,0.8112,0.8266,0.834,0.868,0.8969,0.9202,0.9144,0.9134,0.9028,0.8819,0.8342,0.8042,0.796,0.7644,0.7797,0.7778,0.7701,0.7806,0.7776,0.7757,0.7727,0.7651,0.7492,0.7358,0.7333,0.7367,0.7264,0.723,0.7205,0.7205,0.72,0.7145,0.7171,0.7136,0.7017,0.6927,0.6561,0.6229,0.5901,0.562,0.5414,0.5329,0.5579,0.5312,0.5312,0.5312,0.5336,0.5504,0.5367,0.5246,0.5122,0.48,0.4562,0.4322,0.4369,0.4344,0.4316,0.4289,0.4293,0.4297,0.3997,0.3456,0.3139,0.28,0.272,0.2848,0.2989,0.3288,0.3351,0.3177,0.3121,0.2878,0.2498,0.1876,0.1295,0.1074,0.0552,0.0563,0.058,0.0663,0.0755,0.0719,0.0719,0.1302,0.148,0.1526,0.1435,0.0493,-0.0172,-0.0384,-0.0601,-0.0854,-0.1277,-0.1776,-0.235,-0.2903,-0.3557,-0.422,-0.4821,-0.5112,0.7791,0.7904,0.7908,0.8144,0.8557,0.9016,0.9288,0.9474,0.9686,0.9936,1.0103,0.9675,0.922,0.8916,0.8771,0.8906,0.9042,0.9241,0.9503,0.9695,0.9775,0.9868,0.9883,0.981,0.9563,0.9198,0.8829,0.8571,0.8538,0.8534,0.8486,0.8592,0.8414,0.8475,0.8495,0.8553,0.8117,0.77,0.7497,0.7522,0.7506,0.743,0.7396,0.7414,0.7258,0.7267,0.7326,0.7322,0.7257,0.7174,0.7129,0.6923,0.6768,0.636,0.5982,0.5527,0.6048,0.6629,0.559,0.5326,0.5393,0.5652,0.5999,0.5882,0.5648,0.5358,0.5219,0.5097,0.5139,0.5266,0.5272,0.5272,0.5275,0.5275,0.5231,0.4937,0.4321,0.3507,0.3147,0.2895,0.3021,0.3243,0.3593,0.3559,0.3437,0.3546,0.3489,0.3166,0.2796,0.218,0.1591,0.1068,0.0883,0.0992,0.0805,0.0854,0.0764,0.0809,0.1481,0.2152,0.2508,0.2239,0.1391,0.0826,0.0529,0.0149,-0.0239,-0.0776,-0.1407,-0.176,-0.2255,-0.2966,-0.3654,-0.4398,-0.5031,0.787,0.8156,0.8189,0.8598,0.9248,0.9739,0.9927,0.9947,1.0005,1.0127,1.0244,1.0015,0.9712,0.9385,0.9257,0.934,0.9529,0.9524,0.9743,1.0112,1.0322,1.0268,1.0307,1.0288,0.9951,0.9697,0.9521,0.9307,0.9165,0.9019,0.8975,0.8955,0.9004,0.9014,0.896,0.8848,0.864,0.8202,0.7875,0.7846,0.7866,0.7908,0.7973,0.7816,0.7569,0.747,0.7782,0.7805,0.7802,0.7637,0.7599,0.7166,0.7169,0.7028,0.7083,0.6862,0.7425,0.7442,0.6646,0.6174,0.6035,0.6112,0.657,0.652,0.6349,0.6142,0.6012,0.5914,0.6094,0.6227,0.6227,0.6224,0.6227,0.6184,0.6056,0.5927,0.5019,0.4055,0.3598,0.3259,0.3264,0.3456,0.358,0.3624,0.358,0.358,0.358,0.3495,0.319,0.2769,0.2187,0.1627,0.1474,0.1458,0.1302,0.1346,0.1391,0.157,0.2017,0.2642,0.3222,0.3,0.2106,0.166,0.1334,0.0929,0.043,-0.0443,-0.1084,-0.1388,-0.1813,-0.2566,-0.3469,-0.4526,-0.5077,0.804,0.8492,0.8557,0.9168,0.9976,1.021,1.0317,1.0385,1.0235,1.0201,1.0317,1.0312,1.0003,0.97,0.9644,0.9683,0.9785,0.9763,0.9946,1.0317,1.0322,1.0322,1.0322,1.0298,1.0093,0.9966,0.9883,0.9795,0.9326,0.9263,0.9321,0.9106,0.9199,0.9287,0.9326,0.9312,0.9194,0.9077,0.8659,0.8446,0.8766,0.8931,0.8984,0.8613,0.8121,0.7786,0.8494,0.8809,0.8891,0.8479,0.8079,0.7467,0.7885,0.8173,0.8423,0.8523,0.8833,0.8415,0.7725,0.7121,0.6878,0.6857,0.6965,0.6924,0.674,0.6653,0.6534,0.6488,0.6623,0.6644,0.6644,0.6641,0.6644,0.6644,0.6559,0.631,0.5685,0.481,0.4221,0.3867,0.3742,0.3886,0.3667,0.3667,0.4018,0.3843,0.3755,0.3753,0.349,0.3179,0.2823,0.2287,0.2286,0.2285,0.2506,0.2505,0.2418,0.2553,0.2776,0.2954,0.3401,0.3223,0.2823,0.251,0.2232,0.1624,0.1065,0.0223,-0.0481,-0.0947,-0.1467,-0.2225,-0.3173,-0.4093,-0.4893,0.8635,0.8905,0.9408,0.9897,1.0254,1.0433,1.0462,1.0423,1.0462,1.0428,1.0385,1.0375,1.0316,1.011,1.01,1.0097,1.0083,1.0039,1.0176,1.0293,1.0322,1.0322,1.0322,1.0317,1.019,1.02,1.019,1.0204,0.995,0.9883,0.9946,0.9979,0.9935,0.9844,0.9849,0.9849,0.9829,0.978,0.9624,0.9175,0.9136,0.9534,0.9714,0.9127,0.8537,0.8503,0.9082,0.9566,0.9267,0.8856,0.8632,0.8842,0.9541,0.9733,0.9806,0.9843,0.9695,0.9252,0.8647,0.7904,0.7402,0.715,0.7063,0.7017,0.6959,0.6975,0.7017,0.7017,0.6975,0.6975,0.6975,0.6975,0.6975,0.6975,0.6975,0.6608,0.6285,0.5631,0.4893,0.4629,0.4408,0.4102,0.3884,0.4016,0.4282,0.4324,0.4234,0.4102,0.3753,0.349,0.3447,0.309,0.3177,0.3265,0.3485,0.3571,0.3439,0.3263,0.3398,0.3532,0.3578,0.3401,0.3179,0.3314,0.3129,0.2439,0.1746,0.1024,0.034,-0.0207,-0.0874,-0.155,-0.1974,-0.2733,-0.384,0.9399,0.9518,0.9961,1.0332,1.0559,1.0684,1.0669,1.0621,1.0664,1.0659,1.0582,1.05,1.0462,1.0418,1.0423,1.039,1.0322,1.0317,1.0302,1.0312,1.0322,1.0322,1.0322,1.0322,1.0307,1.0317,1.0317,1.0312,1.0322,1.0302,1.0278,1.0322,1.0322,1.0322,1.0322,1.0322,1.0322,1.0298,1.0322,1.0028,0.9526,0.9917,1.0122,0.9561,0.9488,0.9437,0.9609,1.0068,0.9875,0.9624,0.9486,0.9614,1.0021,1.0152,1.0235,1.0201,1.0088,0.9892,0.9217,0.8561,0.7901,0.7731,0.7652,0.7776,0.7739,0.7739,0.736,0.7314,0.7017,0.6975,0.6975,0.6975,0.6975,0.6975,0.6979,0.682,0.6653,0.6349,0.6002,0.5956,0.544,0.4668,0.4707,0.5346,0.5569,0.5658,0.544,0.4581,0.4188,0.3886,0.3799,0.3757,0.3799,0.3886,0.397,0.419,0.4368,0.4238,0.4104,0.3842,0.3753,0.3667,0.358,0.358,0.3447,0.3155,0.2446,0.1793,0.1256,0.0739,0.0,-0.0762,-0.1122,-0.1437,-0.2415,1.0249,1.0093,1.0351,1.0626,1.0881,1.0881,1.0871,1.0779,1.0817,1.0779,1.0784,1.0669,1.0582,1.05,1.0462,1.039,1.0356,1.0351,1.0312,1.0322,1.0322,1.0322,1.0322,1.0322,1.0322,1.0322,1.0322,1.0322,1.0322,1.0322,1.0322,1.0322,1.0322,1.0322,1.0322,1.0322,1.0322,1.0322,1.0322,1.0322,1.0293,1.0322,1.0229,1.0283,1.0322,1.0322,1.0278,1.0278,1.0278,1.0234,1.0142,1.0181,1.022,1.0322,1.0322,1.0283,1.0283,1.0093,0.97,0.9252,0.8886,0.8688,0.8655,0.8614,0.8614,0.8443,0.8062,0.7731,0.7474,0.7147,0.7147,0.6975,0.6975,0.6975,0.6979,0.6982,0.694,0.6898,0.6898,0.6894,0.6215,0.5361,0.5572,0.6252,0.655,0.6683,0.6301,0.5486,0.4799,0.4499,0.4328,0.424,0.4196,0.4282,0.4366,0.476,0.5026,0.5234,0.5053,0.4403,0.3884,0.3753,0.3622,0.358,0.349,0.3312,0.3135,0.2642,0.2105,0.1701,0.1476,0.0894,0.0224,-0.0179,-0.0988,1.0597,1.0351,1.0621,1.0789,1.0881,1.0881,1.0871,1.0817,1.0871,1.0871,1.0822,1.0838,1.0794,1.0703,1.0741,1.0621,1.0385,1.038,1.0351,1.0322,1.0322,1.0322,1.0322,1.0322,1.0322,1.0322,1.0322,1.0322,1.0322,1.0322,1.0322,1.0322,1.0322,1.0322,1.0322,1.0322,1.0322,1.0322,1.0322,1.0322,1.0322,1.0322,1.0322,1.0322,1.0322,1.0322,1.0322,1.0322,1.0322,1.0322,1.0322,1.0322,1.0322,1.0322,1.0322,1.0322,1.0322,1.0244,0.9971,0.9774,0.9532,0.9686,0.9646,0.9686,0.9686,0.9686,0.9315,0.8967,0.8513,0.7787,0.7579,0.7147,0.7017,0.6975,0.6979,0.6979,0.6975,0.6979,0.6975,0.6855,0.6562,0.6007,0.5752,0.6343,0.6803,0.6852,0.665,0.5876,0.5577,0.5239,0.4895,0.4849,0.476,0.4456,0.4451,0.5195,0.5631,0.5924,0.5876,0.5014,0.4322,0.3797,0.3711,0.3753,0.3667,0.3534,0.3312,0.3135,0.3133,0.2818,0.3086,0.2815,0.1926,0.0987,0.0135]}]]